<?xml version="1.0" encoding="UTF-8" standalone="no" ?>
<gpx xmlns="http://www.topografix.com/GPX/1/1" xmlns:xsi="http://www.w3.org/2001/XMLSchema-instance" xsi:schemaLocation="http://www.topografix.com/GPX/1/1 http://www.topografix.com/GPX/1/1/gpx.xsd" version="1.1" creator="VisuGPX - https://www.visugpx.com">
  <metadata>
    <name>RoadTrip Moto Ecosse Juin 2021 - V2</name>
  </metadata>
  <trk>
    <name><![CDATA[J09t - Ullapool Youth Hostel, Shore Street, IV26 2UJ, Écosse, Royaume-Uni - Borgie Lodge Hotel, Skerray, Tongue, Lairg]]></name>
    <trkseg>
      <trkpt lat="57.9019" lon="-5.16594">
        <ele>11.15</ele>
        <time>2021-03-20T20:55:50Z</time>
      </trkpt>
      <trkpt lat="57.90172" lon="-5.16459">
        <ele>13.85</ele>
        <time>2021-03-20T20:55:56Z</time>
      </trkpt>
      <trkpt lat="57.90174" lon="-5.16437">
        <ele>14.51</ele>
        <time>2021-03-20T20:56:03Z</time>
      </trkpt>
      <trkpt lat="57.90191" lon="-5.16443">
        <ele>15.72</ele>
        <time>2021-03-20T20:56:09Z</time>
      </trkpt>
      <trkpt lat="57.90199" lon="-5.1644">
        <ele>16.52</ele>
        <time>2021-03-20T20:56:15Z</time>
      </trkpt>
      <trkpt lat="57.90218" lon="-5.16459">
        <ele>18.05</ele>
        <time>2021-03-20T20:56:19Z</time>
      </trkpt>
      <trkpt lat="57.90243" lon="-5.16497">
        <ele>18.74</ele>
        <time>2021-03-20T20:56:23Z</time>
      </trkpt>
      <trkpt lat="57.90269" lon="-5.16527">
        <ele>19.68</ele>
        <time>2021-03-20T20:56:26Z</time>
      </trkpt>
      <trkpt lat="57.90289" lon="-5.16494">
        <ele>20</ele>
        <time>2021-03-20T20:56:35Z</time>
      </trkpt>
      <trkpt lat="57.90317" lon="-5.16431">
        <ele>20</ele>
        <time>2021-03-20T20:56:44Z</time>
      </trkpt>
      <trkpt lat="57.9035" lon="-5.16351">
        <ele>20.63</ele>
        <time>2021-03-20T20:56:53Z</time>
      </trkpt>
      <trkpt lat="57.9041" lon="-5.16211">
        <ele>21.75</ele>
        <time>2021-03-20T20:57:02Z</time>
      </trkpt>
      <trkpt lat="57.90494" lon="-5.16067">
        <ele>24.43</ele>
        <time>2021-03-20T20:57:10Z</time>
      </trkpt>
      <trkpt lat="57.90613" lon="-5.16507">
        <ele>23.07</ele>
        <time>2021-03-20T20:57:15Z</time>
      </trkpt>
      <trkpt lat="57.90673" lon="-5.16724">
        <ele>27.33</ele>
        <time>2021-03-20T20:57:19Z</time>
      </trkpt>
      <trkpt lat="57.90712" lon="-5.16858">
        <ele>30.27</ele>
        <time>2021-03-20T20:57:24Z</time>
      </trkpt>
      <trkpt lat="57.90749" lon="-5.16977">
        <ele>34.67</ele>
        <time>2021-03-20T20:57:29Z</time>
      </trkpt>
      <trkpt lat="57.90755" lon="-5.17001">
        <ele>35.08</ele>
        <time>2021-03-20T20:57:33Z</time>
      </trkpt>
      <trkpt lat="57.9076" lon="-5.17041">
        <ele>36.47</ele>
        <time>2021-03-20T20:57:38Z</time>
      </trkpt>
      <trkpt lat="57.90761" lon="-5.17074">
        <ele>37.04</ele>
        <time>2021-03-20T20:57:42Z</time>
      </trkpt>
      <trkpt lat="57.9076" lon="-5.17193">
        <ele>37.38</ele>
        <time>2021-03-20T20:57:47Z</time>
      </trkpt>
      <trkpt lat="57.90764" lon="-5.17258">
        <ele>39.4</ele>
        <time>2021-03-20T20:57:51Z</time>
      </trkpt>
      <trkpt lat="57.90775" lon="-5.17363">
        <ele>41.32</ele>
        <time>2021-03-20T20:57:56Z</time>
      </trkpt>
      <trkpt lat="57.90782" lon="-5.1741">
        <ele>42.23</ele>
        <time>2021-03-20T20:58:00Z</time>
      </trkpt>
      <trkpt lat="57.90797" lon="-5.17477">
        <ele>42.1</ele>
        <time>2021-03-20T20:58:05Z</time>
      </trkpt>
      <trkpt lat="57.90806" lon="-5.1751">
        <ele>41.65</ele>
        <time>2021-03-20T20:58:10Z</time>
      </trkpt>
      <trkpt lat="57.90816" lon="-5.17539">
        <ele>42.08</ele>
        <time>2021-03-20T20:58:14Z</time>
      </trkpt>
      <trkpt lat="57.90863" lon="-5.17639">
        <ele>41.51</ele>
        <time>2021-03-20T20:58:19Z</time>
      </trkpt>
      <trkpt lat="57.91087" lon="-5.1806">
        <ele>61.59</ele>
        <time>2021-03-20T20:58:23Z</time>
      </trkpt>
      <trkpt lat="57.91266" lon="-5.18343">
        <ele>81.35</ele>
        <time>2021-03-20T20:58:28Z</time>
      </trkpt>
      <trkpt lat="57.91322" lon="-5.18425">
        <ele>86.64</ele>
        <time>2021-03-20T20:58:32Z</time>
      </trkpt>
      <trkpt lat="57.91334" lon="-5.18439">
        <ele>88.25</ele>
        <time>2021-03-20T20:58:37Z</time>
      </trkpt>
      <trkpt lat="57.91349" lon="-5.18452">
        <ele>89.99</ele>
        <time>2021-03-20T20:58:42Z</time>
      </trkpt>
      <trkpt lat="57.91373" lon="-5.18464">
        <ele>91.61</ele>
        <time>2021-03-20T20:58:46Z</time>
      </trkpt>
      <trkpt lat="57.91397" lon="-5.18465">
        <ele>91.71</ele>
        <time>2021-03-20T20:58:51Z</time>
      </trkpt>
      <trkpt lat="57.91412" lon="-5.18462">
        <ele>91.16</ele>
        <time>2021-03-20T20:58:55Z</time>
      </trkpt>
      <trkpt lat="57.91456" lon="-5.18444">
        <ele>90.6</ele>
        <time>2021-03-20T20:59:00Z</time>
      </trkpt>
      <trkpt lat="57.91478" lon="-5.18438">
        <ele>90.18</ele>
        <time>2021-03-20T20:59:04Z</time>
      </trkpt>
      <trkpt lat="57.91495" lon="-5.18439">
        <ele>90.04</ele>
        <time>2021-03-20T20:59:09Z</time>
      </trkpt>
      <trkpt lat="57.91513" lon="-5.18443">
        <ele>89.04</ele>
        <time>2021-03-20T20:59:14Z</time>
      </trkpt>
      <trkpt lat="57.91539" lon="-5.18463">
        <ele>86.2</ele>
        <time>2021-03-20T20:59:18Z</time>
      </trkpt>
      <trkpt lat="57.91552" lon="-5.18483">
        <ele>84.54</ele>
        <time>2021-03-20T20:59:23Z</time>
      </trkpt>
      <trkpt lat="57.91564" lon="-5.18506">
        <ele>82.18</ele>
        <time>2021-03-20T20:59:27Z</time>
      </trkpt>
      <trkpt lat="57.91595" lon="-5.18589">
        <ele>77.87</ele>
        <time>2021-03-20T20:59:32Z</time>
      </trkpt>
      <trkpt lat="57.91637" lon="-5.18707">
        <ele>71.14</ele>
        <time>2021-03-20T20:59:36Z</time>
      </trkpt>
      <trkpt lat="57.91771" lon="-5.19162">
        <ele>42.44</ele>
        <time>2021-03-20T20:59:41Z</time>
      </trkpt>
      <trkpt lat="57.91791" lon="-5.19215">
        <ele>40.08</ele>
        <time>2021-03-20T20:59:45Z</time>
      </trkpt>
      <trkpt lat="57.91802" lon="-5.19237">
        <ele>39.35</ele>
        <time>2021-03-20T20:59:50Z</time>
      </trkpt>
      <trkpt lat="57.91821" lon="-5.19266">
        <ele>38.05</ele>
        <time>2021-03-20T20:59:55Z</time>
      </trkpt>
      <trkpt lat="57.91836" lon="-5.1928">
        <ele>35.76</ele>
        <time>2021-03-20T20:59:59Z</time>
      </trkpt>
      <trkpt lat="57.91846" lon="-5.19286">
        <ele>34.58</ele>
        <time>2021-03-20T21:00:04Z</time>
      </trkpt>
      <trkpt lat="57.9187" lon="-5.1929">
        <ele>31.67</ele>
        <time>2021-03-20T21:00:08Z</time>
      </trkpt>
      <trkpt lat="57.91886" lon="-5.19287">
        <ele>30.22</ele>
        <time>2021-03-20T21:00:13Z</time>
      </trkpt>
      <trkpt lat="57.91907" lon="-5.19275">
        <ele>30</ele>
        <time>2021-03-20T21:00:17Z</time>
      </trkpt>
      <trkpt lat="57.91935" lon="-5.19248">
        <ele>28.67</ele>
        <time>2021-03-20T21:00:22Z</time>
      </trkpt>
      <trkpt lat="57.92018" lon="-5.19131">
        <ele>33.74</ele>
        <time>2021-03-20T21:00:27Z</time>
      </trkpt>
      <trkpt lat="57.92048" lon="-5.19097">
        <ele>34.71</ele>
        <time>2021-03-20T21:00:31Z</time>
      </trkpt>
      <trkpt lat="57.92068" lon="-5.19082">
        <ele>34.95</ele>
        <time>2021-03-20T21:00:36Z</time>
      </trkpt>
      <trkpt lat="57.92085" lon="-5.19072">
        <ele>34.66</ele>
        <time>2021-03-20T21:00:40Z</time>
      </trkpt>
      <trkpt lat="57.92102" lon="-5.19069">
        <ele>35.15</ele>
        <time>2021-03-20T21:00:45Z</time>
      </trkpt>
      <trkpt lat="57.92175" lon="-5.19068">
        <ele>40.28</ele>
        <time>2021-03-20T21:00:49Z</time>
      </trkpt>
      <trkpt lat="57.92227" lon="-5.19073">
        <ele>44.94</ele>
        <time>2021-03-20T21:00:54Z</time>
      </trkpt>
      <trkpt lat="57.92249" lon="-5.19082">
        <ele>46.79</ele>
        <time>2021-03-20T21:00:59Z</time>
      </trkpt>
      <trkpt lat="57.92277" lon="-5.19102">
        <ele>48.95</ele>
        <time>2021-03-20T21:01:03Z</time>
      </trkpt>
      <trkpt lat="57.92291" lon="-5.19117">
        <ele>50.03</ele>
        <time>2021-03-20T21:01:08Z</time>
      </trkpt>
      <trkpt lat="57.92444" lon="-5.1932">
        <ele>56.98</ele>
        <time>2021-03-20T21:01:12Z</time>
      </trkpt>
      <trkpt lat="57.92472" lon="-5.19352">
        <ele>57.67</ele>
        <time>2021-03-20T21:01:17Z</time>
      </trkpt>
      <trkpt lat="57.92496" lon="-5.19368">
        <ele>58.04</ele>
        <time>2021-03-20T21:01:21Z</time>
      </trkpt>
      <trkpt lat="57.92515" lon="-5.19378">
        <ele>57.47</ele>
        <time>2021-03-20T21:01:26Z</time>
      </trkpt>
      <trkpt lat="57.92712" lon="-5.1945">
        <ele>42.17</ele>
        <time>2021-03-20T21:01:30Z</time>
      </trkpt>
      <trkpt lat="57.92727" lon="-5.19462">
        <ele>39.92</ele>
        <time>2021-03-20T21:01:35Z</time>
      </trkpt>
      <trkpt lat="57.92742" lon="-5.19481">
        <ele>37.53</ele>
        <time>2021-03-20T21:01:40Z</time>
      </trkpt>
      <trkpt lat="57.92755" lon="-5.19505">
        <ele>35.97</ele>
        <time>2021-03-20T21:01:44Z</time>
      </trkpt>
      <trkpt lat="57.92823" lon="-5.19677">
        <ele>28.7</ele>
        <time>2021-03-20T21:01:49Z</time>
      </trkpt>
      <trkpt lat="57.92844" lon="-5.19721">
        <ele>24.91</ele>
        <time>2021-03-20T21:01:53Z</time>
      </trkpt>
      <trkpt lat="57.92856" lon="-5.1974">
        <ele>22.93</ele>
        <time>2021-03-20T21:01:58Z</time>
      </trkpt>
      <trkpt lat="57.92872" lon="-5.19758">
        <ele>20.56</ele>
        <time>2021-03-20T21:02:02Z</time>
      </trkpt>
      <trkpt lat="57.92889" lon="-5.19767">
        <ele>18.37</ele>
        <time>2021-03-20T21:02:07Z</time>
      </trkpt>
      <trkpt lat="57.92902" lon="-5.19772">
        <ele>16.45</ele>
        <time>2021-03-20T21:02:12Z</time>
      </trkpt>
      <trkpt lat="57.92914" lon="-5.19771">
        <ele>14.91</ele>
        <time>2021-03-20T21:02:16Z</time>
      </trkpt>
      <trkpt lat="57.92939" lon="-5.1976">
        <ele>11.21</ele>
        <time>2021-03-20T21:02:21Z</time>
      </trkpt>
      <trkpt lat="57.93" lon="-5.19707">
        <ele>7.66</ele>
        <time>2021-03-20T21:02:25Z</time>
      </trkpt>
      <trkpt lat="57.93033" lon="-5.19682">
        <ele>6.93</ele>
        <time>2021-03-20T21:02:30Z</time>
      </trkpt>
      <trkpt lat="57.93089" lon="-5.19652">
        <ele>6.18</ele>
        <time>2021-03-20T21:02:34Z</time>
      </trkpt>
      <trkpt lat="57.93125" lon="-5.19637">
        <ele>6.6</ele>
        <time>2021-03-20T21:02:39Z</time>
      </trkpt>
      <trkpt lat="57.93203" lon="-5.19623">
        <ele>5.58</ele>
        <time>2021-03-20T21:02:44Z</time>
      </trkpt>
      <trkpt lat="57.93252" lon="-5.19621">
        <ele>4.65</ele>
        <time>2021-03-20T21:02:48Z</time>
      </trkpt>
      <trkpt lat="57.93271" lon="-5.19622">
        <ele>4.61</ele>
        <time>2021-03-20T21:02:53Z</time>
      </trkpt>
      <trkpt lat="57.93326" lon="-5.19639">
        <ele>4.01</ele>
        <time>2021-03-20T21:02:57Z</time>
      </trkpt>
      <trkpt lat="57.93346" lon="-5.19641">
        <ele>4</ele>
        <time>2021-03-20T21:03:02Z</time>
      </trkpt>
      <trkpt lat="57.93369" lon="-5.19637">
        <ele>4.34</ele>
        <time>2021-03-20T21:03:06Z</time>
      </trkpt>
      <trkpt lat="57.93384" lon="-5.19629">
        <ele>4.89</ele>
        <time>2021-03-20T21:03:11Z</time>
      </trkpt>
      <trkpt lat="57.93393" lon="-5.19618">
        <ele>5</ele>
        <time>2021-03-20T21:03:15Z</time>
      </trkpt>
      <trkpt lat="57.93403" lon="-5.19603">
        <ele>5</ele>
        <time>2021-03-20T21:03:20Z</time>
      </trkpt>
      <trkpt lat="57.93414" lon="-5.19577">
        <ele>5</ele>
        <time>2021-03-20T21:03:25Z</time>
      </trkpt>
      <trkpt lat="57.93424" lon="-5.19546">
        <ele>5</ele>
        <time>2021-03-20T21:03:29Z</time>
      </trkpt>
      <trkpt lat="57.93496" lon="-5.19273">
        <ele>6.28</ele>
        <time>2021-03-20T21:03:34Z</time>
      </trkpt>
      <trkpt lat="57.9351" lon="-5.19211">
        <ele>6.32</ele>
        <time>2021-03-20T21:03:38Z</time>
      </trkpt>
      <trkpt lat="57.93584" lon="-5.18926">
        <ele>21.69</ele>
        <time>2021-03-20T21:03:43Z</time>
      </trkpt>
      <trkpt lat="57.93606" lon="-5.18868">
        <ele>20.62</ele>
        <time>2021-03-20T21:03:47Z</time>
      </trkpt>
      <trkpt lat="57.93615" lon="-5.18827">
        <ele>16.26</ele>
        <time>2021-03-20T21:03:52Z</time>
      </trkpt>
      <trkpt lat="57.93627" lon="-5.1875">
        <ele>19.78</ele>
        <time>2021-03-20T21:03:57Z</time>
      </trkpt>
      <trkpt lat="57.93641" lon="-5.18679">
        <ele>21.83</ele>
        <time>2021-03-20T21:04:01Z</time>
      </trkpt>
      <trkpt lat="57.93671" lon="-5.18577">
        <ele>25.17</ele>
        <time>2021-03-20T21:04:06Z</time>
      </trkpt>
      <trkpt lat="57.93699" lon="-5.185">
        <ele>22.38</ele>
        <time>2021-03-20T21:04:10Z</time>
      </trkpt>
      <trkpt lat="57.93719" lon="-5.18466">
        <ele>19.83</ele>
        <time>2021-03-20T21:04:15Z</time>
      </trkpt>
      <trkpt lat="57.93746" lon="-5.18441">
        <ele>18.05</ele>
        <time>2021-03-20T21:04:19Z</time>
      </trkpt>
      <trkpt lat="57.93784" lon="-5.18422">
        <ele>18.66</ele>
        <time>2021-03-20T21:04:24Z</time>
      </trkpt>
      <trkpt lat="57.93819" lon="-5.18408">
        <ele>22.05</ele>
        <time>2021-03-20T21:04:29Z</time>
      </trkpt>
      <trkpt lat="57.93855" lon="-5.18365">
        <ele>31.16</ele>
        <time>2021-03-20T21:04:33Z</time>
      </trkpt>
      <trkpt lat="57.93945" lon="-5.18116">
        <ele>46.79</ele>
        <time>2021-03-20T21:04:38Z</time>
      </trkpt>
      <trkpt lat="57.93981" lon="-5.18008">
        <ele>46.35</ele>
        <time>2021-03-20T21:04:42Z</time>
      </trkpt>
      <trkpt lat="57.93994" lon="-5.17947">
        <ele>45.01</ele>
        <time>2021-03-20T21:04:47Z</time>
      </trkpt>
      <trkpt lat="57.9401" lon="-5.17838">
        <ele>41.62</ele>
        <time>2021-03-20T21:04:51Z</time>
      </trkpt>
      <trkpt lat="57.94023" lon="-5.17774">
        <ele>39.88</ele>
        <time>2021-03-20T21:04:56Z</time>
      </trkpt>
      <trkpt lat="57.9404" lon="-5.17716">
        <ele>38.47</ele>
        <time>2021-03-20T21:05:00Z</time>
      </trkpt>
      <trkpt lat="57.94075" lon="-5.17537">
        <ele>32.79</ele>
        <time>2021-03-20T21:05:05Z</time>
      </trkpt>
      <trkpt lat="57.94098" lon="-5.17377">
        <ele>27.78</ele>
        <time>2021-03-20T21:05:10Z</time>
      </trkpt>
      <trkpt lat="57.94114" lon="-5.17291">
        <ele>26.24</ele>
        <time>2021-03-20T21:05:14Z</time>
      </trkpt>
      <trkpt lat="57.94134" lon="-5.17209">
        <ele>23.18</ele>
        <time>2021-03-20T21:05:19Z</time>
      </trkpt>
      <trkpt lat="57.94159" lon="-5.17122">
        <ele>17.91</ele>
        <time>2021-03-20T21:05:23Z</time>
      </trkpt>
      <trkpt lat="57.94171" lon="-5.17072">
        <ele>16.67</ele>
        <time>2021-03-20T21:05:28Z</time>
      </trkpt>
      <trkpt lat="57.94194" lon="-5.17018">
        <ele>15.45</ele>
        <time>2021-03-20T21:05:32Z</time>
      </trkpt>
      <trkpt lat="57.94269" lon="-5.16873">
        <ele>15.69</ele>
        <time>2021-03-20T21:05:37Z</time>
      </trkpt>
      <trkpt lat="57.94373" lon="-5.16742">
        <ele>16.87</ele>
        <time>2021-03-20T21:05:42Z</time>
      </trkpt>
      <trkpt lat="57.9442" lon="-5.16678">
        <ele>18.08</ele>
        <time>2021-03-20T21:05:46Z</time>
      </trkpt>
      <trkpt lat="57.94453" lon="-5.16627">
        <ele>19.48</ele>
        <time>2021-03-20T21:05:51Z</time>
      </trkpt>
      <trkpt lat="57.94485" lon="-5.16557">
        <ele>21.44</ele>
        <time>2021-03-20T21:05:55Z</time>
      </trkpt>
      <trkpt lat="57.94567" lon="-5.16316">
        <ele>24.23</ele>
        <time>2021-03-20T21:06:00Z</time>
      </trkpt>
      <trkpt lat="57.94745" lon="-5.15782">
        <ele>26.9</ele>
        <time>2021-03-20T21:06:04Z</time>
      </trkpt>
      <trkpt lat="57.94867" lon="-5.15348">
        <ele>37.76</ele>
        <time>2021-03-20T21:06:09Z</time>
      </trkpt>
      <trkpt lat="57.94942" lon="-5.15055">
        <ele>50.28</ele>
        <time>2021-03-20T21:06:14Z</time>
      </trkpt>
      <trkpt lat="57.94968" lon="-5.14977">
        <ele>49.58</ele>
        <time>2021-03-20T21:06:18Z</time>
      </trkpt>
      <trkpt lat="57.95065" lon="-5.1473">
        <ele>45.58</ele>
        <time>2021-03-20T21:06:23Z</time>
      </trkpt>
      <trkpt lat="57.95191" lon="-5.14391">
        <ele>62.85</ele>
        <time>2021-03-20T21:06:27Z</time>
      </trkpt>
      <trkpt lat="57.95454" lon="-5.13948">
        <ele>52.44</ele>
        <time>2021-03-20T21:06:32Z</time>
      </trkpt>
      <trkpt lat="57.95695" lon="-5.13498">
        <ele>53</ele>
        <time>2021-03-20T21:06:36Z</time>
      </trkpt>
      <trkpt lat="57.9573" lon="-5.13456">
        <ele>52.14</ele>
        <time>2021-03-20T21:06:41Z</time>
      </trkpt>
      <trkpt lat="57.9576" lon="-5.13436">
        <ele>49.24</ele>
        <time>2021-03-20T21:06:45Z</time>
      </trkpt>
      <trkpt lat="57.95812" lon="-5.13424">
        <ele>40.23</ele>
        <time>2021-03-20T21:06:50Z</time>
      </trkpt>
      <trkpt lat="57.95868" lon="-5.13424">
        <ele>32.76</ele>
        <time>2021-03-20T21:06:55Z</time>
      </trkpt>
      <trkpt lat="57.95915" lon="-5.13439">
        <ele>28.76</ele>
        <time>2021-03-20T21:06:59Z</time>
      </trkpt>
      <trkpt lat="57.95956" lon="-5.1346">
        <ele>23.95</ele>
        <time>2021-03-20T21:07:04Z</time>
      </trkpt>
      <trkpt lat="57.96164" lon="-5.13583">
        <ele>13.01</ele>
        <time>2021-03-20T21:07:08Z</time>
      </trkpt>
      <trkpt lat="57.96208" lon="-5.13595">
        <ele>12</ele>
        <time>2021-03-20T21:07:13Z</time>
      </trkpt>
      <trkpt lat="57.96242" lon="-5.13597">
        <ele>12.72</ele>
        <time>2021-03-20T21:07:17Z</time>
      </trkpt>
      <trkpt lat="57.96277" lon="-5.13584">
        <ele>15.89</ele>
        <time>2021-03-20T21:07:22Z</time>
      </trkpt>
      <trkpt lat="57.96298" lon="-5.13569">
        <ele>17.69</ele>
        <time>2021-03-20T21:07:27Z</time>
      </trkpt>
      <trkpt lat="57.96333" lon="-5.13537">
        <ele>21.33</ele>
        <time>2021-03-20T21:07:31Z</time>
      </trkpt>
      <trkpt lat="57.96392" lon="-5.13468">
        <ele>26.01</ele>
        <time>2021-03-20T21:07:36Z</time>
      </trkpt>
      <trkpt lat="57.96465" lon="-5.13376">
        <ele>26.69</ele>
        <time>2021-03-20T21:07:40Z</time>
      </trkpt>
      <trkpt lat="57.96565" lon="-5.13254">
        <ele>38.5</ele>
        <time>2021-03-20T21:07:45Z</time>
      </trkpt>
      <trkpt lat="57.96701" lon="-5.13079">
        <ele>56.17</ele>
        <time>2021-03-20T21:07:49Z</time>
      </trkpt>
      <trkpt lat="57.96808" lon="-5.12915">
        <ele>68.44</ele>
        <time>2021-03-20T21:07:54Z</time>
      </trkpt>
      <trkpt lat="57.97077" lon="-5.12584">
        <ele>85.6</ele>
        <time>2021-03-20T21:07:59Z</time>
      </trkpt>
      <trkpt lat="57.97157" lon="-5.12495">
        <ele>89.3</ele>
        <time>2021-03-20T21:08:03Z</time>
      </trkpt>
      <trkpt lat="57.97253" lon="-5.12419">
        <ele>95.17</ele>
        <time>2021-03-20T21:08:08Z</time>
      </trkpt>
      <trkpt lat="57.97459" lon="-5.1228">
        <ele>101.48</ele>
        <time>2021-03-20T21:08:12Z</time>
      </trkpt>
      <trkpt lat="57.9752" lon="-5.12229">
        <ele>103.72</ele>
        <time>2021-03-20T21:08:17Z</time>
      </trkpt>
      <trkpt lat="57.9766" lon="-5.12097">
        <ele>104.86</ele>
        <time>2021-03-20T21:08:21Z</time>
      </trkpt>
      <trkpt lat="57.97782" lon="-5.11989">
        <ele>98.17</ele>
        <time>2021-03-20T21:08:26Z</time>
      </trkpt>
      <trkpt lat="57.97845" lon="-5.11943">
        <ele>99.61</ele>
        <time>2021-03-20T21:08:30Z</time>
      </trkpt>
      <trkpt lat="57.97911" lon="-5.11908">
        <ele>101.69</ele>
        <time>2021-03-20T21:08:35Z</time>
      </trkpt>
      <trkpt lat="57.97956" lon="-5.11895">
        <ele>105.38</ele>
        <time>2021-03-20T21:08:40Z</time>
      </trkpt>
      <trkpt lat="57.98021" lon="-5.11894">
        <ele>109.15</ele>
        <time>2021-03-20T21:08:44Z</time>
      </trkpt>
      <trkpt lat="57.98121" lon="-5.11914">
        <ele>115.66</ele>
        <time>2021-03-20T21:08:49Z</time>
      </trkpt>
      <trkpt lat="57.98163" lon="-5.11916">
        <ele>117.89</ele>
        <time>2021-03-20T21:08:53Z</time>
      </trkpt>
      <trkpt lat="57.98195" lon="-5.11905">
        <ele>118.25</ele>
        <time>2021-03-20T21:08:58Z</time>
      </trkpt>
      <trkpt lat="57.98225" lon="-5.11889">
        <ele>119</ele>
        <time>2021-03-20T21:09:02Z</time>
      </trkpt>
      <trkpt lat="57.98701" lon="-5.11501">
        <ele>129.18</ele>
        <time>2021-03-20T21:09:07Z</time>
      </trkpt>
      <trkpt lat="57.98817" lon="-5.1141">
        <ele>124.89</ele>
        <time>2021-03-20T21:09:12Z</time>
      </trkpt>
      <trkpt lat="57.98969" lon="-5.11321">
        <ele>125.01</ele>
        <time>2021-03-20T21:09:16Z</time>
      </trkpt>
      <trkpt lat="57.9903" lon="-5.11268">
        <ele>126.07</ele>
        <time>2021-03-20T21:09:21Z</time>
      </trkpt>
      <trkpt lat="57.99085" lon="-5.11205">
        <ele>124.65</ele>
        <time>2021-03-20T21:09:25Z</time>
      </trkpt>
      <trkpt lat="57.99174" lon="-5.11127">
        <ele>121.96</ele>
        <time>2021-03-20T21:09:30Z</time>
      </trkpt>
      <trkpt lat="57.99262" lon="-5.11061">
        <ele>122.82</ele>
        <time>2021-03-20T21:09:34Z</time>
      </trkpt>
      <trkpt lat="57.99454" lon="-5.10941">
        <ele>120.84</ele>
        <time>2021-03-20T21:09:39Z</time>
      </trkpt>
      <trkpt lat="57.99555" lon="-5.10859">
        <ele>117.28</ele>
        <time>2021-03-20T21:09:43Z</time>
      </trkpt>
      <trkpt lat="57.99654" lon="-5.10767">
        <ele>120.7</ele>
        <time>2021-03-20T21:09:48Z</time>
      </trkpt>
      <trkpt lat="57.99744" lon="-5.1066">
        <ele>120.21</ele>
        <time>2021-03-20T21:09:53Z</time>
      </trkpt>
      <trkpt lat="57.9983" lon="-5.10547">
        <ele>121.13</ele>
        <time>2021-03-20T21:09:57Z</time>
      </trkpt>
      <trkpt lat="57.99934" lon="-5.10387">
        <ele>122</ele>
        <time>2021-03-20T21:10:02Z</time>
      </trkpt>
      <trkpt lat="57.9995" lon="-5.10359">
        <ele>121.94</ele>
        <time>2021-03-20T21:10:06Z</time>
      </trkpt>
      <trkpt lat="58.00156" lon="-5.10126">
        <ele>132.84</ele>
        <time>2021-03-20T21:10:11Z</time>
      </trkpt>
      <trkpt lat="58.0018" lon="-5.10089">
        <ele>134.79</ele>
        <time>2021-03-20T21:10:15Z</time>
      </trkpt>
      <trkpt lat="58.00195" lon="-5.10054">
        <ele>136</ele>
        <time>2021-03-20T21:10:20Z</time>
      </trkpt>
      <trkpt lat="58.00205" lon="-5.10012">
        <ele>138.36</ele>
        <time>2021-03-20T21:10:25Z</time>
      </trkpt>
      <trkpt lat="58.00227" lon="-5.09841">
        <ele>138.59</ele>
        <time>2021-03-20T21:10:29Z</time>
      </trkpt>
      <trkpt lat="58.00241" lon="-5.09784">
        <ele>139.42</ele>
        <time>2021-03-20T21:10:34Z</time>
      </trkpt>
      <trkpt lat="58.00284" lon="-5.09666">
        <ele>142.62</ele>
        <time>2021-03-20T21:10:38Z</time>
      </trkpt>
      <trkpt lat="58.00334" lon="-5.09555">
        <ele>146.23</ele>
        <time>2021-03-20T21:10:43Z</time>
      </trkpt>
      <trkpt lat="58.00498" lon="-5.09242">
        <ele>159.34</ele>
        <time>2021-03-20T21:10:47Z</time>
      </trkpt>
      <trkpt lat="58.00538" lon="-5.09126">
        <ele>166.03</ele>
        <time>2021-03-20T21:10:52Z</time>
      </trkpt>
      <trkpt lat="58.00563" lon="-5.09076">
        <ele>167.92</ele>
        <time>2021-03-20T21:10:57Z</time>
      </trkpt>
      <trkpt lat="58.00593" lon="-5.09041">
        <ele>169.87</ele>
        <time>2021-03-20T21:11:01Z</time>
      </trkpt>
      <trkpt lat="58.00722" lon="-5.08925">
        <ele>179.4</ele>
        <time>2021-03-20T21:11:06Z</time>
      </trkpt>
      <trkpt lat="58.00768" lon="-5.08872">
        <ele>185.76</ele>
        <time>2021-03-20T21:11:10Z</time>
      </trkpt>
      <trkpt lat="58.00913" lon="-5.08676">
        <ele>191.82</ele>
        <time>2021-03-20T21:11:15Z</time>
      </trkpt>
      <trkpt lat="58.00945" lon="-5.08638">
        <ele>195.08</ele>
        <time>2021-03-20T21:11:19Z</time>
      </trkpt>
      <trkpt lat="58.00982" lon="-5.08604">
        <ele>198.88</ele>
        <time>2021-03-20T21:11:24Z</time>
      </trkpt>
      <trkpt lat="58.0115" lon="-5.0846">
        <ele>208.93</ele>
        <time>2021-03-20T21:11:28Z</time>
      </trkpt>
      <trkpt lat="58.01202" lon="-5.08406">
        <ele>211.14</ele>
        <time>2021-03-20T21:11:33Z</time>
      </trkpt>
      <trkpt lat="58.01223" lon="-5.08379">
        <ele>212.08</ele>
        <time>2021-03-20T21:11:38Z</time>
      </trkpt>
      <trkpt lat="58.013" lon="-5.08296">
        <ele>219.47</ele>
        <time>2021-03-20T21:11:42Z</time>
      </trkpt>
      <trkpt lat="58.01397" lon="-5.08182">
        <ele>226.24</ele>
        <time>2021-03-20T21:11:47Z</time>
      </trkpt>
      <trkpt lat="58.01557" lon="-5.07948">
        <ele>231.37</ele>
        <time>2021-03-20T21:11:51Z</time>
      </trkpt>
      <trkpt lat="58.01604" lon="-5.07909">
        <ele>232.26</ele>
        <time>2021-03-20T21:11:56Z</time>
      </trkpt>
      <trkpt lat="58.01644" lon="-5.07893">
        <ele>233.45</ele>
        <time>2021-03-20T21:12:00Z</time>
      </trkpt>
      <trkpt lat="58.01755" lon="-5.07859">
        <ele>235.95</ele>
        <time>2021-03-20T21:12:05Z</time>
      </trkpt>
      <trkpt lat="58.01845" lon="-5.07815">
        <ele>233.28</ele>
        <time>2021-03-20T21:12:10Z</time>
      </trkpt>
      <trkpt lat="58.02052" lon="-5.07704">
        <ele>237.25</ele>
        <time>2021-03-20T21:12:14Z</time>
      </trkpt>
      <trkpt lat="58.02296" lon="-5.07581">
        <ele>246.63</ele>
        <time>2021-03-20T21:12:19Z</time>
      </trkpt>
      <trkpt lat="58.02696" lon="-5.07367">
        <ele>241.73</ele>
        <time>2021-03-20T21:12:23Z</time>
      </trkpt>
      <trkpt lat="58.02775" lon="-5.07329">
        <ele>240.18</ele>
        <time>2021-03-20T21:12:28Z</time>
      </trkpt>
      <trkpt lat="58.0282" lon="-5.07312">
        <ele>236.87</ele>
        <time>2021-03-20T21:12:32Z</time>
      </trkpt>
      <trkpt lat="58.02852" lon="-5.07309">
        <ele>234.89</ele>
        <time>2021-03-20T21:12:37Z</time>
      </trkpt>
      <trkpt lat="58.02884" lon="-5.07314">
        <ele>234.66</ele>
        <time>2021-03-20T21:12:42Z</time>
      </trkpt>
      <trkpt lat="58.03058" lon="-5.07362">
        <ele>232</ele>
        <time>2021-03-20T21:12:46Z</time>
      </trkpt>
      <trkpt lat="58.03101" lon="-5.07368">
        <ele>232.27</ele>
        <time>2021-03-20T21:12:51Z</time>
      </trkpt>
      <trkpt lat="58.03128" lon="-5.07364">
        <ele>231.56</ele>
        <time>2021-03-20T21:12:55Z</time>
      </trkpt>
      <trkpt lat="58.03157" lon="-5.07353">
        <ele>229.28</ele>
        <time>2021-03-20T21:13:00Z</time>
      </trkpt>
      <trkpt lat="58.03187" lon="-5.07337">
        <ele>228.19</ele>
        <time>2021-03-20T21:13:04Z</time>
      </trkpt>
      <trkpt lat="58.0347" lon="-5.07136">
        <ele>228.25</ele>
        <time>2021-03-20T21:13:09Z</time>
      </trkpt>
      <trkpt lat="58.03567" lon="-5.07065">
        <ele>229.56</ele>
        <time>2021-03-20T21:13:13Z</time>
      </trkpt>
      <trkpt lat="58.03606" lon="-5.07018">
        <ele>230.21</ele>
        <time>2021-03-20T21:13:18Z</time>
      </trkpt>
      <trkpt lat="58.0363" lon="-5.06983">
        <ele>232.2</ele>
        <time>2021-03-20T21:13:23Z</time>
      </trkpt>
      <trkpt lat="58.03654" lon="-5.0694">
        <ele>233.29</ele>
        <time>2021-03-20T21:13:27Z</time>
      </trkpt>
      <trkpt lat="58.03681" lon="-5.06882">
        <ele>234.37</ele>
        <time>2021-03-20T21:13:32Z</time>
      </trkpt>
      <trkpt lat="58.03817" lon="-5.06554">
        <ele>243.32</ele>
        <time>2021-03-20T21:13:36Z</time>
      </trkpt>
      <trkpt lat="58.03839" lon="-5.06507">
        <ele>244.87</ele>
        <time>2021-03-20T21:13:41Z</time>
      </trkpt>
      <trkpt lat="58.03909" lon="-5.06384">
        <ele>246.28</ele>
        <time>2021-03-20T21:13:45Z</time>
      </trkpt>
      <trkpt lat="58.03925" lon="-5.0635">
        <ele>246.8</ele>
        <time>2021-03-20T21:13:50Z</time>
      </trkpt>
      <trkpt lat="58.03991" lon="-5.06162">
        <ele>246.77</ele>
        <time>2021-03-20T21:13:55Z</time>
      </trkpt>
      <trkpt lat="58.0401" lon="-5.06114">
        <ele>244.1</ele>
        <time>2021-03-20T21:13:59Z</time>
      </trkpt>
      <trkpt lat="58.04217" lon="-5.05715">
        <ele>228.44</ele>
        <time>2021-03-20T21:14:04Z</time>
      </trkpt>
      <trkpt lat="58.04244" lon="-5.05651">
        <ele>226.49</ele>
        <time>2021-03-20T21:14:08Z</time>
      </trkpt>
      <trkpt lat="58.04394" lon="-5.05255">
        <ele>216.43</ele>
        <time>2021-03-20T21:14:13Z</time>
      </trkpt>
      <trkpt lat="58.04509" lon="-5.04919">
        <ele>200.56</ele>
        <time>2021-03-20T21:14:17Z</time>
      </trkpt>
      <trkpt lat="58.04526" lon="-5.04858">
        <ele>195.77</ele>
        <time>2021-03-20T21:14:22Z</time>
      </trkpt>
      <trkpt lat="58.0454" lon="-5.04801">
        <ele>192.1</ele>
        <time>2021-03-20T21:14:27Z</time>
      </trkpt>
      <trkpt lat="58.04559" lon="-5.04679">
        <ele>187.4</ele>
        <time>2021-03-20T21:14:31Z</time>
      </trkpt>
      <trkpt lat="58.04588" lon="-5.04409">
        <ele>175.63</ele>
        <time>2021-03-20T21:14:36Z</time>
      </trkpt>
      <trkpt lat="58.04617" lon="-5.04238">
        <ele>168.63</ele>
        <time>2021-03-20T21:14:40Z</time>
      </trkpt>
      <trkpt lat="58.0464" lon="-5.04059">
        <ele>166.6</ele>
        <time>2021-03-20T21:14:45Z</time>
      </trkpt>
      <trkpt lat="58.04643" lon="-5.03994">
        <ele>165.64</ele>
        <time>2021-03-20T21:14:49Z</time>
      </trkpt>
      <trkpt lat="58.04639" lon="-5.03938">
        <ele>166.76</ele>
        <time>2021-03-20T21:14:54Z</time>
      </trkpt>
      <trkpt lat="58.04616" lon="-5.0386">
        <ele>167.24</ele>
        <time>2021-03-20T21:14:58Z</time>
      </trkpt>
      <trkpt lat="58.04585" lon="-5.03766">
        <ele>164.4</ele>
        <time>2021-03-20T21:15:03Z</time>
      </trkpt>
      <trkpt lat="58.04578" lon="-5.03695">
        <ele>163.7</ele>
        <time>2021-03-20T21:15:08Z</time>
      </trkpt>
      <trkpt lat="58.04585" lon="-5.03658">
        <ele>164.25</ele>
        <time>2021-03-20T21:15:12Z</time>
      </trkpt>
      <trkpt lat="58.046" lon="-5.03625">
        <ele>163.39</ele>
        <time>2021-03-20T21:15:17Z</time>
      </trkpt>
      <trkpt lat="58.04694" lon="-5.03475">
        <ele>160.68</ele>
        <time>2021-03-20T21:15:21Z</time>
      </trkpt>
      <trkpt lat="58.04714" lon="-5.03438">
        <ele>160.97</ele>
        <time>2021-03-20T21:15:26Z</time>
      </trkpt>
      <trkpt lat="58.0473" lon="-5.03398">
        <ele>159.57</ele>
        <time>2021-03-20T21:15:30Z</time>
      </trkpt>
      <trkpt lat="58.04783" lon="-5.03218">
        <ele>159.91</ele>
        <time>2021-03-20T21:15:35Z</time>
      </trkpt>
      <trkpt lat="58.04822" lon="-5.03092">
        <ele>162.48</ele>
        <time>2021-03-20T21:15:40Z</time>
      </trkpt>
      <trkpt lat="58.04831" lon="-5.0307">
        <ele>161.09</ele>
        <time>2021-03-20T21:15:44Z</time>
      </trkpt>
      <trkpt lat="58.04854" lon="-5.03035">
        <ele>157.85</ele>
        <time>2021-03-20T21:15:49Z</time>
      </trkpt>
      <trkpt lat="58.04887" lon="-5.03009">
        <ele>157.1</ele>
        <time>2021-03-20T21:15:53Z</time>
      </trkpt>
      <trkpt lat="58.0492" lon="-5.03006">
        <ele>158.87</ele>
        <time>2021-03-20T21:15:58Z</time>
      </trkpt>
      <trkpt lat="58.04949" lon="-5.03022">
        <ele>161.26</ele>
        <time>2021-03-20T21:16:02Z</time>
      </trkpt>
      <trkpt lat="58.04978" lon="-5.03057">
        <ele>162.52</ele>
        <time>2021-03-20T21:16:07Z</time>
      </trkpt>
      <trkpt lat="58.05047" lon="-5.03229">
        <ele>159</ele>
        <time>2021-03-20T21:16:12Z</time>
      </trkpt>
      <trkpt lat="58.05066" lon="-5.03252">
        <ele>153.74</ele>
        <time>2021-03-20T21:16:16Z</time>
      </trkpt>
      <trkpt lat="58.05092" lon="-5.03268">
        <ele>149.18</ele>
        <time>2021-03-20T21:16:21Z</time>
      </trkpt>
      <trkpt lat="58.05111" lon="-5.03276">
        <ele>146.24</ele>
        <time>2021-03-20T21:16:25Z</time>
      </trkpt>
      <trkpt lat="58.05129" lon="-5.03276">
        <ele>145.53</ele>
        <time>2021-03-20T21:16:30Z</time>
      </trkpt>
      <trkpt lat="58.05147" lon="-5.03269">
        <ele>145.17</ele>
        <time>2021-03-20T21:16:34Z</time>
      </trkpt>
      <trkpt lat="58.05155" lon="-5.03263">
        <ele>144.76</ele>
        <time>2021-03-20T21:16:39Z</time>
      </trkpt>
      <trkpt lat="58.05179" lon="-5.03239">
        <ele>142.4</ele>
        <time>2021-03-20T21:16:43Z</time>
      </trkpt>
      <trkpt lat="58.05191" lon="-5.0322">
        <ele>140.88</ele>
        <time>2021-03-20T21:16:48Z</time>
      </trkpt>
      <trkpt lat="58.0522" lon="-5.03162">
        <ele>141.09</ele>
        <time>2021-03-20T21:16:53Z</time>
      </trkpt>
      <trkpt lat="58.05248" lon="-5.03103">
        <ele>143.88</ele>
        <time>2021-03-20T21:16:57Z</time>
      </trkpt>
      <trkpt lat="58.05262" lon="-5.03085">
        <ele>144.89</ele>
        <time>2021-03-20T21:17:02Z</time>
      </trkpt>
      <trkpt lat="58.05277" lon="-5.03071">
        <ele>145.5</ele>
        <time>2021-03-20T21:17:06Z</time>
      </trkpt>
      <trkpt lat="58.05376" lon="-5.03049">
        <ele>146.4</ele>
        <time>2021-03-20T21:17:11Z</time>
      </trkpt>
      <trkpt lat="58.05566" lon="-5.02962">
        <ele>138.24</ele>
        <time>2021-03-20T21:17:15Z</time>
      </trkpt>
      <trkpt lat="58.05624" lon="-5.02949">
        <ele>137.92</ele>
        <time>2021-03-20T21:17:20Z</time>
      </trkpt>
      <trkpt lat="58.05851" lon="-5.02921">
        <ele>135.56</ele>
        <time>2021-03-20T21:17:25Z</time>
      </trkpt>
      <trkpt lat="58.059" lon="-5.0291">
        <ele>136.07</ele>
        <time>2021-03-20T21:17:29Z</time>
      </trkpt>
      <trkpt lat="58.05944" lon="-5.02876">
        <ele>136.48</ele>
        <time>2021-03-20T21:17:34Z</time>
      </trkpt>
      <trkpt lat="58.05982" lon="-5.02837">
        <ele>137.09</ele>
        <time>2021-03-20T21:17:38Z</time>
      </trkpt>
      <trkpt lat="58.06" lon="-5.0281">
        <ele>136.84</ele>
        <time>2021-03-20T21:17:43Z</time>
      </trkpt>
      <trkpt lat="58.06016" lon="-5.02778">
        <ele>137.82</ele>
        <time>2021-03-20T21:17:47Z</time>
      </trkpt>
      <trkpt lat="58.06075" lon="-5.02595">
        <ele>140.11</ele>
        <time>2021-03-20T21:17:52Z</time>
      </trkpt>
      <trkpt lat="58.06157" lon="-5.02306">
        <ele>142.44</ele>
        <time>2021-03-20T21:17:57Z</time>
      </trkpt>
      <trkpt lat="58.06172" lon="-5.0224">
        <ele>140.89</ele>
        <time>2021-03-20T21:18:01Z</time>
      </trkpt>
      <trkpt lat="58.06191" lon="-5.01982">
        <ele>140.14</ele>
        <time>2021-03-20T21:18:06Z</time>
      </trkpt>
      <trkpt lat="58.06201" lon="-5.019">
        <ele>138.51</ele>
        <time>2021-03-20T21:18:10Z</time>
      </trkpt>
      <trkpt lat="58.06263" lon="-5.01615">
        <ele>136.45</ele>
        <time>2021-03-20T21:18:15Z</time>
      </trkpt>
      <trkpt lat="58.06276" lon="-5.01543">
        <ele>136.34</ele>
        <time>2021-03-20T21:18:19Z</time>
      </trkpt>
      <trkpt lat="58.06288" lon="-5.01401">
        <ele>133</ele>
        <time>2021-03-20T21:18:24Z</time>
      </trkpt>
      <trkpt lat="58.06289" lon="-5.01361">
        <ele>131.74</ele>
        <time>2021-03-20T21:18:28Z</time>
      </trkpt>
      <trkpt lat="58.06286" lon="-5.0132">
        <ele>130.75</ele>
        <time>2021-03-20T21:18:33Z</time>
      </trkpt>
      <trkpt lat="58.06251" lon="-5.01065">
        <ele>129.23</ele>
        <time>2021-03-20T21:18:38Z</time>
      </trkpt>
      <trkpt lat="58.06219" lon="-5.00811">
        <ele>129.41</ele>
        <time>2021-03-20T21:18:42Z</time>
      </trkpt>
      <trkpt lat="58.06192" lon="-5.00701">
        <ele>128.33</ele>
        <time>2021-03-20T21:18:47Z</time>
      </trkpt>
      <trkpt lat="58.0618" lon="-5.00616">
        <ele>127.69</ele>
        <time>2021-03-20T21:18:51Z</time>
      </trkpt>
      <trkpt lat="58.06176" lon="-5.00546">
        <ele>127.04</ele>
        <time>2021-03-20T21:18:56Z</time>
      </trkpt>
      <trkpt lat="58.06179" lon="-5.00485">
        <ele>127.14</ele>
        <time>2021-03-20T21:19:00Z</time>
      </trkpt>
      <trkpt lat="58.06188" lon="-5.00414">
        <ele>126.44</ele>
        <time>2021-03-20T21:19:05Z</time>
      </trkpt>
      <trkpt lat="58.06256" lon="-5.002">
        <ele>127.65</ele>
        <time>2021-03-20T21:19:10Z</time>
      </trkpt>
      <trkpt lat="58.06267" lon="-5.00131">
        <ele>128.85</ele>
        <time>2021-03-20T21:19:14Z</time>
      </trkpt>
      <trkpt lat="58.06298" lon="-4.99818">
        <ele>134.16</ele>
        <time>2021-03-20T21:19:19Z</time>
      </trkpt>
      <trkpt lat="58.06332" lon="-4.99495">
        <ele>131.83</ele>
        <time>2021-03-20T21:19:23Z</time>
      </trkpt>
      <trkpt lat="58.06376" lon="-4.99324">
        <ele>129.65</ele>
        <time>2021-03-20T21:19:28Z</time>
      </trkpt>
      <trkpt lat="58.0639" lon="-4.99195">
        <ele>130.1</ele>
        <time>2021-03-20T21:19:32Z</time>
      </trkpt>
      <trkpt lat="58.06383" lon="-4.99035">
        <ele>131.6</ele>
        <time>2021-03-20T21:19:37Z</time>
      </trkpt>
      <trkpt lat="58.06375" lon="-4.98608">
        <ele>134.98</ele>
        <time>2021-03-20T21:19:42Z</time>
      </trkpt>
      <trkpt lat="58.06387" lon="-4.98524">
        <ele>136.68</ele>
        <time>2021-03-20T21:19:46Z</time>
      </trkpt>
      <trkpt lat="58.06414" lon="-4.98439">
        <ele>135.61</ele>
        <time>2021-03-20T21:19:51Z</time>
      </trkpt>
      <trkpt lat="58.06498" lon="-4.98271">
        <ele>133</ele>
        <time>2021-03-20T21:19:55Z</time>
      </trkpt>
      <trkpt lat="58.06601" lon="-4.98084">
        <ele>131</ele>
        <time>2021-03-20T21:20:00Z</time>
      </trkpt>
      <trkpt lat="58.06612" lon="-4.98035">
        <ele>130</ele>
        <time>2021-03-20T21:20:04Z</time>
      </trkpt>
      <trkpt lat="58.06616" lon="-4.97986">
        <ele>129</ele>
        <time>2021-03-20T21:20:09Z</time>
      </trkpt>
      <trkpt lat="58.06618" lon="-4.97941">
        <ele>128</ele>
        <time>2021-03-20T21:20:13Z</time>
      </trkpt>
      <trkpt lat="58.06613" lon="-4.97768">
        <ele>131.41</ele>
        <time>2021-03-20T21:20:18Z</time>
      </trkpt>
      <trkpt lat="58.06628" lon="-4.97437">
        <ele>139.59</ele>
        <time>2021-03-20T21:20:23Z</time>
      </trkpt>
      <trkpt lat="58.06632" lon="-4.97368">
        <ele>140.94</ele>
        <time>2021-03-20T21:20:27Z</time>
      </trkpt>
      <trkpt lat="58.06638" lon="-4.97326">
        <ele>142.24</ele>
        <time>2021-03-20T21:20:32Z</time>
      </trkpt>
      <trkpt lat="58.06665" lon="-4.97197">
        <ele>146.82</ele>
        <time>2021-03-20T21:20:37Z</time>
      </trkpt>
      <trkpt lat="58.06554" lon="-4.97098">
        <ele>146.93</ele>
        <time>2021-03-20T21:20:42Z</time>
      </trkpt>
      <trkpt lat="58.06473" lon="-4.96994">
        <ele>144.04</ele>
        <time>2021-03-20T21:20:47Z</time>
      </trkpt>
      <trkpt lat="58.06132" lon="-4.96472">
        <ele>143.49</ele>
        <time>2021-03-20T21:20:52Z</time>
      </trkpt>
      <trkpt lat="58.06094" lon="-4.96388">
        <ele>145.51</ele>
        <time>2021-03-20T21:20:58Z</time>
      </trkpt>
      <trkpt lat="58.05994" lon="-4.96136">
        <ele>146.57</ele>
        <time>2021-03-20T21:21:03Z</time>
      </trkpt>
      <trkpt lat="58.0594" lon="-4.95991">
        <ele>147.17</ele>
        <time>2021-03-20T21:21:08Z</time>
      </trkpt>
      <trkpt lat="58.05893" lon="-4.95848">
        <ele>146.3</ele>
        <time>2021-03-20T21:21:13Z</time>
      </trkpt>
      <trkpt lat="58.0568" lon="-4.95155">
        <ele>148.69</ele>
        <time>2021-03-20T21:21:18Z</time>
      </trkpt>
      <trkpt lat="58.05662" lon="-4.95118">
        <ele>147.68</ele>
        <time>2021-03-20T21:21:24Z</time>
      </trkpt>
      <trkpt lat="58.05567" lon="-4.94986">
        <ele>147.8</ele>
        <time>2021-03-20T21:21:29Z</time>
      </trkpt>
      <trkpt lat="58.05545" lon="-4.94953">
        <ele>146.52</ele>
        <time>2021-03-20T21:21:34Z</time>
      </trkpt>
      <trkpt lat="58.05494" lon="-4.94849">
        <ele>144.86</ele>
        <time>2021-03-20T21:21:39Z</time>
      </trkpt>
      <trkpt lat="58.05458" lon="-4.94768">
        <ele>145.02</ele>
        <time>2021-03-20T21:21:45Z</time>
      </trkpt>
      <trkpt lat="58.05424" lon="-4.9464">
        <ele>147.3</ele>
        <time>2021-03-20T21:21:50Z</time>
      </trkpt>
      <trkpt lat="58.05364" lon="-4.94501">
        <ele>142.17</ele>
        <time>2021-03-20T21:21:55Z</time>
      </trkpt>
      <trkpt lat="58.05329" lon="-4.94398">
        <ele>143</ele>
        <time>2021-03-20T21:22:00Z</time>
      </trkpt>
      <trkpt lat="58.05306" lon="-4.9428">
        <ele>143</ele>
        <time>2021-03-20T21:22:06Z</time>
      </trkpt>
      <trkpt lat="58.05274" lon="-4.94096">
        <ele>144.07</ele>
        <time>2021-03-20T21:22:11Z</time>
      </trkpt>
      <trkpt lat="58.0523" lon="-4.93893">
        <ele>146.13</ele>
        <time>2021-03-20T21:22:16Z</time>
      </trkpt>
      <trkpt lat="58.05114" lon="-4.93527">
        <ele>144.14</ele>
        <time>2021-03-20T21:22:21Z</time>
      </trkpt>
      <trkpt lat="58.05085" lon="-4.93461">
        <ele>144.51</ele>
        <time>2021-03-20T21:22:26Z</time>
      </trkpt>
      <trkpt lat="58.05044" lon="-4.93409">
        <ele>144.63</ele>
        <time>2021-03-20T21:22:32Z</time>
      </trkpt>
      <trkpt lat="58.04932" lon="-4.93283">
        <ele>145.25</ele>
        <time>2021-03-20T21:22:37Z</time>
      </trkpt>
      <trkpt lat="58.0482" lon="-4.93131">
        <ele>146.8</ele>
        <time>2021-03-20T21:22:42Z</time>
      </trkpt>
      <trkpt lat="58.04761" lon="-4.93039">
        <ele>147.65</ele>
        <time>2021-03-20T21:22:47Z</time>
      </trkpt>
      <trkpt lat="58.04731" lon="-4.92964">
        <ele>148.61</ele>
        <time>2021-03-20T21:22:53Z</time>
      </trkpt>
      <trkpt lat="58.04707" lon="-4.92868">
        <ele>148.92</ele>
        <time>2021-03-20T21:22:58Z</time>
      </trkpt>
      <trkpt lat="58.04677" lon="-4.92677">
        <ele>150.64</ele>
        <time>2021-03-20T21:23:03Z</time>
      </trkpt>
      <trkpt lat="58.04651" lon="-4.92593">
        <ele>152.09</ele>
        <time>2021-03-20T21:23:08Z</time>
      </trkpt>
      <trkpt lat="58.0461" lon="-4.92496">
        <ele>153.92</ele>
        <time>2021-03-20T21:23:14Z</time>
      </trkpt>
      <trkpt lat="58.0447" lon="-4.91958">
        <ele>152.91</ele>
        <time>2021-03-20T21:23:19Z</time>
      </trkpt>
      <trkpt lat="58.04428" lon="-4.91812">
        <ele>156.16</ele>
        <time>2021-03-20T21:23:24Z</time>
      </trkpt>
      <trkpt lat="58.04373" lon="-4.91643">
        <ele>159.41</ele>
        <time>2021-03-20T21:23:29Z</time>
      </trkpt>
      <trkpt lat="58.04359" lon="-4.91586">
        <ele>159.93</ele>
        <time>2021-03-20T21:23:34Z</time>
      </trkpt>
      <trkpt lat="58.04348" lon="-4.91528">
        <ele>159.53</ele>
        <time>2021-03-20T21:23:40Z</time>
      </trkpt>
      <trkpt lat="58.04308" lon="-4.91226">
        <ele>160.14</ele>
        <time>2021-03-20T21:23:45Z</time>
      </trkpt>
      <trkpt lat="58.04297" lon="-4.91128">
        <ele>161.51</ele>
        <time>2021-03-20T21:23:50Z</time>
      </trkpt>
      <trkpt lat="58.04298" lon="-4.9095">
        <ele>161.19</ele>
        <time>2021-03-20T21:23:55Z</time>
      </trkpt>
      <trkpt lat="58.04295" lon="-4.90872">
        <ele>160.85</ele>
        <time>2021-03-20T21:24:01Z</time>
      </trkpt>
      <trkpt lat="58.04282" lon="-4.90789">
        <ele>159.18</ele>
        <time>2021-03-20T21:24:06Z</time>
      </trkpt>
      <trkpt lat="58.04223" lon="-4.90593">
        <ele>156.05</ele>
        <time>2021-03-20T21:24:11Z</time>
      </trkpt>
      <trkpt lat="58.04162" lon="-4.90357">
        <ele>153.82</ele>
        <time>2021-03-20T21:24:16Z</time>
      </trkpt>
      <trkpt lat="58.04129" lon="-4.90282">
        <ele>155.07</ele>
        <time>2021-03-20T21:24:22Z</time>
      </trkpt>
      <trkpt lat="58.04102" lon="-4.90226">
        <ele>155.19</ele>
        <time>2021-03-20T21:24:27Z</time>
      </trkpt>
      <trkpt lat="58.03692" lon="-4.89577">
        <ele>154.12</ele>
        <time>2021-03-20T21:24:32Z</time>
      </trkpt>
      <trkpt lat="58.03589" lon="-4.89391">
        <ele>150.27</ele>
        <time>2021-03-20T21:24:37Z</time>
      </trkpt>
      <trkpt lat="58.03443" lon="-4.89109">
        <ele>151</ele>
        <time>2021-03-20T21:24:42Z</time>
      </trkpt>
      <trkpt lat="58.03357" lon="-4.88947">
        <ele>151.3</ele>
        <time>2021-03-20T21:24:48Z</time>
      </trkpt>
      <trkpt lat="58.03315" lon="-4.88896">
        <ele>154.41</ele>
        <time>2021-03-20T21:24:53Z</time>
      </trkpt>
      <trkpt lat="58.03261" lon="-4.88844">
        <ele>156.38</ele>
        <time>2021-03-20T21:24:58Z</time>
      </trkpt>
      <trkpt lat="58.03208" lon="-4.88808">
        <ele>157.91</ele>
        <time>2021-03-20T21:25:03Z</time>
      </trkpt>
      <trkpt lat="58.03159" lon="-4.88785">
        <ele>159.24</ele>
        <time>2021-03-20T21:25:09Z</time>
      </trkpt>
      <trkpt lat="58.03129" lon="-4.88753">
        <ele>160.1</ele>
        <time>2021-03-20T21:25:14Z</time>
      </trkpt>
      <trkpt lat="58.03113" lon="-4.8872">
        <ele>161.22</ele>
        <time>2021-03-20T21:25:19Z</time>
      </trkpt>
      <trkpt lat="58.03099" lon="-4.88682">
        <ele>162.49</ele>
        <time>2021-03-20T21:25:24Z</time>
      </trkpt>
      <trkpt lat="58.03084" lon="-4.88633">
        <ele>163.24</ele>
        <time>2021-03-20T21:25:30Z</time>
      </trkpt>
      <trkpt lat="58.03041" lon="-4.88472">
        <ele>163.47</ele>
        <time>2021-03-20T21:25:35Z</time>
      </trkpt>
      <trkpt lat="58.02965" lon="-4.88167">
        <ele>163.74</ele>
        <time>2021-03-20T21:25:40Z</time>
      </trkpt>
      <trkpt lat="58.02902" lon="-4.87991">
        <ele>164.48</ele>
        <time>2021-03-20T21:25:45Z</time>
      </trkpt>
      <trkpt lat="58.02723" lon="-4.87518">
        <ele>162.39</ele>
        <time>2021-03-20T21:25:51Z</time>
      </trkpt>
      <trkpt lat="58.02547" lon="-4.87253">
        <ele>162.02</ele>
        <time>2021-03-20T21:25:56Z</time>
      </trkpt>
      <trkpt lat="58.02516" lon="-4.8718">
        <ele>160.27</ele>
        <time>2021-03-20T21:26:01Z</time>
      </trkpt>
      <trkpt lat="58.02496" lon="-4.87099">
        <ele>159.55</ele>
        <time>2021-03-20T21:26:06Z</time>
      </trkpt>
      <trkpt lat="58.02456" lon="-4.86783">
        <ele>157.63</ele>
        <time>2021-03-20T21:26:11Z</time>
      </trkpt>
      <trkpt lat="58.0244" lon="-4.86722">
        <ele>157.41</ele>
        <time>2021-03-20T21:26:17Z</time>
      </trkpt>
      <trkpt lat="58.02425" lon="-4.86691">
        <ele>156.01</ele>
        <time>2021-03-20T21:26:22Z</time>
      </trkpt>
      <trkpt lat="58.02376" lon="-4.86647">
        <ele>154.22</ele>
        <time>2021-03-20T21:26:27Z</time>
      </trkpt>
      <trkpt lat="58.02217" lon="-4.8654">
        <ele>150</ele>
        <time>2021-03-20T21:26:32Z</time>
      </trkpt>
      <trkpt lat="58.01949" lon="-4.86288">
        <ele>160.63</ele>
        <time>2021-03-20T21:26:38Z</time>
      </trkpt>
      <trkpt lat="58.01823" lon="-4.86097">
        <ele>165</ele>
        <time>2021-03-20T21:26:43Z</time>
      </trkpt>
      <trkpt lat="58.01759" lon="-4.86037">
        <ele>167</ele>
        <time>2021-03-20T21:26:48Z</time>
      </trkpt>
      <trkpt lat="58.01616" lon="-4.85921">
        <ele>170</ele>
        <time>2021-03-20T21:26:53Z</time>
      </trkpt>
      <trkpt lat="58.01508" lon="-4.85778">
        <ele>173.29</ele>
        <time>2021-03-20T21:26:59Z</time>
      </trkpt>
      <trkpt lat="58.01456" lon="-4.85659">
        <ele>175</ele>
        <time>2021-03-20T21:27:04Z</time>
      </trkpt>
      <trkpt lat="58.01371" lon="-4.85443">
        <ele>175</ele>
        <time>2021-03-20T21:27:09Z</time>
      </trkpt>
      <trkpt lat="58.01281" lon="-4.85165">
        <ele>173.12</ele>
        <time>2021-03-20T21:27:14Z</time>
      </trkpt>
      <trkpt lat="58.01265" lon="-4.85048">
        <ele>171.04</ele>
        <time>2021-03-20T21:27:19Z</time>
      </trkpt>
      <trkpt lat="58.01251" lon="-4.84877">
        <ele>169.03</ele>
        <time>2021-03-20T21:27:25Z</time>
      </trkpt>
      <trkpt lat="58.01229" lon="-4.84738">
        <ele>168.8</ele>
        <time>2021-03-20T21:27:30Z</time>
      </trkpt>
      <trkpt lat="58.01197" lon="-4.84607">
        <ele>169.2</ele>
        <time>2021-03-20T21:27:35Z</time>
      </trkpt>
      <trkpt lat="58.01119" lon="-4.84412">
        <ele>168.99</ele>
        <time>2021-03-20T21:27:40Z</time>
      </trkpt>
      <trkpt lat="58.00973" lon="-4.84184">
        <ele>164.96</ele>
        <time>2021-03-20T21:27:46Z</time>
      </trkpt>
      <trkpt lat="58.00912" lon="-4.84028">
        <ele>165.32</ele>
        <time>2021-03-20T21:27:51Z</time>
      </trkpt>
      <trkpt lat="58.00809" lon="-4.83722">
        <ele>165.82</ele>
        <time>2021-03-20T21:27:56Z</time>
      </trkpt>
      <trkpt lat="58.00736" lon="-4.83563">
        <ele>163.71</ele>
        <time>2021-03-20T21:28:01Z</time>
      </trkpt>
      <trkpt lat="58.0068" lon="-4.83455">
        <ele>163.09</ele>
        <time>2021-03-20T21:28:07Z</time>
      </trkpt>
      <trkpt lat="58.00625" lon="-4.83296">
        <ele>163.07</ele>
        <time>2021-03-20T21:28:12Z</time>
      </trkpt>
      <trkpt lat="58.00546" lon="-4.83084">
        <ele>162.04</ele>
        <time>2021-03-20T21:28:17Z</time>
      </trkpt>
      <trkpt lat="58.00453" lon="-4.82985">
        <ele>162.5</ele>
        <time>2021-03-20T21:28:22Z</time>
      </trkpt>
      <trkpt lat="58.00393" lon="-4.829">
        <ele>156.99</ele>
        <time>2021-03-20T21:28:27Z</time>
      </trkpt>
      <trkpt lat="58.00362" lon="-4.82836">
        <ele>157.13</ele>
        <time>2021-03-20T21:28:33Z</time>
      </trkpt>
      <trkpt lat="58.00285" lon="-4.82707">
        <ele>159.84</ele>
        <time>2021-03-20T21:28:38Z</time>
      </trkpt>
      <trkpt lat="58.00185" lon="-4.8257">
        <ele>159.43</ele>
        <time>2021-03-20T21:28:43Z</time>
      </trkpt>
      <trkpt lat="58.00126" lon="-4.82485">
        <ele>159.58</ele>
        <time>2021-03-20T21:28:48Z</time>
      </trkpt>
      <trkpt lat="58.00037" lon="-4.82378">
        <ele>154.13</ele>
        <time>2021-03-20T21:28:54Z</time>
      </trkpt>
      <trkpt lat="58.00006" lon="-4.82345">
        <ele>154.39</ele>
        <time>2021-03-20T21:28:59Z</time>
      </trkpt>
      <trkpt lat="57.99959" lon="-4.82304">
        <ele>155.86</ele>
        <time>2021-03-20T21:29:04Z</time>
      </trkpt>
      <trkpt lat="57.99872" lon="-4.82251">
        <ele>154.91</ele>
        <time>2021-03-20T21:29:09Z</time>
      </trkpt>
      <trkpt lat="57.99834" lon="-4.82223">
        <ele>155.05</ele>
        <time>2021-03-20T21:29:15Z</time>
      </trkpt>
      <trkpt lat="57.99789" lon="-4.82183">
        <ele>155.47</ele>
        <time>2021-03-20T21:29:20Z</time>
      </trkpt>
      <trkpt lat="57.99757" lon="-4.82147">
        <ele>154.95</ele>
        <time>2021-03-20T21:29:25Z</time>
      </trkpt>
      <trkpt lat="57.9972" lon="-4.82113">
        <ele>155.6</ele>
        <time>2021-03-20T21:29:30Z</time>
      </trkpt>
      <trkpt lat="57.99675" lon="-4.82067">
        <ele>155.76</ele>
        <time>2021-03-20T21:29:35Z</time>
      </trkpt>
      <trkpt lat="57.99629" lon="-4.82028">
        <ele>156.08</ele>
        <time>2021-03-20T21:29:41Z</time>
      </trkpt>
      <trkpt lat="57.99508" lon="-4.81951">
        <ele>154.39</ele>
        <time>2021-03-20T21:29:46Z</time>
      </trkpt>
      <trkpt lat="57.99485" lon="-4.81931">
        <ele>154.39</ele>
        <time>2021-03-20T21:29:51Z</time>
      </trkpt>
      <trkpt lat="57.99461" lon="-4.81903">
        <ele>153.46</ele>
        <time>2021-03-20T21:29:56Z</time>
      </trkpt>
      <trkpt lat="57.99429" lon="-4.81854">
        <ele>150.64</ele>
        <time>2021-03-20T21:30:02Z</time>
      </trkpt>
      <trkpt lat="57.99381" lon="-4.81791">
        <ele>148.29</ele>
        <time>2021-03-20T21:30:07Z</time>
      </trkpt>
      <trkpt lat="57.9931" lon="-4.81714">
        <ele>145.98</ele>
        <time>2021-03-20T21:30:12Z</time>
      </trkpt>
      <trkpt lat="57.99242" lon="-4.81653">
        <ele>143.68</ele>
        <time>2021-03-20T21:30:17Z</time>
      </trkpt>
      <trkpt lat="57.99091" lon="-4.81565">
        <ele>144.43</ele>
        <time>2021-03-20T21:30:23Z</time>
      </trkpt>
      <trkpt lat="57.99058" lon="-4.81531">
        <ele>145.83</ele>
        <time>2021-03-20T21:30:28Z</time>
      </trkpt>
      <trkpt lat="57.98964" lon="-4.81335">
        <ele>139.96</ele>
        <time>2021-03-20T21:30:33Z</time>
      </trkpt>
      <trkpt lat="57.98925" lon="-4.81262">
        <ele>139.84</ele>
        <time>2021-03-20T21:30:38Z</time>
      </trkpt>
      <trkpt lat="57.98825" lon="-4.81103">
        <ele>138.02</ele>
        <time>2021-03-20T21:30:44Z</time>
      </trkpt>
      <trkpt lat="57.98742" lon="-4.81012">
        <ele>133.42</ele>
        <time>2021-03-20T21:30:49Z</time>
      </trkpt>
      <trkpt lat="57.98668" lon="-4.80952">
        <ele>130.47</ele>
        <time>2021-03-20T21:30:54Z</time>
      </trkpt>
      <trkpt lat="57.98488" lon="-4.8067">
        <ele>121.15</ele>
        <time>2021-03-20T21:30:59Z</time>
      </trkpt>
      <trkpt lat="57.98425" lon="-4.80491">
        <ele>116.5</ele>
        <time>2021-03-20T21:31:04Z</time>
      </trkpt>
      <trkpt lat="57.98273" lon="-4.79827">
        <ele>97.07</ele>
        <time>2021-03-20T21:31:10Z</time>
      </trkpt>
      <trkpt lat="57.98206" lon="-4.79657">
        <ele>90.93</ele>
        <time>2021-03-20T21:31:15Z</time>
      </trkpt>
      <trkpt lat="57.98098" lon="-4.79359">
        <ele>85.39</ele>
        <time>2021-03-20T21:31:20Z</time>
      </trkpt>
      <trkpt lat="57.97984" lon="-4.79058">
        <ele>77.93</ele>
        <time>2021-03-20T21:31:25Z</time>
      </trkpt>
      <trkpt lat="57.97965" lon="-4.79017">
        <ele>76.75</ele>
        <time>2021-03-20T21:31:31Z</time>
      </trkpt>
      <trkpt lat="57.97692" lon="-4.78562">
        <ele>62.72</ele>
        <time>2021-03-20T21:31:36Z</time>
      </trkpt>
      <trkpt lat="57.97671" lon="-4.78544">
        <ele>63.72</ele>
        <time>2021-03-20T21:31:41Z</time>
      </trkpt>
      <trkpt lat="57.97644" lon="-4.78537">
        <ele>64.47</ele>
        <time>2021-03-20T21:31:46Z</time>
      </trkpt>
      <trkpt lat="57.97608" lon="-4.78544">
        <ele>66.12</ele>
        <time>2021-03-20T21:31:52Z</time>
      </trkpt>
      <trkpt lat="57.97558" lon="-4.78527">
        <ele>64.06</ele>
        <time>2021-03-20T21:31:57Z</time>
      </trkpt>
      <trkpt lat="57.97475" lon="-4.78479">
        <ele>62.02</ele>
        <time>2021-03-20T21:32:02Z</time>
      </trkpt>
      <trkpt lat="57.97456" lon="-4.7846">
        <ele>64.03</ele>
        <time>2021-03-20T21:32:07Z</time>
      </trkpt>
      <trkpt lat="57.97447" lon="-4.78443">
        <ele>65.65</ele>
        <time>2021-03-20T21:32:12Z</time>
      </trkpt>
      <trkpt lat="57.9744" lon="-4.78344">
        <ele>67.57</ele>
        <time>2021-03-20T21:32:18Z</time>
      </trkpt>
      <trkpt lat="57.97434" lon="-4.78302">
        <ele>67.57</ele>
        <time>2021-03-20T21:32:23Z</time>
      </trkpt>
      <trkpt lat="57.97421" lon="-4.78255">
        <ele>66</ele>
        <time>2021-03-20T21:32:28Z</time>
      </trkpt>
      <trkpt lat="57.97401" lon="-4.78198">
        <ele>65.79</ele>
        <time>2021-03-20T21:32:33Z</time>
      </trkpt>
      <trkpt lat="57.97375" lon="-4.78132">
        <ele>66.73</ele>
        <time>2021-03-20T21:32:39Z</time>
      </trkpt>
      <trkpt lat="57.97367" lon="-4.78024">
        <ele>68.29</ele>
        <time>2021-03-20T21:32:44Z</time>
      </trkpt>
      <trkpt lat="57.97364" lon="-4.77709">
        <ele>65.46</ele>
        <time>2021-03-20T21:32:49Z</time>
      </trkpt>
      <trkpt lat="57.97353" lon="-4.77623">
        <ele>63.72</ele>
        <time>2021-03-20T21:32:54Z</time>
      </trkpt>
      <trkpt lat="57.97307" lon="-4.77476">
        <ele>63.87</ele>
        <time>2021-03-20T21:33:00Z</time>
      </trkpt>
      <trkpt lat="57.97256" lon="-4.77387">
        <ele>61</ele>
        <time>2021-03-20T21:33:05Z</time>
      </trkpt>
      <trkpt lat="57.97231" lon="-4.77257">
        <ele>65.15</ele>
        <time>2021-03-20T21:33:10Z</time>
      </trkpt>
      <trkpt lat="57.97226" lon="-4.76975">
        <ele>66.76</ele>
        <time>2021-03-20T21:33:15Z</time>
      </trkpt>
      <trkpt lat="57.97196" lon="-4.76873">
        <ele>65.96</ele>
        <time>2021-03-20T21:33:20Z</time>
      </trkpt>
      <trkpt lat="57.97168" lon="-4.76708">
        <ele>69</ele>
        <time>2021-03-20T21:33:26Z</time>
      </trkpt>
      <trkpt lat="57.97108" lon="-4.76476">
        <ele>68.23</ele>
        <time>2021-03-20T21:33:31Z</time>
      </trkpt>
      <trkpt lat="57.97084" lon="-4.76321">
        <ele>67.96</ele>
        <time>2021-03-20T21:33:36Z</time>
      </trkpt>
      <trkpt lat="57.97062" lon="-4.76104">
        <ele>68</ele>
        <time>2021-03-20T21:33:41Z</time>
      </trkpt>
      <trkpt lat="57.97078" lon="-4.75957">
        <ele>66.05</ele>
        <time>2021-03-20T21:33:47Z</time>
      </trkpt>
      <trkpt lat="57.97081" lon="-4.75785">
        <ele>64.64</ele>
        <time>2021-03-20T21:33:52Z</time>
      </trkpt>
      <trkpt lat="57.9709" lon="-4.75665">
        <ele>62.75</ele>
        <time>2021-03-20T21:33:57Z</time>
      </trkpt>
      <trkpt lat="57.97082" lon="-4.75544">
        <ele>59.65</ele>
        <time>2021-03-20T21:34:02Z</time>
      </trkpt>
      <trkpt lat="57.97075" lon="-4.75479">
        <ele>58.63</ele>
        <time>2021-03-20T21:34:08Z</time>
      </trkpt>
      <trkpt lat="57.97066" lon="-4.75339">
        <ele>55.15</ele>
        <time>2021-03-20T21:34:13Z</time>
      </trkpt>
      <trkpt lat="57.97041" lon="-4.75208">
        <ele>54.04</ele>
        <time>2021-03-20T21:34:18Z</time>
      </trkpt>
      <trkpt lat="57.97013" lon="-4.75115">
        <ele>53.21</ele>
        <time>2021-03-20T21:34:23Z</time>
      </trkpt>
      <trkpt lat="57.97" lon="-4.74983">
        <ele>52.97</ele>
        <time>2021-03-20T21:34:28Z</time>
      </trkpt>
      <trkpt lat="57.96998" lon="-4.74764">
        <ele>51</ele>
        <time>2021-03-20T21:34:34Z</time>
      </trkpt>
      <trkpt lat="57.96969" lon="-4.74486">
        <ele>55.33</ele>
        <time>2021-03-20T21:34:39Z</time>
      </trkpt>
      <trkpt lat="57.96914" lon="-4.74216">
        <ele>52.46</ele>
        <time>2021-03-20T21:34:44Z</time>
      </trkpt>
      <trkpt lat="57.96889" lon="-4.73874">
        <ele>47.01</ele>
        <time>2021-03-20T21:34:49Z</time>
      </trkpt>
      <trkpt lat="57.96879" lon="-4.73832">
        <ele>47.66</ele>
        <time>2021-03-20T21:34:55Z</time>
      </trkpt>
      <trkpt lat="57.96827" lon="-4.73519">
        <ele>42.31</ele>
        <time>2021-03-20T21:35:00Z</time>
      </trkpt>
      <trkpt lat="57.96787" lon="-4.73231">
        <ele>40.47</ele>
        <time>2021-03-20T21:35:05Z</time>
      </trkpt>
      <trkpt lat="57.96778" lon="-4.7315">
        <ele>39.4</ele>
        <time>2021-03-20T21:35:10Z</time>
      </trkpt>
      <trkpt lat="57.96777" lon="-4.73124">
        <ele>37.87</ele>
        <time>2021-03-20T21:35:16Z</time>
      </trkpt>
      <trkpt lat="57.96778" lon="-4.731">
        <ele>36.6</ele>
        <time>2021-03-20T21:35:21Z</time>
      </trkpt>
      <trkpt lat="57.96783" lon="-4.7306">
        <ele>35.16</ele>
        <time>2021-03-20T21:35:26Z</time>
      </trkpt>
      <trkpt lat="57.9681" lon="-4.72902">
        <ele>39.75</ele>
        <time>2021-03-20T21:35:31Z</time>
      </trkpt>
      <trkpt lat="57.96812" lon="-4.72875">
        <ele>41.94</ele>
        <time>2021-03-20T21:35:36Z</time>
      </trkpt>
      <trkpt lat="57.96814" lon="-4.72649">
        <ele>55.94</ele>
        <time>2021-03-20T21:35:42Z</time>
      </trkpt>
      <trkpt lat="57.96822" lon="-4.72476">
        <ele>63.58</ele>
        <time>2021-03-20T21:35:47Z</time>
      </trkpt>
      <trkpt lat="57.96802" lon="-4.72236">
        <ele>67.18</ele>
        <time>2021-03-20T21:35:52Z</time>
      </trkpt>
      <trkpt lat="57.96846" lon="-4.71536">
        <ele>75.32</ele>
        <time>2021-03-20T21:35:57Z</time>
      </trkpt>
      <trkpt lat="57.96843" lon="-4.71355">
        <ele>74.3</ele>
        <time>2021-03-20T21:36:03Z</time>
      </trkpt>
      <trkpt lat="57.96832" lon="-4.71196">
        <ele>71.84</ele>
        <time>2021-03-20T21:36:08Z</time>
      </trkpt>
      <trkpt lat="57.96841" lon="-4.70961">
        <ele>72.37</ele>
        <time>2021-03-20T21:36:13Z</time>
      </trkpt>
      <trkpt lat="57.96857" lon="-4.70752">
        <ele>70.54</ele>
        <time>2021-03-20T21:36:18Z</time>
      </trkpt>
      <trkpt lat="57.96869" lon="-4.70526">
        <ele>64.83</ele>
        <time>2021-03-20T21:36:24Z</time>
      </trkpt>
      <trkpt lat="57.96889" lon="-4.70364">
        <ele>64.98</ele>
        <time>2021-03-20T21:36:29Z</time>
      </trkpt>
      <trkpt lat="57.96957" lon="-4.6994">
        <ele>64.83</ele>
        <time>2021-03-20T21:36:34Z</time>
      </trkpt>
      <trkpt lat="57.96968" lon="-4.69836">
        <ele>64.93</ele>
        <time>2021-03-20T21:36:39Z</time>
      </trkpt>
      <trkpt lat="57.96979" lon="-4.69687">
        <ele>62.99</ele>
        <time>2021-03-20T21:36:45Z</time>
      </trkpt>
      <trkpt lat="57.96986" lon="-4.69632">
        <ele>63.19</ele>
        <time>2021-03-20T21:36:50Z</time>
      </trkpt>
      <trkpt lat="57.97017" lon="-4.69517">
        <ele>60.47</ele>
        <time>2021-03-20T21:36:55Z</time>
      </trkpt>
      <trkpt lat="57.9707" lon="-4.69397">
        <ele>56.36</ele>
        <time>2021-03-20T21:37:00Z</time>
      </trkpt>
      <trkpt lat="57.97246" lon="-4.69151">
        <ele>44.26</ele>
        <time>2021-03-20T21:37:05Z</time>
      </trkpt>
      <trkpt lat="57.97291" lon="-4.69059">
        <ele>35.76</ele>
        <time>2021-03-20T21:37:11Z</time>
      </trkpt>
      <trkpt lat="57.97313" lon="-4.68983">
        <ele>38.89</ele>
        <time>2021-03-20T21:37:16Z</time>
      </trkpt>
      <trkpt lat="57.97323" lon="-4.68904">
        <ele>45.81</ele>
        <time>2021-03-20T21:37:21Z</time>
      </trkpt>
      <trkpt lat="57.97326" lon="-4.68797">
        <ele>46.76</ele>
        <time>2021-03-20T21:37:26Z</time>
      </trkpt>
      <trkpt lat="57.97308" lon="-4.68559">
        <ele>44.8</ele>
        <time>2021-03-20T21:37:32Z</time>
      </trkpt>
      <trkpt lat="57.97283" lon="-4.68066">
        <ele>43.42</ele>
        <time>2021-03-20T21:37:37Z</time>
      </trkpt>
      <trkpt lat="57.97263" lon="-4.67819">
        <ele>44.7</ele>
        <time>2021-03-20T21:37:42Z</time>
      </trkpt>
      <trkpt lat="57.97228" lon="-4.67501">
        <ele>40.05</ele>
        <time>2021-03-20T21:37:47Z</time>
      </trkpt>
      <trkpt lat="57.9717" lon="-4.67099">
        <ele>41.1</ele>
        <time>2021-03-20T21:37:53Z</time>
      </trkpt>
      <trkpt lat="57.97113" lon="-4.66762">
        <ele>34.67</ele>
        <time>2021-03-20T21:37:58Z</time>
      </trkpt>
      <trkpt lat="57.97084" lon="-4.66529">
        <ele>35.22</ele>
        <time>2021-03-20T21:38:03Z</time>
      </trkpt>
      <trkpt lat="57.97075" lon="-4.66199">
        <ele>33.89</ele>
        <time>2021-03-20T21:38:08Z</time>
      </trkpt>
      <trkpt lat="57.97091" lon="-4.65714">
        <ele>35.39</ele>
        <time>2021-03-20T21:38:13Z</time>
      </trkpt>
      <trkpt lat="57.97106" lon="-4.65618">
        <ele>36.01</ele>
        <time>2021-03-20T21:38:19Z</time>
      </trkpt>
      <trkpt lat="57.97115" lon="-4.65583">
        <ele>36</ele>
        <time>2021-03-20T21:38:24Z</time>
      </trkpt>
      <trkpt lat="57.97131" lon="-4.65536">
        <ele>35.08</ele>
        <time>2021-03-20T21:38:29Z</time>
      </trkpt>
      <trkpt lat="57.9718" lon="-4.65427">
        <ele>32.86</ele>
        <time>2021-03-20T21:38:34Z</time>
      </trkpt>
      <trkpt lat="57.97192" lon="-4.6541">
        <ele>32.65</ele>
        <time>2021-03-20T21:38:40Z</time>
      </trkpt>
      <trkpt lat="57.97224" lon="-4.65371">
        <ele>31.75</ele>
        <time>2021-03-20T21:38:45Z</time>
      </trkpt>
      <trkpt lat="57.97284" lon="-4.65329">
        <ele>30.85</ele>
        <time>2021-03-20T21:38:50Z</time>
      </trkpt>
      <trkpt lat="57.97304" lon="-4.65298">
        <ele>28.97</ele>
        <time>2021-03-20T21:38:55Z</time>
      </trkpt>
      <trkpt lat="57.97333" lon="-4.65219">
        <ele>26.61</ele>
        <time>2021-03-20T21:39:01Z</time>
      </trkpt>
      <trkpt lat="57.97344" lon="-4.65185">
        <ele>24.99</ele>
        <time>2021-03-20T21:39:06Z</time>
      </trkpt>
      <trkpt lat="57.97401" lon="-4.65093">
        <ele>25.71</ele>
        <time>2021-03-20T21:39:11Z</time>
      </trkpt>
      <trkpt lat="57.97428" lon="-4.65036">
        <ele>23.61</ele>
        <time>2021-03-20T21:39:16Z</time>
      </trkpt>
      <trkpt lat="57.97436" lon="-4.65004">
        <ele>20.38</ele>
        <time>2021-03-20T21:39:21Z</time>
      </trkpt>
      <trkpt lat="57.97457" lon="-4.64956">
        <ele>20.61</ele>
        <time>2021-03-20T21:39:27Z</time>
      </trkpt>
      <trkpt lat="57.97468" lon="-4.64908">
        <ele>20.53</ele>
        <time>2021-03-20T21:39:32Z</time>
      </trkpt>
      <trkpt lat="57.97472" lon="-4.6487">
        <ele>19.33</ele>
        <time>2021-03-20T21:39:37Z</time>
      </trkpt>
      <trkpt lat="57.97468" lon="-4.64785">
        <ele>17.2</ele>
        <time>2021-03-20T21:39:42Z</time>
      </trkpt>
      <trkpt lat="57.9747" lon="-4.64761">
        <ele>17.06</ele>
        <time>2021-03-20T21:39:48Z</time>
      </trkpt>
      <trkpt lat="57.97489" lon="-4.64676">
        <ele>16.14</ele>
        <time>2021-03-20T21:39:53Z</time>
      </trkpt>
      <trkpt lat="57.97514" lon="-4.6453">
        <ele>14.61</ele>
        <time>2021-03-20T21:39:58Z</time>
      </trkpt>
      <trkpt lat="57.97533" lon="-4.64472">
        <ele>14.76</ele>
        <time>2021-03-20T21:40:03Z</time>
      </trkpt>
      <trkpt lat="57.97537" lon="-4.6445">
        <ele>14.87</ele>
        <time>2021-03-20T21:40:09Z</time>
      </trkpt>
      <trkpt lat="57.9754" lon="-4.64414">
        <ele>15.28</ele>
        <time>2021-03-20T21:40:14Z</time>
      </trkpt>
      <trkpt lat="57.97538" lon="-4.64368">
        <ele>15.8</ele>
        <time>2021-03-20T21:40:19Z</time>
      </trkpt>
      <trkpt lat="57.9753" lon="-4.64324">
        <ele>14.44</ele>
        <time>2021-03-20T21:40:24Z</time>
      </trkpt>
      <trkpt lat="57.9748" lon="-4.6415">
        <ele>10.99</ele>
        <time>2021-03-20T21:40:29Z</time>
      </trkpt>
      <trkpt lat="57.97474" lon="-4.64121">
        <ele>10.92</ele>
        <time>2021-03-20T21:40:35Z</time>
      </trkpt>
      <trkpt lat="57.97473" lon="-4.6408">
        <ele>11.19</ele>
        <time>2021-03-20T21:40:40Z</time>
      </trkpt>
      <trkpt lat="57.97475" lon="-4.64042">
        <ele>12.5</ele>
        <time>2021-03-20T21:40:45Z</time>
      </trkpt>
      <trkpt lat="57.97487" lon="-4.6395">
        <ele>13.76</ele>
        <time>2021-03-20T21:40:50Z</time>
      </trkpt>
      <trkpt lat="57.9749" lon="-4.63906">
        <ele>14.29</ele>
        <time>2021-03-20T21:40:56Z</time>
      </trkpt>
      <trkpt lat="57.9749" lon="-4.63785">
        <ele>16.87</ele>
        <time>2021-03-20T21:41:01Z</time>
      </trkpt>
      <trkpt lat="57.97474" lon="-4.63274">
        <ele>14.21</ele>
        <time>2021-03-20T21:41:06Z</time>
      </trkpt>
      <trkpt lat="57.97475" lon="-4.63211">
        <ele>14.22</ele>
        <time>2021-03-20T21:41:11Z</time>
      </trkpt>
      <trkpt lat="57.97519" lon="-4.62802">
        <ele>15.77</ele>
        <time>2021-03-20T21:41:17Z</time>
      </trkpt>
      <trkpt lat="57.97526" lon="-4.62587">
        <ele>16.6</ele>
        <time>2021-03-20T21:41:22Z</time>
      </trkpt>
      <trkpt lat="57.97529" lon="-4.62385">
        <ele>17.51</ele>
        <time>2021-03-20T21:41:27Z</time>
      </trkpt>
      <trkpt lat="57.97504" lon="-4.61928">
        <ele>13.89</ele>
        <time>2021-03-20T21:41:32Z</time>
      </trkpt>
      <trkpt lat="57.97508" lon="-4.61669">
        <ele>11.16</ele>
        <time>2021-03-20T21:41:38Z</time>
      </trkpt>
      <trkpt lat="57.97504" lon="-4.61496">
        <ele>10.03</ele>
        <time>2021-03-20T21:41:43Z</time>
      </trkpt>
      <trkpt lat="57.97504" lon="-4.60981">
        <ele>10.09</ele>
        <time>2021-03-20T21:41:48Z</time>
      </trkpt>
      <trkpt lat="57.97468" lon="-4.60498">
        <ele>10.58</ele>
        <time>2021-03-20T21:41:53Z</time>
      </trkpt>
      <trkpt lat="57.97471" lon="-4.60405">
        <ele>9.47</ele>
        <time>2021-03-20T21:41:58Z</time>
      </trkpt>
      <trkpt lat="57.97478" lon="-4.60313">
        <ele>9.01</ele>
        <time>2021-03-20T21:42:04Z</time>
      </trkpt>
      <trkpt lat="57.9749" lon="-4.60096">
        <ele>9.27</ele>
        <time>2021-03-20T21:42:09Z</time>
      </trkpt>
      <trkpt lat="57.97499" lon="-4.60032">
        <ele>9.86</ele>
        <time>2021-03-20T21:42:14Z</time>
      </trkpt>
      <trkpt lat="57.97542" lon="-4.59857">
        <ele>10.35</ele>
        <time>2021-03-20T21:42:19Z</time>
      </trkpt>
      <trkpt lat="57.97582" lon="-4.59702">
        <ele>12.82</ele>
        <time>2021-03-20T21:42:25Z</time>
      </trkpt>
      <trkpt lat="57.97712" lon="-4.5917">
        <ele>11</ele>
        <time>2021-03-20T21:42:30Z</time>
      </trkpt>
      <trkpt lat="57.97723" lon="-4.59145">
        <ele>12.12</ele>
        <time>2021-03-20T21:42:35Z</time>
      </trkpt>
      <trkpt lat="57.97742" lon="-4.59102">
        <ele>14.64</ele>
        <time>2021-03-20T21:42:40Z</time>
      </trkpt>
      <trkpt lat="57.97779" lon="-4.59055">
        <ele>16.07</ele>
        <time>2021-03-20T21:42:46Z</time>
      </trkpt>
      <trkpt lat="57.97864" lon="-4.58989">
        <ele>17.61</ele>
        <time>2021-03-20T21:42:51Z</time>
      </trkpt>
      <trkpt lat="57.98238" lon="-4.58788">
        <ele>14.91</ele>
        <time>2021-03-20T21:42:56Z</time>
      </trkpt>
      <trkpt lat="57.98283" lon="-4.58751">
        <ele>14.85</ele>
        <time>2021-03-20T21:43:01Z</time>
      </trkpt>
      <trkpt lat="57.9829" lon="-4.58742">
        <ele>14.27</ele>
        <time>2021-03-20T21:43:06Z</time>
      </trkpt>
      <trkpt lat="57.98319" lon="-4.58679">
        <ele>10.41</ele>
        <time>2021-03-20T21:43:12Z</time>
      </trkpt>
      <trkpt lat="57.98326" lon="-4.58658">
        <ele>9.28</ele>
        <time>2021-03-20T21:43:17Z</time>
      </trkpt>
      <trkpt lat="57.98352" lon="-4.58531">
        <ele>11.84</ele>
        <time>2021-03-20T21:43:22Z</time>
      </trkpt>
      <trkpt lat="57.98364" lon="-4.58431">
        <ele>17.61</ele>
        <time>2021-03-20T21:43:27Z</time>
      </trkpt>
      <trkpt lat="57.98361" lon="-4.58376">
        <ele>23.41</ele>
        <time>2021-03-20T21:43:33Z</time>
      </trkpt>
      <trkpt lat="57.98344" lon="-4.58326">
        <ele>27.99</ele>
        <time>2021-03-20T21:43:38Z</time>
      </trkpt>
      <trkpt lat="57.98311" lon="-4.5826">
        <ele>32.46</ele>
        <time>2021-03-20T21:43:43Z</time>
      </trkpt>
      <trkpt lat="57.98277" lon="-4.58202">
        <ele>34.71</ele>
        <time>2021-03-20T21:43:48Z</time>
      </trkpt>
      <trkpt lat="57.98257" lon="-4.58154">
        <ele>37.59</ele>
        <time>2021-03-20T21:43:54Z</time>
      </trkpt>
      <trkpt lat="57.98236" lon="-4.58098">
        <ele>40.24</ele>
        <time>2021-03-20T21:43:59Z</time>
      </trkpt>
      <trkpt lat="57.98217" lon="-4.58035">
        <ele>41.37</ele>
        <time>2021-03-20T21:44:04Z</time>
      </trkpt>
      <trkpt lat="57.98197" lon="-4.57983">
        <ele>41.82</ele>
        <time>2021-03-20T21:44:09Z</time>
      </trkpt>
      <trkpt lat="57.98168" lon="-4.57943">
        <ele>42.19</ele>
        <time>2021-03-20T21:44:14Z</time>
      </trkpt>
      <trkpt lat="57.98122" lon="-4.57906">
        <ele>41.35</ele>
        <time>2021-03-20T21:44:20Z</time>
      </trkpt>
      <trkpt lat="57.98092" lon="-4.5785">
        <ele>43.83</ele>
        <time>2021-03-20T21:44:25Z</time>
      </trkpt>
      <trkpt lat="57.98048" lon="-4.57727">
        <ele>47.78</ele>
        <time>2021-03-20T21:44:30Z</time>
      </trkpt>
      <trkpt lat="57.9799" lon="-4.57514">
        <ele>53.78</ele>
        <time>2021-03-20T21:44:35Z</time>
      </trkpt>
      <trkpt lat="57.97969" lon="-4.57355">
        <ele>56.96</ele>
        <time>2021-03-20T21:44:41Z</time>
      </trkpt>
      <trkpt lat="57.97963" lon="-4.57296">
        <ele>57.7</ele>
        <time>2021-03-20T21:44:46Z</time>
      </trkpt>
      <trkpt lat="57.97956" lon="-4.57173">
        <ele>58.31</ele>
        <time>2021-03-20T21:44:51Z</time>
      </trkpt>
      <trkpt lat="57.97946" lon="-4.5706">
        <ele>61.68</ele>
        <time>2021-03-20T21:44:56Z</time>
      </trkpt>
      <trkpt lat="57.97928" lon="-4.56969">
        <ele>66.78</ele>
        <time>2021-03-20T21:45:02Z</time>
      </trkpt>
      <trkpt lat="57.97886" lon="-4.5684">
        <ele>69.68</ele>
        <time>2021-03-20T21:45:07Z</time>
      </trkpt>
      <trkpt lat="57.97867" lon="-4.56792">
        <ele>69.19</ele>
        <time>2021-03-20T21:45:12Z</time>
      </trkpt>
      <trkpt lat="57.9787" lon="-4.56777">
        <ele>69.32</ele>
        <time>2021-03-20T21:45:16Z</time>
      </trkpt>
      <trkpt lat="57.97868" lon="-4.56753">
        <ele>69.23</ele>
        <time>2021-03-20T21:45:19Z</time>
      </trkpt>
      <trkpt lat="57.97847" lon="-4.56668">
        <ele>68.48</ele>
        <time>2021-03-20T21:45:22Z</time>
      </trkpt>
      <trkpt lat="57.97825" lon="-4.56602">
        <ele>71.65</ele>
        <time>2021-03-20T21:45:25Z</time>
      </trkpt>
      <trkpt lat="57.97781" lon="-4.56446">
        <ele>74.38</ele>
        <time>2021-03-20T21:45:29Z</time>
      </trkpt>
      <trkpt lat="57.97769" lon="-4.5639">
        <ele>73.34</ele>
        <time>2021-03-20T21:45:32Z</time>
      </trkpt>
      <trkpt lat="57.97763" lon="-4.5632">
        <ele>72.84</ele>
        <time>2021-03-20T21:45:35Z</time>
      </trkpt>
      <trkpt lat="57.97763" lon="-4.56263">
        <ele>72.04</ele>
        <time>2021-03-20T21:45:39Z</time>
      </trkpt>
      <trkpt lat="57.97768" lon="-4.562">
        <ele>70.96</ele>
        <time>2021-03-20T21:45:42Z</time>
      </trkpt>
      <trkpt lat="57.97771" lon="-4.56122">
        <ele>74.5</ele>
        <time>2021-03-20T21:45:45Z</time>
      </trkpt>
      <trkpt lat="57.97764" lon="-4.5604">
        <ele>78.57</ele>
        <time>2021-03-20T21:45:49Z</time>
      </trkpt>
      <trkpt lat="57.97747" lon="-4.558">
        <ele>84.76</ele>
        <time>2021-03-20T21:45:52Z</time>
      </trkpt>
      <trkpt lat="57.97741" lon="-4.55673">
        <ele>90.28</ele>
        <time>2021-03-20T21:45:55Z</time>
      </trkpt>
      <trkpt lat="57.9775" lon="-4.55532">
        <ele>95.92</ele>
        <time>2021-03-20T21:45:58Z</time>
      </trkpt>
      <trkpt lat="57.97775" lon="-4.5525">
        <ele>100.7</ele>
        <time>2021-03-20T21:46:02Z</time>
      </trkpt>
      <trkpt lat="57.97774" lon="-4.55168">
        <ele>100.86</ele>
        <time>2021-03-20T21:46:05Z</time>
      </trkpt>
      <trkpt lat="57.97769" lon="-4.55094">
        <ele>100.7</ele>
        <time>2021-03-20T21:46:08Z</time>
      </trkpt>
      <trkpt lat="57.97771" lon="-4.5507">
        <ele>100.77</ele>
        <time>2021-03-20T21:46:12Z</time>
      </trkpt>
      <trkpt lat="57.97778" lon="-4.55055">
        <ele>101.04</ele>
        <time>2021-03-20T21:46:15Z</time>
      </trkpt>
      <trkpt lat="57.97826" lon="-4.54998">
        <ele>104.88</ele>
        <time>2021-03-20T21:46:18Z</time>
      </trkpt>
      <trkpt lat="57.97837" lon="-4.54974">
        <ele>105.91</ele>
        <time>2021-03-20T21:46:22Z</time>
      </trkpt>
      <trkpt lat="57.97844" lon="-4.54949">
        <ele>105.96</ele>
        <time>2021-03-20T21:46:25Z</time>
      </trkpt>
      <trkpt lat="57.9785" lon="-4.54903">
        <ele>107.65</ele>
        <time>2021-03-20T21:46:28Z</time>
      </trkpt>
      <trkpt lat="57.97849" lon="-4.54885">
        <ele>107.97</ele>
        <time>2021-03-20T21:46:31Z</time>
      </trkpt>
      <trkpt lat="57.9784" lon="-4.54833">
        <ele>106.75</ele>
        <time>2021-03-20T21:46:35Z</time>
      </trkpt>
      <trkpt lat="57.97838" lon="-4.54805">
        <ele>106.18</ele>
        <time>2021-03-20T21:46:38Z</time>
      </trkpt>
      <trkpt lat="57.97838" lon="-4.54775">
        <ele>106.22</ele>
        <time>2021-03-20T21:46:41Z</time>
      </trkpt>
      <trkpt lat="57.97842" lon="-4.54702">
        <ele>106.11</ele>
        <time>2021-03-20T21:46:45Z</time>
      </trkpt>
      <trkpt lat="57.97839" lon="-4.54674">
        <ele>105.37</ele>
        <time>2021-03-20T21:46:48Z</time>
      </trkpt>
      <trkpt lat="57.97833" lon="-4.54639">
        <ele>105.03</ele>
        <time>2021-03-20T21:46:51Z</time>
      </trkpt>
      <trkpt lat="57.97817" lon="-4.5458">
        <ele>104.83</ele>
        <time>2021-03-20T21:46:54Z</time>
      </trkpt>
      <trkpt lat="57.97807" lon="-4.54516">
        <ele>104.72</ele>
        <time>2021-03-20T21:46:58Z</time>
      </trkpt>
      <trkpt lat="57.97803" lon="-4.5445">
        <ele>106.19</ele>
        <time>2021-03-20T21:47:01Z</time>
      </trkpt>
      <trkpt lat="57.97798" lon="-4.5431">
        <ele>107.57</ele>
        <time>2021-03-20T21:47:04Z</time>
      </trkpt>
      <trkpt lat="57.97796" lon="-4.54099">
        <ele>112.8</ele>
        <time>2021-03-20T21:47:08Z</time>
      </trkpt>
      <trkpt lat="57.97801" lon="-4.54034">
        <ele>114.14</ele>
        <time>2021-03-20T21:47:11Z</time>
      </trkpt>
      <trkpt lat="57.97817" lon="-4.539">
        <ele>116.35</ele>
        <time>2021-03-20T21:47:14Z</time>
      </trkpt>
      <trkpt lat="57.97837" lon="-4.53776">
        <ele>122.61</ele>
        <time>2021-03-20T21:47:18Z</time>
      </trkpt>
      <trkpt lat="57.97898" lon="-4.53531">
        <ele>120.06</ele>
        <time>2021-03-20T21:47:21Z</time>
      </trkpt>
      <trkpt lat="57.97907" lon="-4.53457">
        <ele>119.46</ele>
        <time>2021-03-20T21:47:24Z</time>
      </trkpt>
      <trkpt lat="57.97914" lon="-4.53343">
        <ele>119.84</ele>
        <time>2021-03-20T21:47:27Z</time>
      </trkpt>
      <trkpt lat="57.97917" lon="-4.53261">
        <ele>120.01</ele>
        <time>2021-03-20T21:47:31Z</time>
      </trkpt>
      <trkpt lat="57.97911" lon="-4.532">
        <ele>118.4</ele>
        <time>2021-03-20T21:47:34Z</time>
      </trkpt>
      <trkpt lat="57.979" lon="-4.53127">
        <ele>117.61</ele>
        <time>2021-03-20T21:47:37Z</time>
      </trkpt>
      <trkpt lat="57.97887" lon="-4.53058">
        <ele>117.92</ele>
        <time>2021-03-20T21:47:41Z</time>
      </trkpt>
      <trkpt lat="57.97865" lon="-4.52958">
        <ele>114.62</ele>
        <time>2021-03-20T21:47:44Z</time>
      </trkpt>
      <trkpt lat="57.97858" lon="-4.52937">
        <ele>113.87</ele>
        <time>2021-03-20T21:47:47Z</time>
      </trkpt>
      <trkpt lat="57.97849" lon="-4.5292">
        <ele>113.57</ele>
        <time>2021-03-20T21:47:51Z</time>
      </trkpt>
      <trkpt lat="57.97815" lon="-4.52892">
        <ele>113</ele>
        <time>2021-03-20T21:47:54Z</time>
      </trkpt>
      <trkpt lat="57.97811" lon="-4.5288">
        <ele>113</ele>
        <time>2021-03-20T21:47:57Z</time>
      </trkpt>
      <trkpt lat="57.9781" lon="-4.52844">
        <ele>113.62</ele>
        <time>2021-03-20T21:48:00Z</time>
      </trkpt>
      <trkpt lat="57.97817" lon="-4.52765">
        <ele>115.4</ele>
        <time>2021-03-20T21:48:04Z</time>
      </trkpt>
      <trkpt lat="57.97818" lon="-4.52692">
        <ele>116</ele>
        <time>2021-03-20T21:48:07Z</time>
      </trkpt>
      <trkpt lat="57.97817" lon="-4.52642">
        <ele>116</ele>
        <time>2021-03-20T21:48:10Z</time>
      </trkpt>
      <trkpt lat="57.9779" lon="-4.52391">
        <ele>124.71</ele>
        <time>2021-03-20T21:48:14Z</time>
      </trkpt>
      <trkpt lat="57.97784" lon="-4.52307">
        <ele>127.46</ele>
        <time>2021-03-20T21:48:17Z</time>
      </trkpt>
      <trkpt lat="57.9779" lon="-4.52258">
        <ele>129.59</ele>
        <time>2021-03-20T21:48:20Z</time>
      </trkpt>
      <trkpt lat="57.97819" lon="-4.52175">
        <ele>134.69</ele>
        <time>2021-03-20T21:48:23Z</time>
      </trkpt>
      <trkpt lat="57.97843" lon="-4.52139">
        <ele>136.66</ele>
        <time>2021-03-20T21:48:27Z</time>
      </trkpt>
      <trkpt lat="57.97916" lon="-4.52054">
        <ele>140.92</ele>
        <time>2021-03-20T21:48:30Z</time>
      </trkpt>
      <trkpt lat="57.97927" lon="-4.52034">
        <ele>141</ele>
        <time>2021-03-20T21:48:33Z</time>
      </trkpt>
      <trkpt lat="57.97935" lon="-4.52004">
        <ele>141.56</ele>
        <time>2021-03-20T21:48:37Z</time>
      </trkpt>
      <trkpt lat="57.97938" lon="-4.51961">
        <ele>143.16</ele>
        <time>2021-03-20T21:48:40Z</time>
      </trkpt>
      <trkpt lat="57.97932" lon="-4.51669">
        <ele>151</ele>
        <time>2021-03-20T21:48:43Z</time>
      </trkpt>
      <trkpt lat="57.97922" lon="-4.51507">
        <ele>154.79</ele>
        <time>2021-03-20T21:48:47Z</time>
      </trkpt>
      <trkpt lat="57.97932" lon="-4.51449">
        <ele>156.29</ele>
        <time>2021-03-20T21:48:50Z</time>
      </trkpt>
      <trkpt lat="57.9795" lon="-4.51402">
        <ele>157.53</ele>
        <time>2021-03-20T21:48:53Z</time>
      </trkpt>
      <trkpt lat="57.97978" lon="-4.51283">
        <ele>161.7</ele>
        <time>2021-03-20T21:48:56Z</time>
      </trkpt>
      <trkpt lat="57.97996" lon="-4.51152">
        <ele>164.15</ele>
        <time>2021-03-20T21:49:00Z</time>
      </trkpt>
      <trkpt lat="57.98006" lon="-4.5095">
        <ele>160.59</ele>
        <time>2021-03-20T21:49:03Z</time>
      </trkpt>
      <trkpt lat="57.98032" lon="-4.5083">
        <ele>162.95</ele>
        <time>2021-03-20T21:49:06Z</time>
      </trkpt>
      <trkpt lat="57.98054" lon="-4.50701">
        <ele>163.99</ele>
        <time>2021-03-20T21:49:10Z</time>
      </trkpt>
      <trkpt lat="57.98053" lon="-4.50563">
        <ele>166.08</ele>
        <time>2021-03-20T21:49:13Z</time>
      </trkpt>
      <trkpt lat="57.98027" lon="-4.50363">
        <ele>168.02</ele>
        <time>2021-03-20T21:49:16Z</time>
      </trkpt>
      <trkpt lat="57.98027" lon="-4.50293">
        <ele>169</ele>
        <time>2021-03-20T21:49:20Z</time>
      </trkpt>
      <trkpt lat="57.98048" lon="-4.50174">
        <ele>168.89</ele>
        <time>2021-03-20T21:49:23Z</time>
      </trkpt>
      <trkpt lat="57.98141" lon="-4.49765">
        <ele>171.08</ele>
        <time>2021-03-20T21:49:26Z</time>
      </trkpt>
      <trkpt lat="57.98361" lon="-4.48997">
        <ele>184</ele>
        <time>2021-03-20T21:49:29Z</time>
      </trkpt>
      <trkpt lat="57.9842" lon="-4.4882">
        <ele>182.88</ele>
        <time>2021-03-20T21:49:33Z</time>
      </trkpt>
      <trkpt lat="57.98541" lon="-4.48553">
        <ele>183.56</ele>
        <time>2021-03-20T21:49:36Z</time>
      </trkpt>
      <trkpt lat="57.98582" lon="-4.48436">
        <ele>185.1</ele>
        <time>2021-03-20T21:49:39Z</time>
      </trkpt>
      <trkpt lat="57.986" lon="-4.48305">
        <ele>184.99</ele>
        <time>2021-03-20T21:49:43Z</time>
      </trkpt>
      <trkpt lat="57.98641" lon="-4.47539">
        <ele>178.07</ele>
        <time>2021-03-20T21:49:46Z</time>
      </trkpt>
      <trkpt lat="57.98654" lon="-4.47329">
        <ele>170.35</ele>
        <time>2021-03-20T21:49:49Z</time>
      </trkpt>
      <trkpt lat="57.98656" lon="-4.47189">
        <ele>170.09</ele>
        <time>2021-03-20T21:49:53Z</time>
      </trkpt>
      <trkpt lat="57.98651" lon="-4.47056">
        <ele>169.7</ele>
        <time>2021-03-20T21:49:56Z</time>
      </trkpt>
      <trkpt lat="57.98651" lon="-4.46998">
        <ele>168.67</ele>
        <time>2021-03-20T21:49:59Z</time>
      </trkpt>
      <trkpt lat="57.98658" lon="-4.46956">
        <ele>167.72</ele>
        <time>2021-03-20T21:50:02Z</time>
      </trkpt>
      <trkpt lat="57.98665" lon="-4.46931">
        <ele>167.07</ele>
        <time>2021-03-20T21:50:06Z</time>
      </trkpt>
      <trkpt lat="57.98686" lon="-4.46867">
        <ele>167.71</ele>
        <time>2021-03-20T21:50:09Z</time>
      </trkpt>
      <trkpt lat="57.9871" lon="-4.46833">
        <ele>169.08</ele>
        <time>2021-03-20T21:50:12Z</time>
      </trkpt>
      <trkpt lat="57.98738" lon="-4.46799">
        <ele>170.55</ele>
        <time>2021-03-20T21:50:16Z</time>
      </trkpt>
      <trkpt lat="57.98799" lon="-4.4673">
        <ele>171.21</ele>
        <time>2021-03-20T21:50:19Z</time>
      </trkpt>
      <trkpt lat="57.98862" lon="-4.46652">
        <ele>169.49</ele>
        <time>2021-03-20T21:50:22Z</time>
      </trkpt>
      <trkpt lat="57.98891" lon="-4.46606">
        <ele>169.05</ele>
        <time>2021-03-20T21:50:25Z</time>
      </trkpt>
      <trkpt lat="57.98917" lon="-4.4655">
        <ele>169.9</ele>
        <time>2021-03-20T21:50:29Z</time>
      </trkpt>
      <trkpt lat="57.98959" lon="-4.46432">
        <ele>169.37</ele>
        <time>2021-03-20T21:50:32Z</time>
      </trkpt>
      <trkpt lat="57.98971" lon="-4.46369">
        <ele>167.2</ele>
        <time>2021-03-20T21:50:35Z</time>
      </trkpt>
      <trkpt lat="57.98979" lon="-4.46302">
        <ele>166.05</ele>
        <time>2021-03-20T21:50:39Z</time>
      </trkpt>
      <trkpt lat="57.98992" lon="-4.46238">
        <ele>164.39</ele>
        <time>2021-03-20T21:50:42Z</time>
      </trkpt>
      <trkpt lat="57.99059" lon="-4.46077">
        <ele>162.68</ele>
        <time>2021-03-20T21:50:45Z</time>
      </trkpt>
      <trkpt lat="57.99084" lon="-4.46028">
        <ele>161.02</ele>
        <time>2021-03-20T21:50:49Z</time>
      </trkpt>
      <trkpt lat="57.99112" lon="-4.45986">
        <ele>160.02</ele>
        <time>2021-03-20T21:50:52Z</time>
      </trkpt>
      <trkpt lat="57.99143" lon="-4.45951">
        <ele>157.96</ele>
        <time>2021-03-20T21:50:55Z</time>
      </trkpt>
      <trkpt lat="57.99305" lon="-4.45781">
        <ele>151.2</ele>
        <time>2021-03-20T21:50:58Z</time>
      </trkpt>
      <trkpt lat="57.99361" lon="-4.45692">
        <ele>148.87</ele>
        <time>2021-03-20T21:51:02Z</time>
      </trkpt>
      <trkpt lat="57.99453" lon="-4.45576">
        <ele>140.79</ele>
        <time>2021-03-20T21:51:05Z</time>
      </trkpt>
      <trkpt lat="57.99507" lon="-4.45482">
        <ele>137.35</ele>
        <time>2021-03-20T21:51:08Z</time>
      </trkpt>
      <trkpt lat="57.99601" lon="-4.45278">
        <ele>136.54</ele>
        <time>2021-03-20T21:51:12Z</time>
      </trkpt>
      <trkpt lat="57.9964" lon="-4.45174">
        <ele>134.58</ele>
        <time>2021-03-20T21:51:15Z</time>
      </trkpt>
      <trkpt lat="57.99648" lon="-4.45146">
        <ele>133.59</ele>
        <time>2021-03-20T21:51:18Z</time>
      </trkpt>
      <trkpt lat="57.99654" lon="-4.45118">
        <ele>132.45</ele>
        <time>2021-03-20T21:51:22Z</time>
      </trkpt>
      <trkpt lat="57.99657" lon="-4.45079">
        <ele>131.77</ele>
        <time>2021-03-20T21:51:25Z</time>
      </trkpt>
      <trkpt lat="57.99659" lon="-4.44938">
        <ele>134.96</ele>
        <time>2021-03-20T21:51:28Z</time>
      </trkpt>
      <trkpt lat="57.99665" lon="-4.44822">
        <ele>137</ele>
        <time>2021-03-20T21:51:31Z</time>
      </trkpt>
      <trkpt lat="57.99668" lon="-4.4479">
        <ele>137.09</ele>
        <time>2021-03-20T21:51:35Z</time>
      </trkpt>
      <trkpt lat="57.99672" lon="-4.44769">
        <ele>137.18</ele>
        <time>2021-03-20T21:51:38Z</time>
      </trkpt>
      <trkpt lat="57.9974" lon="-4.44462">
        <ele>141.88</ele>
        <time>2021-03-20T21:51:41Z</time>
      </trkpt>
      <trkpt lat="57.99748" lon="-4.44415">
        <ele>141.89</ele>
        <time>2021-03-20T21:51:45Z</time>
      </trkpt>
      <trkpt lat="57.9983" lon="-4.44051">
        <ele>140</ele>
        <time>2021-03-20T21:51:48Z</time>
      </trkpt>
      <trkpt lat="57.99855" lon="-4.43928">
        <ele>143.33</ele>
        <time>2021-03-20T21:51:51Z</time>
      </trkpt>
      <trkpt lat="57.99864" lon="-4.4387">
        <ele>144.19</ele>
        <time>2021-03-20T21:51:55Z</time>
      </trkpt>
      <trkpt lat="57.99865" lon="-4.43806">
        <ele>143.42</ele>
        <time>2021-03-20T21:51:58Z</time>
      </trkpt>
      <trkpt lat="57.99862" lon="-4.43686">
        <ele>141.68</ele>
        <time>2021-03-20T21:52:01Z</time>
      </trkpt>
      <trkpt lat="57.99872" lon="-4.43572">
        <ele>137.95</ele>
        <time>2021-03-20T21:52:04Z</time>
      </trkpt>
      <trkpt lat="57.99881" lon="-4.43517">
        <ele>138.08</ele>
        <time>2021-03-20T21:52:08Z</time>
      </trkpt>
      <trkpt lat="57.99897" lon="-4.43469">
        <ele>139.79</ele>
        <time>2021-03-20T21:52:11Z</time>
      </trkpt>
      <trkpt lat="57.99919" lon="-4.43433">
        <ele>138.91</ele>
        <time>2021-03-20T21:52:14Z</time>
      </trkpt>
      <trkpt lat="57.99945" lon="-4.43399">
        <ele>137.98</ele>
        <time>2021-03-20T21:52:18Z</time>
      </trkpt>
      <trkpt lat="57.99972" lon="-4.4337">
        <ele>136.33</ele>
        <time>2021-03-20T21:52:21Z</time>
      </trkpt>
      <trkpt lat="58" lon="-4.43351">
        <ele>136.62</ele>
        <time>2021-03-20T21:52:24Z</time>
      </trkpt>
      <trkpt lat="58.00058" lon="-4.43331">
        <ele>138.03</ele>
        <time>2021-03-20T21:52:27Z</time>
      </trkpt>
      <trkpt lat="58.00085" lon="-4.43311">
        <ele>137.69</ele>
        <time>2021-03-20T21:52:31Z</time>
      </trkpt>
      <trkpt lat="58.00133" lon="-4.43253">
        <ele>131.42</ele>
        <time>2021-03-20T21:52:34Z</time>
      </trkpt>
      <trkpt lat="58.00159" lon="-4.43232">
        <ele>127.6</ele>
        <time>2021-03-20T21:52:37Z</time>
      </trkpt>
      <trkpt lat="58.00187" lon="-4.43221">
        <ele>122.99</ele>
        <time>2021-03-20T21:52:41Z</time>
      </trkpt>
      <trkpt lat="58.00216" lon="-4.43202">
        <ele>116.87</ele>
        <time>2021-03-20T21:52:44Z</time>
      </trkpt>
      <trkpt lat="58.00243" lon="-4.43176">
        <ele>109.82</ele>
        <time>2021-03-20T21:52:47Z</time>
      </trkpt>
      <trkpt lat="58.00333" lon="-4.43107">
        <ele>106.85</ele>
        <time>2021-03-20T21:52:51Z</time>
      </trkpt>
      <trkpt lat="58.00366" lon="-4.43076">
        <ele>106.88</ele>
        <time>2021-03-20T21:52:54Z</time>
      </trkpt>
      <trkpt lat="58.00415" lon="-4.43014">
        <ele>106.44</ele>
        <time>2021-03-20T21:52:57Z</time>
      </trkpt>
      <trkpt lat="58.00438" lon="-4.42996">
        <ele>105.86</ele>
        <time>2021-03-20T21:53:00Z</time>
      </trkpt>
      <trkpt lat="58.00491" lon="-4.42992">
        <ele>105.48</ele>
        <time>2021-03-20T21:53:04Z</time>
      </trkpt>
      <trkpt lat="58.00514" lon="-4.42981">
        <ele>105.66</ele>
        <time>2021-03-20T21:53:07Z</time>
      </trkpt>
      <trkpt lat="58.00597" lon="-4.42926">
        <ele>106</ele>
        <time>2021-03-20T21:53:10Z</time>
      </trkpt>
      <trkpt lat="58.00652" lon="-4.42882">
        <ele>106</ele>
        <time>2021-03-20T21:53:14Z</time>
      </trkpt>
      <trkpt lat="58.0067" lon="-4.42852">
        <ele>106.13</ele>
        <time>2021-03-20T21:53:17Z</time>
      </trkpt>
      <trkpt lat="58.00684" lon="-4.42811">
        <ele>106.62</ele>
        <time>2021-03-20T21:53:20Z</time>
      </trkpt>
      <trkpt lat="58.00687" lon="-4.42791">
        <ele>107.15</ele>
        <time>2021-03-20T21:53:24Z</time>
      </trkpt>
      <trkpt lat="58.00689" lon="-4.42757">
        <ele>107.64</ele>
        <time>2021-03-20T21:53:27Z</time>
      </trkpt>
      <trkpt lat="58.00689" lon="-4.42718">
        <ele>107.6</ele>
        <time>2021-03-20T21:53:30Z</time>
      </trkpt>
      <trkpt lat="58.00687" lon="-4.42683">
        <ele>107.56</ele>
        <time>2021-03-20T21:53:33Z</time>
      </trkpt>
      <trkpt lat="58.0068" lon="-4.42632">
        <ele>107.72</ele>
        <time>2021-03-20T21:53:37Z</time>
      </trkpt>
      <trkpt lat="58.00661" lon="-4.42521">
        <ele>110.04</ele>
        <time>2021-03-20T21:53:40Z</time>
      </trkpt>
      <trkpt lat="58.0066" lon="-4.42493">
        <ele>110.93</ele>
        <time>2021-03-20T21:53:43Z</time>
      </trkpt>
      <trkpt lat="58.00662" lon="-4.42463">
        <ele>112.03</ele>
        <time>2021-03-20T21:53:47Z</time>
      </trkpt>
      <trkpt lat="58.00668" lon="-4.42435">
        <ele>113.08</ele>
        <time>2021-03-20T21:53:50Z</time>
      </trkpt>
      <trkpt lat="58.00678" lon="-4.42406">
        <ele>114.18</ele>
        <time>2021-03-20T21:53:53Z</time>
      </trkpt>
      <trkpt lat="58.00867" lon="-4.42021">
        <ele>119.44</ele>
        <time>2021-03-20T21:53:56Z</time>
      </trkpt>
      <trkpt lat="58.00881" lon="-4.41974">
        <ele>120.72</ele>
        <time>2021-03-20T21:54:00Z</time>
      </trkpt>
      <trkpt lat="58.00894" lon="-4.41923">
        <ele>120</ele>
        <time>2021-03-20T21:54:03Z</time>
      </trkpt>
      <trkpt lat="58.00938" lon="-4.41702">
        <ele>118.24</ele>
        <time>2021-03-20T21:54:06Z</time>
      </trkpt>
      <trkpt lat="58.01079" lon="-4.41084">
        <ele>107</ele>
        <time>2021-03-20T21:54:10Z</time>
      </trkpt>
      <trkpt lat="58.01095" lon="-4.40971">
        <ele>106.39</ele>
        <time>2021-03-20T21:54:13Z</time>
      </trkpt>
      <trkpt lat="58.01099" lon="-4.40794">
        <ele>103.75</ele>
        <time>2021-03-20T21:54:16Z</time>
      </trkpt>
      <trkpt lat="58.01094" lon="-4.40586">
        <ele>101.37</ele>
        <time>2021-03-20T21:54:20Z</time>
      </trkpt>
      <trkpt lat="58.01095" lon="-4.40558">
        <ele>100.53</ele>
        <time>2021-03-20T21:54:23Z</time>
      </trkpt>
      <trkpt lat="58.01101" lon="-4.40526">
        <ele>99.54</ele>
        <time>2021-03-20T21:54:26Z</time>
      </trkpt>
      <trkpt lat="58.01123" lon="-4.40429">
        <ele>95.87</ele>
        <time>2021-03-20T21:54:29Z</time>
      </trkpt>
      <trkpt lat="58.01131" lon="-4.40399">
        <ele>94.65</ele>
        <time>2021-03-20T21:54:33Z</time>
      </trkpt>
      <trkpt lat="58.01141" lon="-4.40376">
        <ele>93.55</ele>
        <time>2021-03-20T21:54:36Z</time>
      </trkpt>
      <trkpt lat="58.01168" lon="-4.4034">
        <ele>92.23</ele>
        <time>2021-03-20T21:54:39Z</time>
      </trkpt>
      <trkpt lat="58.01195" lon="-4.40326">
        <ele>91.74</ele>
        <time>2021-03-20T21:54:43Z</time>
      </trkpt>
      <trkpt lat="58.01213" lon="-4.40325">
        <ele>91.01</ele>
        <time>2021-03-20T21:54:46Z</time>
      </trkpt>
      <trkpt lat="58.01234" lon="-4.40334">
        <ele>90.2</ele>
        <time>2021-03-20T21:54:49Z</time>
      </trkpt>
      <trkpt lat="58.01425" lon="-4.40435">
        <ele>87.71</ele>
        <time>2021-03-20T21:54:53Z</time>
      </trkpt>
      <trkpt lat="58.01509" lon="-4.405">
        <ele>88</ele>
        <time>2021-03-20T21:54:56Z</time>
      </trkpt>
      <trkpt lat="58.01674" lon="-4.40648">
        <ele>94.75</ele>
        <time>2021-03-20T21:54:59Z</time>
      </trkpt>
      <trkpt lat="58.01688" lon="-4.40655">
        <ele>94.23</ele>
        <time>2021-03-20T21:55:02Z</time>
      </trkpt>
      <trkpt lat="58.01703" lon="-4.40656">
        <ele>93.4</ele>
        <time>2021-03-20T21:55:06Z</time>
      </trkpt>
      <trkpt lat="58.01719" lon="-4.40651">
        <ele>92.24</ele>
        <time>2021-03-20T21:55:09Z</time>
      </trkpt>
      <trkpt lat="58.01731" lon="-4.40641">
        <ele>92</ele>
        <time>2021-03-20T21:55:12Z</time>
      </trkpt>
      <trkpt lat="58.01746" lon="-4.40618">
        <ele>92.11</ele>
        <time>2021-03-20T21:55:16Z</time>
      </trkpt>
      <trkpt lat="58.01779" lon="-4.40552">
        <ele>88.97</ele>
        <time>2021-03-20T21:55:19Z</time>
      </trkpt>
      <trkpt lat="58.01795" lon="-4.40525">
        <ele>88.28</ele>
        <time>2021-03-20T21:55:22Z</time>
      </trkpt>
      <trkpt lat="58.0181" lon="-4.40508">
        <ele>87.43</ele>
        <time>2021-03-20T21:55:26Z</time>
      </trkpt>
      <trkpt lat="58.01823" lon="-4.40496">
        <ele>87.62</ele>
        <time>2021-03-20T21:55:29Z</time>
      </trkpt>
      <trkpt lat="58.01849" lon="-4.40485">
        <ele>88</ele>
        <time>2021-03-20T21:55:32Z</time>
      </trkpt>
      <trkpt lat="58.01873" lon="-4.40486">
        <ele>88.22</ele>
        <time>2021-03-20T21:55:35Z</time>
      </trkpt>
      <trkpt lat="58.0201" lon="-4.40515">
        <ele>86.54</ele>
        <time>2021-03-20T21:55:39Z</time>
      </trkpt>
      <trkpt lat="58.0202" lon="-4.40507">
        <ele>86.27</ele>
        <time>2021-03-20T21:55:42Z</time>
      </trkpt>
      <trkpt lat="58.02026" lon="-4.40499">
        <ele>86</ele>
        <time>2021-03-20T21:55:45Z</time>
      </trkpt>
      <trkpt lat="58.02031" lon="-4.40485">
        <ele>85.89</ele>
        <time>2021-03-20T21:55:49Z</time>
      </trkpt>
      <trkpt lat="58.02047" lon="-4.40399">
        <ele>86.96</ele>
        <time>2021-03-20T21:55:52Z</time>
      </trkpt>
      <trkpt lat="58.02136" lon="-4.4042">
        <ele>86.76</ele>
        <time>2021-03-20T21:56:01Z</time>
      </trkpt>
      <trkpt lat="58.02156" lon="-4.40417">
        <ele>86.38</ele>
        <time>2021-03-20T21:56:10Z</time>
      </trkpt>
      <trkpt lat="58.02185" lon="-4.40403">
        <ele>86.49</ele>
        <time>2021-03-20T21:56:19Z</time>
      </trkpt>
      <trkpt lat="58.02219" lon="-4.40381">
        <ele>87.03</ele>
        <time>2021-03-20T21:56:27Z</time>
      </trkpt>
      <trkpt lat="58.02265" lon="-4.40343">
        <ele>86.45</ele>
        <time>2021-03-20T21:56:36Z</time>
      </trkpt>
      <trkpt lat="58.02427" lon="-4.40201">
        <ele>86.29</ele>
        <time>2021-03-20T21:56:45Z</time>
      </trkpt>
      <trkpt lat="58.0241" lon="-4.40116">
        <ele>88.94</ele>
        <time>2021-03-20T21:56:52Z</time>
      </trkpt>
      <trkpt lat="58.02398" lon="-4.40032">
        <ele>91.3</ele>
        <time>2021-03-20T21:56:58Z</time>
      </trkpt>
      <trkpt lat="58.02379" lon="-4.3994">
        <ele>93.37</ele>
        <time>2021-03-20T21:57:04Z</time>
      </trkpt>
      <trkpt lat="58.0243" lon="-4.39898">
        <ele>94.43</ele>
        <time>2021-03-20T21:57:08Z</time>
      </trkpt>
      <trkpt lat="58.02455" lon="-4.39868">
        <ele>96.64</ele>
        <time>2021-03-20T21:57:12Z</time>
      </trkpt>
      <trkpt lat="58.02468" lon="-4.39865">
        <ele>97.59</ele>
        <time>2021-03-20T21:57:16Z</time>
      </trkpt>
      <trkpt lat="58.02475" lon="-4.39868">
        <ele>97.77</ele>
        <time>2021-03-20T21:57:20Z</time>
      </trkpt>
      <trkpt lat="58.02484" lon="-4.39885">
        <ele>97.52</ele>
        <time>2021-03-20T21:57:24Z</time>
      </trkpt>
      <trkpt lat="58.0251" lon="-4.39988">
        <ele>96.72</ele>
        <time>2021-03-20T21:57:28Z</time>
      </trkpt>
      <trkpt lat="58.02539" lon="-4.40015">
        <ele>96.91</ele>
        <time>2021-03-20T21:57:35Z</time>
      </trkpt>
      <trkpt lat="58.02539" lon="-4.40015">
        <ele>96.91</ele>
        <time>2021-03-20T21:57:35Z</time>
      </trkpt>
      <trkpt lat="58.0251" lon="-4.39988">
        <ele>96.72</ele>
        <time>2021-03-20T21:57:43Z</time>
      </trkpt>
      <trkpt lat="58.02484" lon="-4.39885">
        <ele>97.52</ele>
        <time>2021-03-20T21:57:47Z</time>
      </trkpt>
      <trkpt lat="58.02475" lon="-4.39868">
        <ele>97.77</ele>
        <time>2021-03-20T21:57:51Z</time>
      </trkpt>
      <trkpt lat="58.02468" lon="-4.39865">
        <ele>97.59</ele>
        <time>2021-03-20T21:57:55Z</time>
      </trkpt>
      <trkpt lat="58.02455" lon="-4.39868">
        <ele>96.64</ele>
        <time>2021-03-20T21:57:59Z</time>
      </trkpt>
      <trkpt lat="58.0243" lon="-4.39898">
        <ele>94.43</ele>
        <time>2021-03-20T21:58:02Z</time>
      </trkpt>
      <trkpt lat="58.02379" lon="-4.3994">
        <ele>93.37</ele>
        <time>2021-03-20T21:58:06Z</time>
      </trkpt>
      <trkpt lat="58.02398" lon="-4.40032">
        <ele>91.3</ele>
        <time>2021-03-20T21:58:13Z</time>
      </trkpt>
      <trkpt lat="58.0241" lon="-4.40116">
        <ele>88.94</ele>
        <time>2021-03-20T21:58:19Z</time>
      </trkpt>
      <trkpt lat="58.02427" lon="-4.40201">
        <ele>86.29</ele>
        <time>2021-03-20T21:58:26Z</time>
      </trkpt>
      <trkpt lat="58.02455" lon="-4.40184">
        <ele>85.72</ele>
        <time>2021-03-20T21:58:31Z</time>
      </trkpt>
      <trkpt lat="58.02513" lon="-4.40162">
        <ele>86.73</ele>
        <time>2021-03-20T21:58:36Z</time>
      </trkpt>
      <trkpt lat="58.02624" lon="-4.40139">
        <ele>87</ele>
        <time>2021-03-20T21:58:41Z</time>
      </trkpt>
      <trkpt lat="58.02636" lon="-4.40139">
        <ele>87.01</ele>
        <time>2021-03-20T21:58:46Z</time>
      </trkpt>
      <trkpt lat="58.02645" lon="-4.40143">
        <ele>87.28</ele>
        <time>2021-03-20T21:58:51Z</time>
      </trkpt>
      <trkpt lat="58.02653" lon="-4.40153">
        <ele>87.52</ele>
        <time>2021-03-20T21:58:56Z</time>
      </trkpt>
      <trkpt lat="58.0266" lon="-4.40167">
        <ele>87.49</ele>
        <time>2021-03-20T21:59:01Z</time>
      </trkpt>
      <trkpt lat="58.02671" lon="-4.40204">
        <ele>88.14</ele>
        <time>2021-03-20T21:59:06Z</time>
      </trkpt>
      <trkpt lat="58.02687" lon="-4.40278">
        <ele>88.75</ele>
        <time>2021-03-20T21:59:11Z</time>
      </trkpt>
      <trkpt lat="58.02705" lon="-4.40322">
        <ele>88.74</ele>
        <time>2021-03-20T21:59:16Z</time>
      </trkpt>
      <trkpt lat="58.02771" lon="-4.40432">
        <ele>89.94</ele>
        <time>2021-03-20T21:59:21Z</time>
      </trkpt>
      <trkpt lat="58.0279" lon="-4.4048">
        <ele>90.16</ele>
        <time>2021-03-20T21:59:27Z</time>
      </trkpt>
      <trkpt lat="58.02802" lon="-4.4052">
        <ele>90.79</ele>
        <time>2021-03-20T21:59:32Z</time>
      </trkpt>
      <trkpt lat="58.02814" lon="-4.4058">
        <ele>91.68</ele>
        <time>2021-03-20T21:59:37Z</time>
      </trkpt>
      <trkpt lat="58.02847" lon="-4.40774">
        <ele>91.13</ele>
        <time>2021-03-20T21:59:42Z</time>
      </trkpt>
      <trkpt lat="58.02856" lon="-4.40814">
        <ele>90.31</ele>
        <time>2021-03-20T21:59:47Z</time>
      </trkpt>
      <trkpt lat="58.02867" lon="-4.40854">
        <ele>89.89</ele>
        <time>2021-03-20T21:59:52Z</time>
      </trkpt>
      <trkpt lat="58.029" lon="-4.4094">
        <ele>91.77</ele>
        <time>2021-03-20T21:59:57Z</time>
      </trkpt>
      <trkpt lat="58.03015" lon="-4.41163">
        <ele>100.12</ele>
        <time>2021-03-20T22:00:02Z</time>
      </trkpt>
      <trkpt lat="58.03037" lon="-4.41212">
        <ele>100.45</ele>
        <time>2021-03-20T22:00:07Z</time>
      </trkpt>
      <trkpt lat="58.03058" lon="-4.41295">
        <ele>100.58</ele>
        <time>2021-03-20T22:00:12Z</time>
      </trkpt>
      <trkpt lat="58.03082" lon="-4.41461">
        <ele>100.23</ele>
        <time>2021-03-20T22:00:17Z</time>
      </trkpt>
      <trkpt lat="58.03105" lon="-4.41533">
        <ele>99.76</ele>
        <time>2021-03-20T22:00:22Z</time>
      </trkpt>
      <trkpt lat="58.0316" lon="-4.41652">
        <ele>98.58</ele>
        <time>2021-03-20T22:00:27Z</time>
      </trkpt>
      <trkpt lat="58.03176" lon="-4.41692">
        <ele>99.51</ele>
        <time>2021-03-20T22:00:33Z</time>
      </trkpt>
      <trkpt lat="58.03203" lon="-4.41826">
        <ele>101.28</ele>
        <time>2021-03-20T22:00:38Z</time>
      </trkpt>
      <trkpt lat="58.03216" lon="-4.41882">
        <ele>100.23</ele>
        <time>2021-03-20T22:00:43Z</time>
      </trkpt>
      <trkpt lat="58.03235" lon="-4.41926">
        <ele>99.75</ele>
        <time>2021-03-20T22:00:48Z</time>
      </trkpt>
      <trkpt lat="58.03385" lon="-4.42142">
        <ele>100.48</ele>
        <time>2021-03-20T22:00:53Z</time>
      </trkpt>
      <trkpt lat="58.0342" lon="-4.42186">
        <ele>99.93</ele>
        <time>2021-03-20T22:00:58Z</time>
      </trkpt>
      <trkpt lat="58.03462" lon="-4.42225">
        <ele>102.14</ele>
        <time>2021-03-20T22:01:03Z</time>
      </trkpt>
      <trkpt lat="58.03526" lon="-4.42276">
        <ele>104.93</ele>
        <time>2021-03-20T22:01:08Z</time>
      </trkpt>
      <trkpt lat="58.03563" lon="-4.42314">
        <ele>105</ele>
        <time>2021-03-20T22:01:13Z</time>
      </trkpt>
      <trkpt lat="58.03615" lon="-4.42356">
        <ele>105.11</ele>
        <time>2021-03-20T22:01:18Z</time>
      </trkpt>
      <trkpt lat="58.03671" lon="-4.42408">
        <ele>105.88</ele>
        <time>2021-03-20T22:01:23Z</time>
      </trkpt>
      <trkpt lat="58.03766" lon="-4.42469">
        <ele>103.39</ele>
        <time>2021-03-20T22:01:28Z</time>
      </trkpt>
      <trkpt lat="58.03837" lon="-4.42499">
        <ele>105.26</ele>
        <time>2021-03-20T22:01:33Z</time>
      </trkpt>
      <trkpt lat="58.03865" lon="-4.42507">
        <ele>106.44</ele>
        <time>2021-03-20T22:01:38Z</time>
      </trkpt>
      <trkpt lat="58.03907" lon="-4.42501">
        <ele>107.96</ele>
        <time>2021-03-20T22:01:44Z</time>
      </trkpt>
      <trkpt lat="58.04101" lon="-4.42455">
        <ele>106.6</ele>
        <time>2021-03-20T22:01:49Z</time>
      </trkpt>
      <trkpt lat="58.04258" lon="-4.42412">
        <ele>107.18</ele>
        <time>2021-03-20T22:01:54Z</time>
      </trkpt>
      <trkpt lat="58.04324" lon="-4.4239">
        <ele>107.22</ele>
        <time>2021-03-20T22:01:59Z</time>
      </trkpt>
      <trkpt lat="58.04376" lon="-4.42367">
        <ele>110.16</ele>
        <time>2021-03-20T22:02:04Z</time>
      </trkpt>
      <trkpt lat="58.04502" lon="-4.42279">
        <ele>110.11</ele>
        <time>2021-03-20T22:02:09Z</time>
      </trkpt>
      <trkpt lat="58.04548" lon="-4.42255">
        <ele>110.19</ele>
        <time>2021-03-20T22:02:14Z</time>
      </trkpt>
      <trkpt lat="58.04645" lon="-4.42216">
        <ele>111.58</ele>
        <time>2021-03-20T22:02:19Z</time>
      </trkpt>
      <trkpt lat="58.04733" lon="-4.42185">
        <ele>107.56</ele>
        <time>2021-03-20T22:02:24Z</time>
      </trkpt>
      <trkpt lat="58.04954" lon="-4.42112">
        <ele>97.99</ele>
        <time>2021-03-20T22:02:29Z</time>
      </trkpt>
      <trkpt lat="58.05459" lon="-4.41954">
        <ele>99.5</ele>
        <time>2021-03-20T22:02:34Z</time>
      </trkpt>
      <trkpt lat="58.05562" lon="-4.41917">
        <ele>100</ele>
        <time>2021-03-20T22:02:39Z</time>
      </trkpt>
      <trkpt lat="58.05578" lon="-4.42179">
        <ele>95.91</ele>
        <time>2021-03-20T22:02:47Z</time>
      </trkpt>
      <trkpt lat="58.05592" lon="-4.42369">
        <ele>95</ele>
        <time>2021-03-20T22:02:55Z</time>
      </trkpt>
      <trkpt lat="58.056" lon="-4.42435">
        <ele>95</ele>
        <time>2021-03-20T22:03:03Z</time>
      </trkpt>
      <trkpt lat="58.05685" lon="-4.42888">
        <ele>98.38</ele>
        <time>2021-03-20T22:03:10Z</time>
      </trkpt>
      <trkpt lat="58.05702" lon="-4.42958">
        <ele>96.51</ele>
        <time>2021-03-20T22:03:18Z</time>
      </trkpt>
      <trkpt lat="58.05802" lon="-4.43158">
        <ele>96.78</ele>
        <time>2021-03-20T22:03:26Z</time>
      </trkpt>
      <trkpt lat="58.05828" lon="-4.43237">
        <ele>97.37</ele>
        <time>2021-03-20T22:03:34Z</time>
      </trkpt>
      <trkpt lat="58.05829" lon="-4.43256">
        <ele>97</ele>
        <time>2021-03-20T22:03:41Z</time>
      </trkpt>
      <trkpt lat="58.05821" lon="-4.43282">
        <ele>97</ele>
        <time>2021-03-20T22:03:49Z</time>
      </trkpt>
      <trkpt lat="58.05692" lon="-4.43436">
        <ele>94.9</ele>
        <time>2021-03-20T22:03:57Z</time>
      </trkpt>
      <trkpt lat="58.05675" lon="-4.43475">
        <ele>95.36</ele>
        <time>2021-03-20T22:04:05Z</time>
      </trkpt>
      <trkpt lat="58.05662" lon="-4.43519">
        <ele>95.82</ele>
        <time>2021-03-20T22:04:13Z</time>
      </trkpt>
      <trkpt lat="58.0565" lon="-4.43615">
        <ele>95.06</ele>
        <time>2021-03-20T22:04:20Z</time>
      </trkpt>
      <trkpt lat="58.05644" lon="-4.43705">
        <ele>96</ele>
        <time>2021-03-20T22:04:28Z</time>
      </trkpt>
      <trkpt lat="58.05648" lon="-4.43775">
        <ele>96</ele>
        <time>2021-03-20T22:04:36Z</time>
      </trkpt>
      <trkpt lat="58.05667" lon="-4.43844">
        <ele>95.62</ele>
        <time>2021-03-20T22:04:44Z</time>
      </trkpt>
      <trkpt lat="58.05711" lon="-4.43923">
        <ele>96.6</ele>
        <time>2021-03-20T22:04:51Z</time>
      </trkpt>
      <trkpt lat="58.05922" lon="-4.44258">
        <ele>101.18</ele>
        <time>2021-03-20T22:04:59Z</time>
      </trkpt>
      <trkpt lat="58.06038" lon="-4.44422">
        <ele>102.35</ele>
        <time>2021-03-20T22:05:07Z</time>
      </trkpt>
      <trkpt lat="58.06351" lon="-4.44762">
        <ele>106.58</ele>
        <time>2021-03-20T22:05:15Z</time>
      </trkpt>
      <trkpt lat="58.06507" lon="-4.4494">
        <ele>107.09</ele>
        <time>2021-03-20T22:05:22Z</time>
      </trkpt>
      <trkpt lat="58.06671" lon="-4.45181">
        <ele>105.14</ele>
        <time>2021-03-20T22:05:30Z</time>
      </trkpt>
      <trkpt lat="58.06813" lon="-4.45407">
        <ele>104.01</ele>
        <time>2021-03-20T22:05:38Z</time>
      </trkpt>
      <trkpt lat="58.06969" lon="-4.4567">
        <ele>101.54</ele>
        <time>2021-03-20T22:05:46Z</time>
      </trkpt>
      <trkpt lat="58.07106" lon="-4.45907">
        <ele>103.21</ele>
        <time>2021-03-20T22:05:54Z</time>
      </trkpt>
      <trkpt lat="58.07154" lon="-4.45979">
        <ele>104.3</ele>
        <time>2021-03-20T22:06:01Z</time>
      </trkpt>
      <trkpt lat="58.0726" lon="-4.46094">
        <ele>106.36</ele>
        <time>2021-03-20T22:06:09Z</time>
      </trkpt>
      <trkpt lat="58.0736" lon="-4.46233">
        <ele>106.13</ele>
        <time>2021-03-20T22:06:17Z</time>
      </trkpt>
      <trkpt lat="58.07417" lon="-4.46383">
        <ele>104.43</ele>
        <time>2021-03-20T22:06:25Z</time>
      </trkpt>
      <trkpt lat="58.07444" lon="-4.46449">
        <ele>101.56</ele>
        <time>2021-03-20T22:06:32Z</time>
      </trkpt>
      <trkpt lat="58.07494" lon="-4.46523">
        <ele>100.72</ele>
        <time>2021-03-20T22:06:40Z</time>
      </trkpt>
      <trkpt lat="58.07652" lon="-4.46837">
        <ele>96.88</ele>
        <time>2021-03-20T22:06:48Z</time>
      </trkpt>
      <trkpt lat="58.07751" lon="-4.46962">
        <ele>96.36</ele>
        <time>2021-03-20T22:06:56Z</time>
      </trkpt>
      <trkpt lat="58.07863" lon="-4.47092">
        <ele>94.05</ele>
        <time>2021-03-20T22:07:03Z</time>
      </trkpt>
      <trkpt lat="58.07965" lon="-4.47167">
        <ele>94.75</ele>
        <time>2021-03-20T22:07:11Z</time>
      </trkpt>
      <trkpt lat="58.08259" lon="-4.47498">
        <ele>97.74</ele>
        <time>2021-03-20T22:07:19Z</time>
      </trkpt>
      <trkpt lat="58.08368" lon="-4.47657">
        <ele>100.84</ele>
        <time>2021-03-20T22:07:27Z</time>
      </trkpt>
      <trkpt lat="58.08894" lon="-4.48168">
        <ele>103.89</ele>
        <time>2021-03-20T22:07:34Z</time>
      </trkpt>
      <trkpt lat="58.09085" lon="-4.48438">
        <ele>98.34</ele>
        <time>2021-03-20T22:07:42Z</time>
      </trkpt>
      <trkpt lat="58.09222" lon="-4.48672">
        <ele>97.75</ele>
        <time>2021-03-20T22:07:50Z</time>
      </trkpt>
      <trkpt lat="58.09303" lon="-4.48799">
        <ele>97.32</ele>
        <time>2021-03-20T22:07:58Z</time>
      </trkpt>
      <trkpt lat="58.09439" lon="-4.48924">
        <ele>98.56</ele>
        <time>2021-03-20T22:08:06Z</time>
      </trkpt>
      <trkpt lat="58.09547" lon="-4.49038">
        <ele>99.68</ele>
        <time>2021-03-20T22:08:13Z</time>
      </trkpt>
      <trkpt lat="58.09593" lon="-4.49067">
        <ele>101.79</ele>
        <time>2021-03-20T22:08:21Z</time>
      </trkpt>
      <trkpt lat="58.09671" lon="-4.49085">
        <ele>103.24</ele>
        <time>2021-03-20T22:08:29Z</time>
      </trkpt>
      <trkpt lat="58.09716" lon="-4.49113">
        <ele>105.34</ele>
        <time>2021-03-20T22:08:37Z</time>
      </trkpt>
      <trkpt lat="58.09766" lon="-4.49156">
        <ele>104.24</ele>
        <time>2021-03-20T22:08:44Z</time>
      </trkpt>
      <trkpt lat="58.0989" lon="-4.4931">
        <ele>106.95</ele>
        <time>2021-03-20T22:08:52Z</time>
      </trkpt>
      <trkpt lat="58.10098" lon="-4.49574">
        <ele>107.87</ele>
        <time>2021-03-20T22:09:00Z</time>
      </trkpt>
      <trkpt lat="58.10245" lon="-4.49784">
        <ele>109.77</ele>
        <time>2021-03-20T22:09:08Z</time>
      </trkpt>
      <trkpt lat="58.10394" lon="-4.50014">
        <ele>113.01</ele>
        <time>2021-03-20T22:09:15Z</time>
      </trkpt>
      <trkpt lat="58.10537" lon="-4.5026">
        <ele>119.47</ele>
        <time>2021-03-20T22:09:23Z</time>
      </trkpt>
      <trkpt lat="58.1102" lon="-4.51124">
        <ele>128.97</ele>
        <time>2021-03-20T22:09:31Z</time>
      </trkpt>
      <trkpt lat="58.11183" lon="-4.51406">
        <ele>132.51</ele>
        <time>2021-03-20T22:09:39Z</time>
      </trkpt>
      <trkpt lat="58.11366" lon="-4.5167">
        <ele>134.89</ele>
        <time>2021-03-20T22:09:47Z</time>
      </trkpt>
      <trkpt lat="58.1155" lon="-4.51895">
        <ele>138.8</ele>
        <time>2021-03-20T22:09:54Z</time>
      </trkpt>
      <trkpt lat="58.11729" lon="-4.52137">
        <ele>141.32</ele>
        <time>2021-03-20T22:10:02Z</time>
      </trkpt>
      <trkpt lat="58.11871" lon="-4.52283">
        <ele>142.66</ele>
        <time>2021-03-20T22:10:10Z</time>
      </trkpt>
      <trkpt lat="58.12209" lon="-4.5282">
        <ele>150.27</ele>
        <time>2021-03-20T22:10:18Z</time>
      </trkpt>
      <trkpt lat="58.12275" lon="-4.52959">
        <ele>155.5</ele>
        <time>2021-03-20T22:10:25Z</time>
      </trkpt>
      <trkpt lat="58.12366" lon="-4.53174">
        <ele>159.39</ele>
        <time>2021-03-20T22:10:33Z</time>
      </trkpt>
      <trkpt lat="58.12564" lon="-4.53597">
        <ele>158.32</ele>
        <time>2021-03-20T22:10:41Z</time>
      </trkpt>
      <trkpt lat="58.12808" lon="-4.54008">
        <ele>151.76</ele>
        <time>2021-03-20T22:10:49Z</time>
      </trkpt>
      <trkpt lat="58.13139" lon="-4.54371">
        <ele>145.65</ele>
        <time>2021-03-20T22:10:56Z</time>
      </trkpt>
      <trkpt lat="58.13473" lon="-4.54812">
        <ele>145.04</ele>
        <time>2021-03-20T22:11:04Z</time>
      </trkpt>
      <trkpt lat="58.13545" lon="-4.54936">
        <ele>145.81</ele>
        <time>2021-03-20T22:11:12Z</time>
      </trkpt>
      <trkpt lat="58.13596" lon="-4.55054">
        <ele>143.49</ele>
        <time>2021-03-20T22:11:20Z</time>
      </trkpt>
      <trkpt lat="58.1363" lon="-4.55195">
        <ele>141.99</ele>
        <time>2021-03-20T22:11:28Z</time>
      </trkpt>
      <trkpt lat="58.13858" lon="-4.55771">
        <ele>132.75</ele>
        <time>2021-03-20T22:11:35Z</time>
      </trkpt>
      <trkpt lat="58.14069" lon="-4.5627">
        <ele>127.65</ele>
        <time>2021-03-20T22:11:43Z</time>
      </trkpt>
      <trkpt lat="58.14112" lon="-4.56408">
        <ele>125</ele>
        <time>2021-03-20T22:11:51Z</time>
      </trkpt>
      <trkpt lat="58.14144" lon="-4.56569">
        <ele>123.72</ele>
        <time>2021-03-20T22:11:59Z</time>
      </trkpt>
      <trkpt lat="58.14192" lon="-4.56869">
        <ele>122</ele>
        <time>2021-03-20T22:12:06Z</time>
      </trkpt>
      <trkpt lat="58.14182" lon="-4.57332">
        <ele>124</ele>
        <time>2021-03-20T22:12:14Z</time>
      </trkpt>
      <trkpt lat="58.1415" lon="-4.57788">
        <ele>117.18</ele>
        <time>2021-03-20T22:12:22Z</time>
      </trkpt>
      <trkpt lat="58.14107" lon="-4.58358">
        <ele>109.85</ele>
        <time>2021-03-20T22:12:30Z</time>
      </trkpt>
      <trkpt lat="58.14101" lon="-4.58495">
        <ele>110.27</ele>
        <time>2021-03-20T22:12:37Z</time>
      </trkpt>
      <trkpt lat="58.14108" lon="-4.58637">
        <ele>107.82</ele>
        <time>2021-03-20T22:12:45Z</time>
      </trkpt>
      <trkpt lat="58.14151" lon="-4.58879">
        <ele>105.87</ele>
        <time>2021-03-20T22:12:53Z</time>
      </trkpt>
      <trkpt lat="58.14198" lon="-4.59189">
        <ele>103.46</ele>
        <time>2021-03-20T22:13:01Z</time>
      </trkpt>
      <trkpt lat="58.14216" lon="-4.59433">
        <ele>102.37</ele>
        <time>2021-03-20T22:13:08Z</time>
      </trkpt>
      <trkpt lat="58.14236" lon="-4.59546">
        <ele>100.78</ele>
        <time>2021-03-20T22:13:16Z</time>
      </trkpt>
      <trkpt lat="58.14287" lon="-4.59661">
        <ele>98.04</ele>
        <time>2021-03-20T22:13:24Z</time>
      </trkpt>
      <trkpt lat="58.14367" lon="-4.59771">
        <ele>101.81</ele>
        <time>2021-03-20T22:13:32Z</time>
      </trkpt>
      <trkpt lat="58.14433" lon="-4.59873">
        <ele>99.07</ele>
        <time>2021-03-20T22:13:40Z</time>
      </trkpt>
      <trkpt lat="58.14466" lon="-4.5995">
        <ele>99.08</ele>
        <time>2021-03-20T22:13:47Z</time>
      </trkpt>
      <trkpt lat="58.14535" lon="-4.60178">
        <ele>97.39</ele>
        <time>2021-03-20T22:13:55Z</time>
      </trkpt>
      <trkpt lat="58.14599" lon="-4.60427">
        <ele>96.93</ele>
        <time>2021-03-20T22:14:03Z</time>
      </trkpt>
      <trkpt lat="58.14612" lon="-4.60519">
        <ele>95.32</ele>
        <time>2021-03-20T22:14:11Z</time>
      </trkpt>
      <trkpt lat="58.14607" lon="-4.60583">
        <ele>94.32</ele>
        <time>2021-03-20T22:14:18Z</time>
      </trkpt>
      <trkpt lat="58.14587" lon="-4.60762">
        <ele>97.05</ele>
        <time>2021-03-20T22:14:26Z</time>
      </trkpt>
      <trkpt lat="58.14584" lon="-4.60836">
        <ele>97.12</ele>
        <time>2021-03-20T22:14:34Z</time>
      </trkpt>
      <trkpt lat="58.14592" lon="-4.60914">
        <ele>98</ele>
        <time>2021-03-20T22:14:42Z</time>
      </trkpt>
      <trkpt lat="58.14637" lon="-4.61226">
        <ele>102.3</ele>
        <time>2021-03-20T22:14:49Z</time>
      </trkpt>
      <trkpt lat="58.14708" lon="-4.6185">
        <ele>103.89</ele>
        <time>2021-03-20T22:14:57Z</time>
      </trkpt>
      <trkpt lat="58.14761" lon="-4.62202">
        <ele>103.33</ele>
        <time>2021-03-20T22:15:05Z</time>
      </trkpt>
      <trkpt lat="58.14783" lon="-4.62462">
        <ele>101.41</ele>
        <time>2021-03-20T22:15:13Z</time>
      </trkpt>
      <trkpt lat="58.14942" lon="-4.63357">
        <ele>103.96</ele>
        <time>2021-03-20T22:15:21Z</time>
      </trkpt>
      <trkpt lat="58.15179" lon="-4.64094">
        <ele>101.19</ele>
        <time>2021-03-20T22:15:28Z</time>
      </trkpt>
      <trkpt lat="58.15432" lon="-4.64779">
        <ele>103.77</ele>
        <time>2021-03-20T22:15:36Z</time>
      </trkpt>
      <trkpt lat="58.1555" lon="-4.65247">
        <ele>99.55</ele>
        <time>2021-03-20T22:15:44Z</time>
      </trkpt>
      <trkpt lat="58.15794" lon="-4.65964">
        <ele>105.21</ele>
        <time>2021-03-20T22:15:52Z</time>
      </trkpt>
      <trkpt lat="58.15951" lon="-4.66163">
        <ele>104.57</ele>
        <time>2021-03-20T22:15:59Z</time>
      </trkpt>
      <trkpt lat="58.16225" lon="-4.66572">
        <ele>108.68</ele>
        <time>2021-03-20T22:16:07Z</time>
      </trkpt>
      <trkpt lat="58.16283" lon="-4.66729">
        <ele>111.4</ele>
        <time>2021-03-20T22:16:15Z</time>
      </trkpt>
      <trkpt lat="58.16363" lon="-4.67215">
        <ele>115.1</ele>
        <time>2021-03-20T22:16:23Z</time>
      </trkpt>
      <trkpt lat="58.16445" lon="-4.67705">
        <ele>110.63</ele>
        <time>2021-03-20T22:16:30Z</time>
      </trkpt>
      <trkpt lat="58.16592" lon="-4.6814">
        <ele>113.59</ele>
        <time>2021-03-20T22:16:38Z</time>
      </trkpt>
      <trkpt lat="58.16702" lon="-4.68573">
        <ele>115.94</ele>
        <time>2021-03-20T22:16:46Z</time>
      </trkpt>
      <trkpt lat="58.16889" lon="-4.69005">
        <ele>115.82</ele>
        <time>2021-03-20T22:16:54Z</time>
      </trkpt>
      <trkpt lat="58.16941" lon="-4.6916">
        <ele>117.79</ele>
        <time>2021-03-20T22:17:01Z</time>
      </trkpt>
      <trkpt lat="58.16977" lon="-4.69316">
        <ele>118.12</ele>
        <time>2021-03-20T22:17:09Z</time>
      </trkpt>
      <trkpt lat="58.17013" lon="-4.69445">
        <ele>115.89</ele>
        <time>2021-03-20T22:17:17Z</time>
      </trkpt>
      <trkpt lat="58.17036" lon="-4.69673">
        <ele>114.68</ele>
        <time>2021-03-20T22:17:25Z</time>
      </trkpt>
      <trkpt lat="58.17131" lon="-4.69921">
        <ele>116.31</ele>
        <time>2021-03-20T22:17:33Z</time>
      </trkpt>
      <trkpt lat="58.17148" lon="-4.70021">
        <ele>115.66</ele>
        <time>2021-03-20T22:17:40Z</time>
      </trkpt>
      <trkpt lat="58.17266" lon="-4.70548">
        <ele>125.13</ele>
        <time>2021-03-20T22:17:48Z</time>
      </trkpt>
      <trkpt lat="58.17354" lon="-4.70772">
        <ele>122.69</ele>
        <time>2021-03-20T22:17:56Z</time>
      </trkpt>
      <trkpt lat="58.17388" lon="-4.7088">
        <ele>122.94</ele>
        <time>2021-03-20T22:18:04Z</time>
      </trkpt>
      <trkpt lat="58.17487" lon="-4.71154">
        <ele>119.99</ele>
        <time>2021-03-20T22:18:11Z</time>
      </trkpt>
      <trkpt lat="58.17597" lon="-4.71293">
        <ele>118.46</ele>
        <time>2021-03-20T22:18:19Z</time>
      </trkpt>
      <trkpt lat="58.1783" lon="-4.7157">
        <ele>120.63</ele>
        <time>2021-03-20T22:18:27Z</time>
      </trkpt>
      <trkpt lat="58.17928" lon="-4.71663">
        <ele>119.55</ele>
        <time>2021-03-20T22:18:35Z</time>
      </trkpt>
      <trkpt lat="58.17979" lon="-4.71707">
        <ele>122.24</ele>
        <time>2021-03-20T22:18:42Z</time>
      </trkpt>
      <trkpt lat="58.18066" lon="-4.71757">
        <ele>124.36</ele>
        <time>2021-03-20T22:18:50Z</time>
      </trkpt>
      <trkpt lat="58.18666" lon="-4.72404">
        <ele>129.88</ele>
        <time>2021-03-20T22:18:58Z</time>
      </trkpt>
      <trkpt lat="58.18796" lon="-4.72476">
        <ele>125.71</ele>
        <time>2021-03-20T22:19:06Z</time>
      </trkpt>
      <trkpt lat="58.18885" lon="-4.72539">
        <ele>121.17</ele>
        <time>2021-03-20T22:19:14Z</time>
      </trkpt>
      <trkpt lat="58.18925" lon="-4.72589">
        <ele>121.64</ele>
        <time>2021-03-20T22:19:21Z</time>
      </trkpt>
      <trkpt lat="58.18964" lon="-4.72683">
        <ele>119.83</ele>
        <time>2021-03-20T22:19:29Z</time>
      </trkpt>
      <trkpt lat="58.19026" lon="-4.72783">
        <ele>115.74</ele>
        <time>2021-03-20T22:19:37Z</time>
      </trkpt>
      <trkpt lat="58.19205" lon="-4.73056">
        <ele>112.72</ele>
        <time>2021-03-20T22:19:45Z</time>
      </trkpt>
      <trkpt lat="58.19274" lon="-4.73144">
        <ele>108.47</ele>
        <time>2021-03-20T22:19:52Z</time>
      </trkpt>
      <trkpt lat="58.19343" lon="-4.7321">
        <ele>105.67</ele>
        <time>2021-03-20T22:20:00Z</time>
      </trkpt>
      <trkpt lat="58.19431" lon="-4.73265">
        <ele>104.9</ele>
        <time>2021-03-20T22:20:08Z</time>
      </trkpt>
      <trkpt lat="58.19616" lon="-4.73362">
        <ele>102.09</ele>
        <time>2021-03-20T22:20:16Z</time>
      </trkpt>
      <trkpt lat="58.1969" lon="-4.73396">
        <ele>101</ele>
        <time>2021-03-20T22:20:23Z</time>
      </trkpt>
      <trkpt lat="58.19874" lon="-4.7346">
        <ele>101.68</ele>
        <time>2021-03-20T22:20:31Z</time>
      </trkpt>
      <trkpt lat="58.20043" lon="-4.73491">
        <ele>102.68</ele>
        <time>2021-03-20T22:20:39Z</time>
      </trkpt>
      <trkpt lat="58.20202" lon="-4.73555">
        <ele>101.51</ele>
        <time>2021-03-20T22:20:47Z</time>
      </trkpt>
      <trkpt lat="58.20358" lon="-4.73655">
        <ele>99.44</ele>
        <time>2021-03-20T22:20:55Z</time>
      </trkpt>
      <trkpt lat="58.20442" lon="-4.73682">
        <ele>98.41</ele>
        <time>2021-03-20T22:21:02Z</time>
      </trkpt>
      <trkpt lat="58.20542" lon="-4.73693">
        <ele>99.14</ele>
        <time>2021-03-20T22:21:10Z</time>
      </trkpt>
      <trkpt lat="58.20673" lon="-4.73701">
        <ele>101.76</ele>
        <time>2021-03-20T22:21:18Z</time>
      </trkpt>
      <trkpt lat="58.20729" lon="-4.73691">
        <ele>102.11</ele>
        <time>2021-03-20T22:21:26Z</time>
      </trkpt>
      <trkpt lat="58.2078" lon="-4.73655">
        <ele>103.64</ele>
        <time>2021-03-20T22:21:33Z</time>
      </trkpt>
      <trkpt lat="58.20906" lon="-4.73547">
        <ele>102.63</ele>
        <time>2021-03-20T22:21:41Z</time>
      </trkpt>
      <trkpt lat="58.21201" lon="-4.73278">
        <ele>105.48</ele>
        <time>2021-03-20T22:21:49Z</time>
      </trkpt>
      <trkpt lat="58.21319" lon="-4.73153">
        <ele>104.22</ele>
        <time>2021-03-20T22:21:57Z</time>
      </trkpt>
      <trkpt lat="58.21402" lon="-4.731">
        <ele>104.24</ele>
        <time>2021-03-20T22:22:04Z</time>
      </trkpt>
      <trkpt lat="58.21448" lon="-4.73049">
        <ele>105.64</ele>
        <time>2021-03-20T22:22:12Z</time>
      </trkpt>
      <trkpt lat="58.21596" lon="-4.72975">
        <ele>104.5</ele>
        <time>2021-03-20T22:22:20Z</time>
      </trkpt>
      <trkpt lat="58.21721" lon="-4.7288">
        <ele>107.67</ele>
        <time>2021-03-20T22:22:28Z</time>
      </trkpt>
      <trkpt lat="58.21772" lon="-4.72816">
        <ele>107.9</ele>
        <time>2021-03-20T22:22:35Z</time>
      </trkpt>
      <trkpt lat="58.21814" lon="-4.72755">
        <ele>108.81</ele>
        <time>2021-03-20T22:22:43Z</time>
      </trkpt>
      <trkpt lat="58.21844" lon="-4.72722">
        <ele>108.31</ele>
        <time>2021-03-20T22:22:51Z</time>
      </trkpt>
      <trkpt lat="58.22123" lon="-4.72496">
        <ele>114.77</ele>
        <time>2021-03-20T22:22:59Z</time>
      </trkpt>
      <trkpt lat="58.22211" lon="-4.72415">
        <ele>118.89</ele>
        <time>2021-03-20T22:23:07Z</time>
      </trkpt>
      <trkpt lat="58.22264" lon="-4.72384">
        <ele>119.58</ele>
        <time>2021-03-20T22:23:14Z</time>
      </trkpt>
      <trkpt lat="58.22361" lon="-4.72363">
        <ele>121.93</ele>
        <time>2021-03-20T22:23:22Z</time>
      </trkpt>
      <trkpt lat="58.22408" lon="-4.72366">
        <ele>121.74</ele>
        <time>2021-03-20T22:23:30Z</time>
      </trkpt>
      <trkpt lat="58.22508" lon="-4.72393">
        <ele>117.74</ele>
        <time>2021-03-20T22:23:38Z</time>
      </trkpt>
      <trkpt lat="58.22654" lon="-4.72437">
        <ele>116.12</ele>
        <time>2021-03-20T22:23:45Z</time>
      </trkpt>
      <trkpt lat="58.2271" lon="-4.72467">
        <ele>118.49</ele>
        <time>2021-03-20T22:23:53Z</time>
      </trkpt>
      <trkpt lat="58.22945" lon="-4.72619">
        <ele>124.71</ele>
        <time>2021-03-20T22:24:01Z</time>
      </trkpt>
      <trkpt lat="58.23325" lon="-4.72915">
        <ele>124.51</ele>
        <time>2021-03-20T22:24:09Z</time>
      </trkpt>
      <trkpt lat="58.23724" lon="-4.73219">
        <ele>125.36</ele>
        <time>2021-03-20T22:24:16Z</time>
      </trkpt>
      <trkpt lat="58.23797" lon="-4.73278">
        <ele>126.65</ele>
        <time>2021-03-20T22:24:24Z</time>
      </trkpt>
      <trkpt lat="58.24036" lon="-4.73505">
        <ele>125.13</ele>
        <time>2021-03-20T22:24:32Z</time>
      </trkpt>
      <trkpt lat="58.24188" lon="-4.73691">
        <ele>123.55</ele>
        <time>2021-03-20T22:24:40Z</time>
      </trkpt>
      <trkpt lat="58.24382" lon="-4.73908">
        <ele>120.66</ele>
        <time>2021-03-20T22:24:48Z</time>
      </trkpt>
      <trkpt lat="58.24527" lon="-4.74091">
        <ele>121.36</ele>
        <time>2021-03-20T22:24:55Z</time>
      </trkpt>
      <trkpt lat="58.24554" lon="-4.74112">
        <ele>121.81</ele>
        <time>2021-03-20T22:25:03Z</time>
      </trkpt>
      <trkpt lat="58.24609" lon="-4.74135">
        <ele>121.48</ele>
        <time>2021-03-20T22:25:11Z</time>
      </trkpt>
      <trkpt lat="58.24642" lon="-4.74161">
        <ele>121.01</ele>
        <time>2021-03-20T22:25:19Z</time>
      </trkpt>
      <trkpt lat="58.24684" lon="-4.74209">
        <ele>121.81</ele>
        <time>2021-03-20T22:25:26Z</time>
      </trkpt>
      <trkpt lat="58.2485" lon="-4.74436">
        <ele>123.54</ele>
        <time>2021-03-20T22:25:34Z</time>
      </trkpt>
      <trkpt lat="58.24989" lon="-4.74592">
        <ele>121.17</ele>
        <time>2021-03-20T22:25:42Z</time>
      </trkpt>
      <trkpt lat="58.25076" lon="-4.74675">
        <ele>120.11</ele>
        <time>2021-03-20T22:25:50Z</time>
      </trkpt>
      <trkpt lat="58.25118" lon="-4.74733">
        <ele>119.72</ele>
        <time>2021-03-20T22:25:57Z</time>
      </trkpt>
      <trkpt lat="58.25206" lon="-4.74873">
        <ele>118.39</ele>
        <time>2021-03-20T22:26:05Z</time>
      </trkpt>
      <trkpt lat="58.25347" lon="-4.75156">
        <ele>118.84</ele>
        <time>2021-03-20T22:26:13Z</time>
      </trkpt>
      <trkpt lat="58.25492" lon="-4.75416">
        <ele>117.46</ele>
        <time>2021-03-20T22:26:21Z</time>
      </trkpt>
      <trkpt lat="58.25515" lon="-4.75473">
        <ele>117.1</ele>
        <time>2021-03-20T22:26:28Z</time>
      </trkpt>
      <trkpt lat="58.25523" lon="-4.75512">
        <ele>117.65</ele>
        <time>2021-03-20T22:26:36Z</time>
      </trkpt>
      <trkpt lat="58.2554" lon="-4.75741">
        <ele>120.58</ele>
        <time>2021-03-20T22:26:44Z</time>
      </trkpt>
      <trkpt lat="58.2557" lon="-4.76405">
        <ele>119.7</ele>
        <time>2021-03-20T22:26:52Z</time>
      </trkpt>
      <trkpt lat="58.2558" lon="-4.76527">
        <ele>123.14</ele>
        <time>2021-03-20T22:27:00Z</time>
      </trkpt>
      <trkpt lat="58.25675" lon="-4.77064">
        <ele>117.39</ele>
        <time>2021-03-20T22:27:07Z</time>
      </trkpt>
      <trkpt lat="58.25706" lon="-4.77375">
        <ele>117.41</ele>
        <time>2021-03-20T22:27:15Z</time>
      </trkpt>
      <trkpt lat="58.25775" lon="-4.77656">
        <ele>118.05</ele>
        <time>2021-03-20T22:27:23Z</time>
      </trkpt>
      <trkpt lat="58.25806" lon="-4.77874">
        <ele>123.15</ele>
        <time>2021-03-20T22:27:31Z</time>
      </trkpt>
      <trkpt lat="58.25806" lon="-4.78024">
        <ele>125.86</ele>
        <time>2021-03-20T22:27:38Z</time>
      </trkpt>
      <trkpt lat="58.25784" lon="-4.78227">
        <ele>130.15</ele>
        <time>2021-03-20T22:27:46Z</time>
      </trkpt>
      <trkpt lat="58.25716" lon="-4.78723">
        <ele>140.79</ele>
        <time>2021-03-20T22:27:54Z</time>
      </trkpt>
      <trkpt lat="58.25685" lon="-4.78969">
        <ele>145.28</ele>
        <time>2021-03-20T22:28:02Z</time>
      </trkpt>
      <trkpt lat="58.25685" lon="-4.79033">
        <ele>144.31</ele>
        <time>2021-03-20T22:28:09Z</time>
      </trkpt>
      <trkpt lat="58.25731" lon="-4.79531">
        <ele>135.58</ele>
        <time>2021-03-20T22:28:17Z</time>
      </trkpt>
      <trkpt lat="58.25757" lon="-4.79775">
        <ele>133.07</ele>
        <time>2021-03-20T22:28:25Z</time>
      </trkpt>
      <trkpt lat="58.25791" lon="-4.80011">
        <ele>130.01</ele>
        <time>2021-03-20T22:28:33Z</time>
      </trkpt>
      <trkpt lat="58.25817" lon="-4.80184">
        <ele>128.07</ele>
        <time>2021-03-20T22:28:41Z</time>
      </trkpt>
      <trkpt lat="58.25866" lon="-4.80452">
        <ele>123.27</ele>
        <time>2021-03-20T22:28:48Z</time>
      </trkpt>
      <trkpt lat="58.25891" lon="-4.80542">
        <ele>122.33</ele>
        <time>2021-03-20T22:28:56Z</time>
      </trkpt>
      <trkpt lat="58.25946" lon="-4.80722">
        <ele>117.28</ele>
        <time>2021-03-20T22:29:04Z</time>
      </trkpt>
      <trkpt lat="58.25982" lon="-4.8083">
        <ele>113.96</ele>
        <time>2021-03-20T22:29:12Z</time>
      </trkpt>
      <trkpt lat="58.26015" lon="-4.80959">
        <ele>110.12</ele>
        <time>2021-03-20T22:29:19Z</time>
      </trkpt>
      <trkpt lat="58.26099" lon="-4.81234">
        <ele>103.81</ele>
        <time>2021-03-20T22:29:27Z</time>
      </trkpt>
      <trkpt lat="58.26133" lon="-4.8132">
        <ele>99.55</ele>
        <time>2021-03-20T22:29:35Z</time>
      </trkpt>
      <trkpt lat="58.26176" lon="-4.81385">
        <ele>98.15</ele>
        <time>2021-03-20T22:29:43Z</time>
      </trkpt>
      <trkpt lat="58.26234" lon="-4.81464">
        <ele>92.64</ele>
        <time>2021-03-20T22:29:50Z</time>
      </trkpt>
      <trkpt lat="58.26375" lon="-4.81618">
        <ele>80.84</ele>
        <time>2021-03-20T22:29:58Z</time>
      </trkpt>
      <trkpt lat="58.26443" lon="-4.81671">
        <ele>76.5</ele>
        <time>2021-03-20T22:30:06Z</time>
      </trkpt>
      <trkpt lat="58.26635" lon="-4.81782">
        <ele>59.87</ele>
        <time>2021-03-20T22:30:14Z</time>
      </trkpt>
      <trkpt lat="58.26728" lon="-4.81878">
        <ele>54.62</ele>
        <time>2021-03-20T22:30:21Z</time>
      </trkpt>
      <trkpt lat="58.26792" lon="-4.81923">
        <ele>52.72</ele>
        <time>2021-03-20T22:30:29Z</time>
      </trkpt>
      <trkpt lat="58.26825" lon="-4.81938">
        <ele>52.78</ele>
        <time>2021-03-20T22:30:37Z</time>
      </trkpt>
      <trkpt lat="58.26876" lon="-4.81953">
        <ele>52.21</ele>
        <time>2021-03-20T22:30:45Z</time>
      </trkpt>
      <trkpt lat="58.27027" lon="-4.81985">
        <ele>49.49</ele>
        <time>2021-03-20T22:30:53Z</time>
      </trkpt>
      <trkpt lat="58.27148" lon="-4.82003">
        <ele>48.71</ele>
        <time>2021-03-20T22:31:00Z</time>
      </trkpt>
      <trkpt lat="58.27215" lon="-4.82056">
        <ele>48.03</ele>
        <time>2021-03-20T22:31:08Z</time>
      </trkpt>
      <trkpt lat="58.27346" lon="-4.82207">
        <ele>50.78</ele>
        <time>2021-03-20T22:31:16Z</time>
      </trkpt>
      <trkpt lat="58.27459" lon="-4.82312">
        <ele>47.3</ele>
        <time>2021-03-20T22:31:24Z</time>
      </trkpt>
      <trkpt lat="58.27533" lon="-4.82418">
        <ele>47.54</ele>
        <time>2021-03-20T22:31:31Z</time>
      </trkpt>
      <trkpt lat="58.27592" lon="-4.8252">
        <ele>48.11</ele>
        <time>2021-03-20T22:31:39Z</time>
      </trkpt>
      <trkpt lat="58.27676" lon="-4.82681">
        <ele>50.21</ele>
        <time>2021-03-20T22:31:47Z</time>
      </trkpt>
      <trkpt lat="58.27817" lon="-4.82872">
        <ele>49.79</ele>
        <time>2021-03-20T22:31:55Z</time>
      </trkpt>
      <trkpt lat="58.27938" lon="-4.83026">
        <ele>48.65</ele>
        <time>2021-03-20T22:32:02Z</time>
      </trkpt>
      <trkpt lat="58.28001" lon="-4.83122">
        <ele>48.98</ele>
        <time>2021-03-20T22:32:10Z</time>
      </trkpt>
      <trkpt lat="58.28091" lon="-4.83353">
        <ele>49.81</ele>
        <time>2021-03-20T22:32:18Z</time>
      </trkpt>
      <trkpt lat="58.28252" lon="-4.83734">
        <ele>48.9</ele>
        <time>2021-03-20T22:32:26Z</time>
      </trkpt>
      <trkpt lat="58.28366" lon="-4.83965">
        <ele>49.74</ele>
        <time>2021-03-20T22:32:34Z</time>
      </trkpt>
      <trkpt lat="58.28457" lon="-4.84176">
        <ele>51.79</ele>
        <time>2021-03-20T22:32:41Z</time>
      </trkpt>
      <trkpt lat="58.28502" lon="-4.84323">
        <ele>50.88</ele>
        <time>2021-03-20T22:32:49Z</time>
      </trkpt>
      <trkpt lat="58.28537" lon="-4.84418">
        <ele>53.55</ele>
        <time>2021-03-20T22:32:57Z</time>
      </trkpt>
      <trkpt lat="58.28667" lon="-4.84727">
        <ele>53.76</ele>
        <time>2021-03-20T22:33:05Z</time>
      </trkpt>
      <trkpt lat="58.2878" lon="-4.85011">
        <ele>58.09</ele>
        <time>2021-03-20T22:33:12Z</time>
      </trkpt>
      <trkpt lat="58.28858" lon="-4.85242">
        <ele>58.55</ele>
        <time>2021-03-20T22:33:20Z</time>
      </trkpt>
      <trkpt lat="58.29025" lon="-4.85779">
        <ele>51.72</ele>
        <time>2021-03-20T22:33:28Z</time>
      </trkpt>
      <trkpt lat="58.29093" lon="-4.85986">
        <ele>51.17</ele>
        <time>2021-03-20T22:33:36Z</time>
      </trkpt>
      <trkpt lat="58.29157" lon="-4.86153">
        <ele>50.7</ele>
        <time>2021-03-20T22:33:43Z</time>
      </trkpt>
      <trkpt lat="58.29188" lon="-4.86256">
        <ele>50.19</ele>
        <time>2021-03-20T22:33:51Z</time>
      </trkpt>
      <trkpt lat="58.29211" lon="-4.86365">
        <ele>49.54</ele>
        <time>2021-03-20T22:33:59Z</time>
      </trkpt>
      <trkpt lat="58.29256" lon="-4.86502">
        <ele>46.73</ele>
        <time>2021-03-20T22:34:07Z</time>
      </trkpt>
      <trkpt lat="58.29346" lon="-4.86713">
        <ele>47.01</ele>
        <time>2021-03-20T22:34:15Z</time>
      </trkpt>
      <trkpt lat="58.29409" lon="-4.86906">
        <ele>44.43</ele>
        <time>2021-03-20T22:34:22Z</time>
      </trkpt>
      <trkpt lat="58.29453" lon="-4.87008">
        <ele>46.46</ele>
        <time>2021-03-20T22:34:30Z</time>
      </trkpt>
      <trkpt lat="58.29487" lon="-4.87112">
        <ele>47.46</ele>
        <time>2021-03-20T22:34:38Z</time>
      </trkpt>
      <trkpt lat="58.29554" lon="-4.87331">
        <ele>48.37</ele>
        <time>2021-03-20T22:34:46Z</time>
      </trkpt>
      <trkpt lat="58.2978" lon="-4.88162">
        <ele>48.37</ele>
        <time>2021-03-20T22:34:53Z</time>
      </trkpt>
      <trkpt lat="58.29881" lon="-4.88539">
        <ele>47.9</ele>
        <time>2021-03-20T22:35:01Z</time>
      </trkpt>
      <trkpt lat="58.29918" lon="-4.88686">
        <ele>46.28</ele>
        <time>2021-03-20T22:35:09Z</time>
      </trkpt>
      <trkpt lat="58.29976" lon="-4.88863">
        <ele>44.7</ele>
        <time>2021-03-20T22:35:17Z</time>
      </trkpt>
      <trkpt lat="58.30178" lon="-4.89466">
        <ele>46.17</ele>
        <time>2021-03-20T22:35:24Z</time>
      </trkpt>
      <trkpt lat="58.30257" lon="-4.89718">
        <ele>46.53</ele>
        <time>2021-03-20T22:35:32Z</time>
      </trkpt>
      <trkpt lat="58.30323" lon="-4.89995">
        <ele>45.6</ele>
        <time>2021-03-20T22:35:40Z</time>
      </trkpt>
      <trkpt lat="58.30374" lon="-4.90185">
        <ele>44.19</ele>
        <time>2021-03-20T22:35:48Z</time>
      </trkpt>
      <trkpt lat="58.30405" lon="-4.90279">
        <ele>43.88</ele>
        <time>2021-03-20T22:35:55Z</time>
      </trkpt>
      <trkpt lat="58.30439" lon="-4.90371">
        <ele>43.72</ele>
        <time>2021-03-20T22:36:03Z</time>
      </trkpt>
      <trkpt lat="58.30523" lon="-4.90583">
        <ele>47.28</ele>
        <time>2021-03-20T22:36:11Z</time>
      </trkpt>
      <trkpt lat="58.30641" lon="-4.90845">
        <ele>43.72</ele>
        <time>2021-03-20T22:36:19Z</time>
      </trkpt>
      <trkpt lat="58.30806" lon="-4.91183">
        <ele>43.56</ele>
        <time>2021-03-20T22:36:27Z</time>
      </trkpt>
      <trkpt lat="58.31014" lon="-4.91551">
        <ele>46.43</ele>
        <time>2021-03-20T22:36:34Z</time>
      </trkpt>
      <trkpt lat="58.31037" lon="-4.91575">
        <ele>45.69</ele>
        <time>2021-03-20T22:36:42Z</time>
      </trkpt>
      <trkpt lat="58.31067" lon="-4.91599">
        <ele>46</ele>
        <time>2021-03-20T22:36:50Z</time>
      </trkpt>
      <trkpt lat="58.31088" lon="-4.91607">
        <ele>46.15</ele>
        <time>2021-03-20T22:36:58Z</time>
      </trkpt>
      <trkpt lat="58.31104" lon="-4.91608">
        <ele>46.74</ele>
        <time>2021-03-20T22:37:05Z</time>
      </trkpt>
      <trkpt lat="58.31122" lon="-4.916">
        <ele>47.8</ele>
        <time>2021-03-20T22:37:13Z</time>
      </trkpt>
      <trkpt lat="58.31147" lon="-4.91583">
        <ele>49</ele>
        <time>2021-03-20T22:37:21Z</time>
      </trkpt>
      <trkpt lat="58.31167" lon="-4.91563">
        <ele>48.28</ele>
        <time>2021-03-20T22:37:29Z</time>
      </trkpt>
      <trkpt lat="58.31357" lon="-4.91333">
        <ele>42.84</ele>
        <time>2021-03-20T22:37:36Z</time>
      </trkpt>
      <trkpt lat="58.31536" lon="-4.91231">
        <ele>41.31</ele>
        <time>2021-03-20T22:37:44Z</time>
      </trkpt>
      <trkpt lat="58.31633" lon="-4.91126">
        <ele>39.54</ele>
        <time>2021-03-20T22:37:52Z</time>
      </trkpt>
      <trkpt lat="58.31737" lon="-4.9101">
        <ele>40.07</ele>
        <time>2021-03-20T22:38:00Z</time>
      </trkpt>
      <trkpt lat="58.31748" lon="-4.90994">
        <ele>39.91</ele>
        <time>2021-03-20T22:38:08Z</time>
      </trkpt>
      <trkpt lat="58.31773" lon="-4.90979">
        <ele>41</ele>
        <time>2021-03-20T22:38:15Z</time>
      </trkpt>
      <trkpt lat="58.31857" lon="-4.90964">
        <ele>40.4</ele>
        <time>2021-03-20T22:38:23Z</time>
      </trkpt>
      <trkpt lat="58.32026" lon="-4.90998">
        <ele>38.85</ele>
        <time>2021-03-20T22:38:31Z</time>
      </trkpt>
      <trkpt lat="58.32119" lon="-4.91036">
        <ele>40.57</ele>
        <time>2021-03-20T22:38:39Z</time>
      </trkpt>
      <trkpt lat="58.32461" lon="-4.91283">
        <ele>50.12</ele>
        <time>2021-03-20T22:38:46Z</time>
      </trkpt>
      <trkpt lat="58.32538" lon="-4.91334">
        <ele>49.03</ele>
        <time>2021-03-20T22:38:54Z</time>
      </trkpt>
      <trkpt lat="58.3282" lon="-4.9154">
        <ele>64.79</ele>
        <time>2021-03-20T22:39:02Z</time>
      </trkpt>
      <trkpt lat="58.32928" lon="-4.91745">
        <ele>65.51</ele>
        <time>2021-03-20T22:39:10Z</time>
      </trkpt>
      <trkpt lat="58.33042" lon="-4.91797">
        <ele>57.56</ele>
        <time>2021-03-20T22:39:17Z</time>
      </trkpt>
      <trkpt lat="58.33066" lon="-4.91836">
        <ele>56.02</ele>
        <time>2021-03-20T22:39:25Z</time>
      </trkpt>
      <trkpt lat="58.33076" lon="-4.91894">
        <ele>56.18</ele>
        <time>2021-03-20T22:39:33Z</time>
      </trkpt>
      <trkpt lat="58.33081" lon="-4.92">
        <ele>53.84</ele>
        <time>2021-03-20T22:39:41Z</time>
      </trkpt>
      <trkpt lat="58.33114" lon="-4.92131">
        <ele>50.53</ele>
        <time>2021-03-20T22:39:48Z</time>
      </trkpt>
      <trkpt lat="58.33145" lon="-4.92212">
        <ele>48.35</ele>
        <time>2021-03-20T22:39:56Z</time>
      </trkpt>
      <trkpt lat="58.3319" lon="-4.92294">
        <ele>49.4</ele>
        <time>2021-03-20T22:40:04Z</time>
      </trkpt>
      <trkpt lat="58.3322" lon="-4.92393">
        <ele>54.13</ele>
        <time>2021-03-20T22:40:12Z</time>
      </trkpt>
      <trkpt lat="58.33314" lon="-4.92633">
        <ele>47.65</ele>
        <time>2021-03-20T22:40:20Z</time>
      </trkpt>
      <trkpt lat="58.3337" lon="-4.92751">
        <ele>45.31</ele>
        <time>2021-03-20T22:40:27Z</time>
      </trkpt>
      <trkpt lat="58.33426" lon="-4.92883">
        <ele>42.33</ele>
        <time>2021-03-20T22:40:35Z</time>
      </trkpt>
      <trkpt lat="58.33511" lon="-4.92985">
        <ele>44.58</ele>
        <time>2021-03-20T22:40:43Z</time>
      </trkpt>
      <trkpt lat="58.33584" lon="-4.93179">
        <ele>44.26</ele>
        <time>2021-03-20T22:40:51Z</time>
      </trkpt>
      <trkpt lat="58.33665" lon="-4.93296">
        <ele>44.34</ele>
        <time>2021-03-20T22:40:58Z</time>
      </trkpt>
      <trkpt lat="58.33718" lon="-4.93419">
        <ele>46.06</ele>
        <time>2021-03-20T22:41:06Z</time>
      </trkpt>
      <trkpt lat="58.33781" lon="-4.9364">
        <ele>45.49</ele>
        <time>2021-03-20T22:41:14Z</time>
      </trkpt>
      <trkpt lat="58.33824" lon="-4.93765">
        <ele>47.8</ele>
        <time>2021-03-20T22:41:22Z</time>
      </trkpt>
      <trkpt lat="58.33878" lon="-4.93895">
        <ele>46.04</ele>
        <time>2021-03-20T22:41:29Z</time>
      </trkpt>
      <trkpt lat="58.33912" lon="-4.94005">
        <ele>46.43</ele>
        <time>2021-03-20T22:41:37Z</time>
      </trkpt>
      <trkpt lat="58.33952" lon="-4.94085">
        <ele>46.51</ele>
        <time>2021-03-20T22:41:45Z</time>
      </trkpt>
      <trkpt lat="58.34003" lon="-4.94261">
        <ele>46.43</ele>
        <time>2021-03-20T22:41:53Z</time>
      </trkpt>
      <trkpt lat="58.34062" lon="-4.94368">
        <ele>43.1</ele>
        <time>2021-03-20T22:42:01Z</time>
      </trkpt>
      <trkpt lat="58.34113" lon="-4.94501">
        <ele>41.95</ele>
        <time>2021-03-20T22:42:08Z</time>
      </trkpt>
      <trkpt lat="58.34172" lon="-4.94611">
        <ele>40.67</ele>
        <time>2021-03-20T22:42:16Z</time>
      </trkpt>
      <trkpt lat="58.34226" lon="-4.94756">
        <ele>41.84</ele>
        <time>2021-03-20T22:42:24Z</time>
      </trkpt>
      <trkpt lat="58.34278" lon="-4.95076">
        <ele>43.46</ele>
        <time>2021-03-20T22:42:32Z</time>
      </trkpt>
      <trkpt lat="58.34309" lon="-4.95206">
        <ele>44.24</ele>
        <time>2021-03-20T22:42:39Z</time>
      </trkpt>
      <trkpt lat="58.34414" lon="-4.95538">
        <ele>45.58</ele>
        <time>2021-03-20T22:42:47Z</time>
      </trkpt>
      <trkpt lat="58.34474" lon="-4.95717">
        <ele>40.88</ele>
        <time>2021-03-20T22:42:55Z</time>
      </trkpt>
      <trkpt lat="58.3454" lon="-4.95867">
        <ele>43.46</ele>
        <time>2021-03-20T22:43:03Z</time>
      </trkpt>
      <trkpt lat="58.34754" lon="-4.96562">
        <ele>45.77</ele>
        <time>2021-03-20T22:43:10Z</time>
      </trkpt>
      <trkpt lat="58.34764" lon="-4.96608">
        <ele>44.96</ele>
        <time>2021-03-20T22:43:18Z</time>
      </trkpt>
      <trkpt lat="58.34808" lon="-4.96719">
        <ele>43.6</ele>
        <time>2021-03-20T22:43:26Z</time>
      </trkpt>
      <trkpt lat="58.34945" lon="-4.96955">
        <ele>41.71</ele>
        <time>2021-03-20T22:43:34Z</time>
      </trkpt>
      <trkpt lat="58.35132" lon="-4.97266">
        <ele>44.68</ele>
        <time>2021-03-20T22:43:41Z</time>
      </trkpt>
      <trkpt lat="58.35546" lon="-4.97945">
        <ele>40.4</ele>
        <time>2021-03-20T22:43:49Z</time>
      </trkpt>
      <trkpt lat="58.35647" lon="-4.9812">
        <ele>40.49</ele>
        <time>2021-03-20T22:43:57Z</time>
      </trkpt>
      <trkpt lat="58.35756" lon="-4.98332">
        <ele>38.27</ele>
        <time>2021-03-20T22:44:05Z</time>
      </trkpt>
      <trkpt lat="58.35813" lon="-4.98421">
        <ele>34.88</ele>
        <time>2021-03-20T22:44:13Z</time>
      </trkpt>
      <trkpt lat="58.36197" lon="-4.98589">
        <ele>33</ele>
        <time>2021-03-20T22:44:20Z</time>
      </trkpt>
      <trkpt lat="58.36247" lon="-4.9862">
        <ele>33.92</ele>
        <time>2021-03-20T22:44:28Z</time>
      </trkpt>
      <trkpt lat="58.36313" lon="-4.98688">
        <ele>37.99</ele>
        <time>2021-03-20T22:44:36Z</time>
      </trkpt>
      <trkpt lat="58.36342" lon="-4.98704">
        <ele>38.46</ele>
        <time>2021-03-20T22:44:44Z</time>
      </trkpt>
      <trkpt lat="58.36376" lon="-4.98705">
        <ele>37.15</ele>
        <time>2021-03-20T22:44:51Z</time>
      </trkpt>
      <trkpt lat="58.3644" lon="-4.987">
        <ele>38.06</ele>
        <time>2021-03-20T22:44:59Z</time>
      </trkpt>
      <trkpt lat="58.36492" lon="-4.98733">
        <ele>40.56</ele>
        <time>2021-03-20T22:45:07Z</time>
      </trkpt>
      <trkpt lat="58.36573" lon="-4.98831">
        <ele>46.53</ele>
        <time>2021-03-20T22:45:15Z</time>
      </trkpt>
      <trkpt lat="58.36641" lon="-4.98931">
        <ele>58.05</ele>
        <time>2021-03-20T22:45:22Z</time>
      </trkpt>
      <trkpt lat="58.3669" lon="-4.98992">
        <ele>63.3</ele>
        <time>2021-03-20T22:45:30Z</time>
      </trkpt>
      <trkpt lat="58.36806" lon="-4.99104">
        <ele>62.06</ele>
        <time>2021-03-20T22:45:38Z</time>
      </trkpt>
      <trkpt lat="58.36881" lon="-4.99168">
        <ele>56.44</ele>
        <time>2021-03-20T22:45:46Z</time>
      </trkpt>
      <trkpt lat="58.36971" lon="-4.9923">
        <ele>53.19</ele>
        <time>2021-03-20T22:45:54Z</time>
      </trkpt>
      <trkpt lat="58.37187" lon="-4.99362">
        <ele>30.08</ele>
        <time>2021-03-20T22:46:01Z</time>
      </trkpt>
      <trkpt lat="58.37228" lon="-4.99406">
        <ele>27.46</ele>
        <time>2021-03-20T22:46:09Z</time>
      </trkpt>
      <trkpt lat="58.37258" lon="-4.99459">
        <ele>23.99</ele>
        <time>2021-03-20T22:46:17Z</time>
      </trkpt>
      <trkpt lat="58.37287" lon="-4.99524">
        <ele>22.15</ele>
        <time>2021-03-20T22:46:25Z</time>
      </trkpt>
      <trkpt lat="58.37359" lon="-4.99715">
        <ele>20.18</ele>
        <time>2021-03-20T22:46:32Z</time>
      </trkpt>
      <trkpt lat="58.37406" lon="-4.99876">
        <ele>22.01</ele>
        <time>2021-03-20T22:46:40Z</time>
      </trkpt>
      <trkpt lat="58.37476" lon="-5.00171">
        <ele>17.79</ele>
        <time>2021-03-20T22:46:48Z</time>
      </trkpt>
      <trkpt lat="58.37525" lon="-5.00414">
        <ele>21.43</ele>
        <time>2021-03-20T22:46:56Z</time>
      </trkpt>
      <trkpt lat="58.3754" lon="-5.00507">
        <ele>21.31</ele>
        <time>2021-03-20T22:47:03Z</time>
      </trkpt>
      <trkpt lat="58.3755" lon="-5.00599">
        <ele>16.76</ele>
        <time>2021-03-20T22:47:11Z</time>
      </trkpt>
      <trkpt lat="58.37547" lon="-5.00728">
        <ele>15.79</ele>
        <time>2021-03-20T22:47:19Z</time>
      </trkpt>
      <trkpt lat="58.37542" lon="-5.00782">
        <ele>15.19</ele>
        <time>2021-03-20T22:47:27Z</time>
      </trkpt>
      <trkpt lat="58.37456" lon="-5.01318">
        <ele>11.81</ele>
        <time>2021-03-20T22:47:35Z</time>
      </trkpt>
      <trkpt lat="58.37369" lon="-5.01649">
        <ele>15.18</ele>
        <time>2021-03-20T22:47:42Z</time>
      </trkpt>
      <trkpt lat="58.37371" lon="-5.01672">
        <ele>14.97</ele>
        <time>2021-03-20T22:47:50Z</time>
      </trkpt>
      <trkpt lat="58.37386" lon="-5.01715">
        <ele>18.31</ele>
        <time>2021-03-20T22:47:58Z</time>
      </trkpt>
      <trkpt lat="58.37409" lon="-5.01696">
        <ele>15.73</ele>
        <time>2021-03-20T22:48:01Z</time>
      </trkpt>
      <trkpt lat="58.37463" lon="-5.01677">
        <ele>10.47</ele>
        <time>2021-03-20T22:48:03Z</time>
      </trkpt>
      <trkpt lat="58.37535" lon="-5.01668">
        <ele>9.48</ele>
        <time>2021-03-20T22:48:06Z</time>
      </trkpt>
      <trkpt lat="58.37569" lon="-5.01676">
        <ele>11.14</ele>
        <time>2021-03-20T22:48:09Z</time>
      </trkpt>
      <trkpt lat="58.37627" lon="-5.01705">
        <ele>12.59</ele>
        <time>2021-03-20T22:48:12Z</time>
      </trkpt>
      <trkpt lat="58.37658" lon="-5.01734">
        <ele>13.29</ele>
        <time>2021-03-20T22:48:15Z</time>
      </trkpt>
      <trkpt lat="58.37688" lon="-5.01777">
        <ele>13.03</ele>
        <time>2021-03-20T22:48:17Z</time>
      </trkpt>
      <trkpt lat="58.37722" lon="-5.01841">
        <ele>12.65</ele>
        <time>2021-03-20T22:48:20Z</time>
      </trkpt>
      <trkpt lat="58.37731" lon="-5.01866">
        <ele>13.8</ele>
        <time>2021-03-20T22:48:23Z</time>
      </trkpt>
      <trkpt lat="58.37754" lon="-5.01943">
        <ele>14.18</ele>
        <time>2021-03-20T22:48:26Z</time>
      </trkpt>
      <trkpt lat="58.37881" lon="-5.0246">
        <ele>8.93</ele>
        <time>2021-03-20T22:48:28Z</time>
      </trkpt>
      <trkpt lat="58.37913" lon="-5.02605">
        <ele>8.4</ele>
        <time>2021-03-20T22:48:31Z</time>
      </trkpt>
      <trkpt lat="58.37947" lon="-5.02789">
        <ele>9.81</ele>
        <time>2021-03-20T22:48:34Z</time>
      </trkpt>
      <trkpt lat="58.37978" lon="-5.02936">
        <ele>10.87</ele>
        <time>2021-03-20T22:48:37Z</time>
      </trkpt>
      <trkpt lat="58.37992" lon="-5.02991">
        <ele>9.35</ele>
        <time>2021-03-20T22:48:39Z</time>
      </trkpt>
      <trkpt lat="58.38005" lon="-5.03035">
        <ele>8.44</ele>
        <time>2021-03-20T22:48:42Z</time>
      </trkpt>
      <trkpt lat="58.3802" lon="-5.03079">
        <ele>8.21</ele>
        <time>2021-03-20T22:48:45Z</time>
      </trkpt>
      <trkpt lat="58.38039" lon="-5.0312">
        <ele>8.16</ele>
        <time>2021-03-20T22:48:48Z</time>
      </trkpt>
      <trkpt lat="58.3806" lon="-5.03161">
        <ele>7.96</ele>
        <time>2021-03-20T22:48:50Z</time>
      </trkpt>
      <trkpt lat="58.38076" lon="-5.03186">
        <ele>7.98</ele>
        <time>2021-03-20T22:48:53Z</time>
      </trkpt>
      <trkpt lat="58.38094" lon="-5.03209">
        <ele>8.91</ele>
        <time>2021-03-20T22:48:56Z</time>
      </trkpt>
      <trkpt lat="58.38116" lon="-5.03234">
        <ele>9.56</ele>
        <time>2021-03-20T22:48:59Z</time>
      </trkpt>
      <trkpt lat="58.38138" lon="-5.03256">
        <ele>10.99</ele>
        <time>2021-03-20T22:49:01Z</time>
      </trkpt>
      <trkpt lat="58.38164" lon="-5.03276">
        <ele>9.18</ele>
        <time>2021-03-20T22:49:04Z</time>
      </trkpt>
      <trkpt lat="58.38215" lon="-5.03304">
        <ele>5.37</ele>
        <time>2021-03-20T22:49:07Z</time>
      </trkpt>
      <trkpt lat="58.38246" lon="-5.03314">
        <ele>4.7</ele>
        <time>2021-03-20T22:49:10Z</time>
      </trkpt>
      <trkpt lat="58.38283" lon="-5.03317">
        <ele>5.17</ele>
        <time>2021-03-20T22:49:13Z</time>
      </trkpt>
      <trkpt lat="58.38316" lon="-5.03312">
        <ele>8.24</ele>
        <time>2021-03-20T22:49:15Z</time>
      </trkpt>
      <trkpt lat="58.38356" lon="-5.03295">
        <ele>12.17</ele>
        <time>2021-03-20T22:49:18Z</time>
      </trkpt>
      <trkpt lat="58.38384" lon="-5.03279">
        <ele>15.12</ele>
        <time>2021-03-20T22:49:21Z</time>
      </trkpt>
      <trkpt lat="58.38432" lon="-5.03237">
        <ele>22.69</ele>
        <time>2021-03-20T22:49:24Z</time>
      </trkpt>
      <trkpt lat="58.38463" lon="-5.03196">
        <ele>30.27</ele>
        <time>2021-03-20T22:49:26Z</time>
      </trkpt>
      <trkpt lat="58.38545" lon="-5.03072">
        <ele>44.4</ele>
        <time>2021-03-20T22:49:29Z</time>
      </trkpt>
      <trkpt lat="58.38545" lon="-5.03072">
        <ele>44.4</ele>
        <time>2021-03-20T22:49:29Z</time>
      </trkpt>
      <trkpt lat="58.38777" lon="-5.02725">
        <ele>54</ele>
        <time>2021-03-20T22:49:35Z</time>
      </trkpt>
      <trkpt lat="58.38801" lon="-5.02693">
        <ele>50.87</ele>
        <time>2021-03-20T22:49:41Z</time>
      </trkpt>
      <trkpt lat="58.3888" lon="-5.02607">
        <ele>43.6</ele>
        <time>2021-03-20T22:49:47Z</time>
      </trkpt>
      <trkpt lat="58.39295" lon="-5.02277">
        <ele>44.26</ele>
        <time>2021-03-20T22:49:53Z</time>
      </trkpt>
      <trkpt lat="58.39384" lon="-5.02196">
        <ele>39.28</ele>
        <time>2021-03-20T22:49:59Z</time>
      </trkpt>
      <trkpt lat="58.39474" lon="-5.0208">
        <ele>43.31</ele>
        <time>2021-03-20T22:50:05Z</time>
      </trkpt>
      <trkpt lat="58.39709" lon="-5.01642">
        <ele>62.17</ele>
        <time>2021-03-20T22:50:11Z</time>
      </trkpt>
      <trkpt lat="58.39792" lon="-5.01522">
        <ele>64.58</ele>
        <time>2021-03-20T22:50:16Z</time>
      </trkpt>
      <trkpt lat="58.39923" lon="-5.01386">
        <ele>63.82</ele>
        <time>2021-03-20T22:50:22Z</time>
      </trkpt>
      <trkpt lat="58.40109" lon="-5.01226">
        <ele>61.94</ele>
        <time>2021-03-20T22:50:28Z</time>
      </trkpt>
      <trkpt lat="58.40364" lon="-5.00992">
        <ele>40.36</ele>
        <time>2021-03-20T22:50:34Z</time>
      </trkpt>
      <trkpt lat="58.40406" lon="-5.00937">
        <ele>42.38</ele>
        <time>2021-03-20T22:50:40Z</time>
      </trkpt>
      <trkpt lat="58.40446" lon="-5.00869">
        <ele>43.63</ele>
        <time>2021-03-20T22:50:46Z</time>
      </trkpt>
      <trkpt lat="58.40485" lon="-5.00771">
        <ele>44.49</ele>
        <time>2021-03-20T22:50:52Z</time>
      </trkpt>
      <trkpt lat="58.40538" lon="-5.00595">
        <ele>39.64</ele>
        <time>2021-03-20T22:50:58Z</time>
      </trkpt>
      <trkpt lat="58.40569" lon="-5.0051">
        <ele>41.1</ele>
        <time>2021-03-20T22:51:04Z</time>
      </trkpt>
      <trkpt lat="58.4061" lon="-5.00429">
        <ele>43.57</ele>
        <time>2021-03-20T22:51:10Z</time>
      </trkpt>
      <trkpt lat="58.40655" lon="-5.00359">
        <ele>43.44</ele>
        <time>2021-03-20T22:51:16Z</time>
      </trkpt>
      <trkpt lat="58.40691" lon="-5.0032">
        <ele>43.26</ele>
        <time>2021-03-20T22:51:21Z</time>
      </trkpt>
      <trkpt lat="58.40729" lon="-5.00287">
        <ele>42.51</ele>
        <time>2021-03-20T22:51:27Z</time>
      </trkpt>
      <trkpt lat="58.40767" lon="-5.00266">
        <ele>42.17</ele>
        <time>2021-03-20T22:51:33Z</time>
      </trkpt>
      <trkpt lat="58.40812" lon="-5.00253">
        <ele>42</ele>
        <time>2021-03-20T22:51:39Z</time>
      </trkpt>
      <trkpt lat="58.40874" lon="-5.00255">
        <ele>42.45</ele>
        <time>2021-03-20T22:51:45Z</time>
      </trkpt>
      <trkpt lat="58.4103" lon="-5.00279">
        <ele>46.06</ele>
        <time>2021-03-20T22:51:51Z</time>
      </trkpt>
      <trkpt lat="58.41127" lon="-5.00299">
        <ele>50.24</ele>
        <time>2021-03-20T22:51:57Z</time>
      </trkpt>
      <trkpt lat="58.41867" lon="-5.00434">
        <ele>31.01</ele>
        <time>2021-03-20T22:52:03Z</time>
      </trkpt>
      <trkpt lat="58.41956" lon="-5.00418">
        <ele>36.79</ele>
        <time>2021-03-20T22:52:09Z</time>
      </trkpt>
      <trkpt lat="58.41981" lon="-5.00408">
        <ele>38.81</ele>
        <time>2021-03-20T22:52:15Z</time>
      </trkpt>
      <trkpt lat="58.42026" lon="-5.0038">
        <ele>41.57</ele>
        <time>2021-03-20T22:52:21Z</time>
      </trkpt>
      <trkpt lat="58.42081" lon="-5.00303">
        <ele>37.93</ele>
        <time>2021-03-20T22:52:27Z</time>
      </trkpt>
      <trkpt lat="58.42137" lon="-5.00206">
        <ele>32.19</ele>
        <time>2021-03-20T22:52:32Z</time>
      </trkpt>
      <trkpt lat="58.42185" lon="-5.00021">
        <ele>27.45</ele>
        <time>2021-03-20T22:52:38Z</time>
      </trkpt>
      <trkpt lat="58.42291" lon="-4.993">
        <ele>8.26</ele>
        <time>2021-03-20T22:52:44Z</time>
      </trkpt>
      <trkpt lat="58.4234" lon="-4.99141">
        <ele>5.93</ele>
        <time>2021-03-20T22:52:50Z</time>
      </trkpt>
      <trkpt lat="58.42414" lon="-4.99016">
        <ele>12.29</ele>
        <time>2021-03-20T22:52:56Z</time>
      </trkpt>
      <trkpt lat="58.42431" lon="-4.98985">
        <ele>14.57</ele>
        <time>2021-03-20T22:53:02Z</time>
      </trkpt>
      <trkpt lat="58.42443" lon="-4.98943">
        <ele>18.15</ele>
        <time>2021-03-20T22:53:08Z</time>
      </trkpt>
      <trkpt lat="58.42463" lon="-4.9891">
        <ele>18.94</ele>
        <time>2021-03-20T22:53:14Z</time>
      </trkpt>
      <trkpt lat="58.42473" lon="-4.9889">
        <ele>18.76</ele>
        <time>2021-03-20T22:53:20Z</time>
      </trkpt>
      <trkpt lat="58.42476" lon="-4.98866">
        <ele>18.27</ele>
        <time>2021-03-20T22:53:26Z</time>
      </trkpt>
      <trkpt lat="58.42475" lon="-4.98792">
        <ele>19.45</ele>
        <time>2021-03-20T22:53:32Z</time>
      </trkpt>
      <trkpt lat="58.42465" lon="-4.98706">
        <ele>21.56</ele>
        <time>2021-03-20T22:53:37Z</time>
      </trkpt>
      <trkpt lat="58.42456" lon="-4.98593">
        <ele>23.6</ele>
        <time>2021-03-20T22:53:43Z</time>
      </trkpt>
      <trkpt lat="58.42457" lon="-4.98551">
        <ele>25</ele>
        <time>2021-03-20T22:53:49Z</time>
      </trkpt>
      <trkpt lat="58.42462" lon="-4.9851">
        <ele>27.42</ele>
        <time>2021-03-20T22:53:55Z</time>
      </trkpt>
      <trkpt lat="58.42475" lon="-4.98466">
        <ele>28.99</ele>
        <time>2021-03-20T22:54:01Z</time>
      </trkpt>
      <trkpt lat="58.42492" lon="-4.98438">
        <ele>28.6</ele>
        <time>2021-03-20T22:54:07Z</time>
      </trkpt>
      <trkpt lat="58.42516" lon="-4.98419">
        <ele>27.14</ele>
        <time>2021-03-20T22:54:13Z</time>
      </trkpt>
      <trkpt lat="58.42531" lon="-4.98413">
        <ele>26.63</ele>
        <time>2021-03-20T22:54:19Z</time>
      </trkpt>
      <trkpt lat="58.4257" lon="-4.98414">
        <ele>29.94</ele>
        <time>2021-03-20T22:54:25Z</time>
      </trkpt>
      <trkpt lat="58.42665" lon="-4.98462">
        <ele>34.56</ele>
        <time>2021-03-20T22:54:31Z</time>
      </trkpt>
      <trkpt lat="58.42723" lon="-4.98447">
        <ele>34.72</ele>
        <time>2021-03-20T22:54:37Z</time>
      </trkpt>
      <trkpt lat="58.42783" lon="-4.98311">
        <ele>39.85</ele>
        <time>2021-03-20T22:54:43Z</time>
      </trkpt>
      <trkpt lat="58.42808" lon="-4.98233">
        <ele>42.38</ele>
        <time>2021-03-20T22:54:48Z</time>
      </trkpt>
      <trkpt lat="58.42831" lon="-4.98128">
        <ele>48.98</ele>
        <time>2021-03-20T22:54:54Z</time>
      </trkpt>
      <trkpt lat="58.42877" lon="-4.97809">
        <ele>60.33</ele>
        <time>2021-03-20T22:55:00Z</time>
      </trkpt>
      <trkpt lat="58.42908" lon="-4.97564">
        <ele>70</ele>
        <time>2021-03-20T22:55:06Z</time>
      </trkpt>
      <trkpt lat="58.42996" lon="-4.97237">
        <ele>74.4</ele>
        <time>2021-03-20T22:55:12Z</time>
      </trkpt>
      <trkpt lat="58.43025" lon="-4.97195">
        <ele>74</ele>
        <time>2021-03-20T22:55:18Z</time>
      </trkpt>
      <trkpt lat="58.43042" lon="-4.97177">
        <ele>74.32</ele>
        <time>2021-03-20T22:55:24Z</time>
      </trkpt>
      <trkpt lat="58.43075" lon="-4.97155">
        <ele>75.73</ele>
        <time>2021-03-20T22:55:30Z</time>
      </trkpt>
      <trkpt lat="58.43237" lon="-4.971">
        <ele>72.35</ele>
        <time>2021-03-20T22:55:36Z</time>
      </trkpt>
      <trkpt lat="58.4343" lon="-4.96862">
        <ele>69.73</ele>
        <time>2021-03-20T22:55:42Z</time>
      </trkpt>
      <trkpt lat="58.43612" lon="-4.96552">
        <ele>61.4</ele>
        <time>2021-03-20T22:55:48Z</time>
      </trkpt>
      <trkpt lat="58.43671" lon="-4.96463">
        <ele>60.04</ele>
        <time>2021-03-20T22:55:53Z</time>
      </trkpt>
      <trkpt lat="58.43793" lon="-4.96196">
        <ele>66.36</ele>
        <time>2021-03-20T22:55:59Z</time>
      </trkpt>
      <trkpt lat="58.44069" lon="-4.95771">
        <ele>75.89</ele>
        <time>2021-03-20T22:56:05Z</time>
      </trkpt>
      <trkpt lat="58.4434" lon="-4.9513">
        <ele>96.85</ele>
        <time>2021-03-20T22:56:11Z</time>
      </trkpt>
      <trkpt lat="58.44423" lon="-4.95048">
        <ele>101.07</ele>
        <time>2021-03-20T22:56:17Z</time>
      </trkpt>
      <trkpt lat="58.44541" lon="-4.94822">
        <ele>112.72</ele>
        <time>2021-03-20T22:56:23Z</time>
      </trkpt>
      <trkpt lat="58.44849" lon="-4.94097">
        <ele>136.57</ele>
        <time>2021-03-20T22:56:29Z</time>
      </trkpt>
      <trkpt lat="58.45085" lon="-4.93747">
        <ele>145.08</ele>
        <time>2021-03-20T22:56:35Z</time>
      </trkpt>
      <trkpt lat="58.45256" lon="-4.93424">
        <ele>153.95</ele>
        <time>2021-03-20T22:56:41Z</time>
      </trkpt>
      <trkpt lat="58.45318" lon="-4.93234">
        <ele>154.57</ele>
        <time>2021-03-20T22:56:47Z</time>
      </trkpt>
      <trkpt lat="58.45342" lon="-4.93143">
        <ele>155.64</ele>
        <time>2021-03-20T22:56:53Z</time>
      </trkpt>
      <trkpt lat="58.45379" lon="-4.93055">
        <ele>156.97</ele>
        <time>2021-03-20T22:56:58Z</time>
      </trkpt>
      <trkpt lat="58.45541" lon="-4.92808">
        <ele>158.62</ele>
        <time>2021-03-20T22:57:04Z</time>
      </trkpt>
      <trkpt lat="58.45589" lon="-4.92694">
        <ele>159.75</ele>
        <time>2021-03-20T22:57:10Z</time>
      </trkpt>
      <trkpt lat="58.45791" lon="-4.92239">
        <ele>165.07</ele>
        <time>2021-03-20T22:57:16Z</time>
      </trkpt>
      <trkpt lat="58.45921" lon="-4.92056">
        <ele>163.51</ele>
        <time>2021-03-20T22:57:22Z</time>
      </trkpt>
      <trkpt lat="58.46149" lon="-4.91359">
        <ele>174.66</ele>
        <time>2021-03-20T22:57:28Z</time>
      </trkpt>
      <trkpt lat="58.46194" lon="-4.91232">
        <ele>176.24</ele>
        <time>2021-03-20T22:57:34Z</time>
      </trkpt>
      <trkpt lat="58.4623" lon="-4.91057">
        <ele>179.82</ele>
        <time>2021-03-20T22:57:40Z</time>
      </trkpt>
      <trkpt lat="58.46281" lon="-4.90891">
        <ele>183.71</ele>
        <time>2021-03-20T22:57:46Z</time>
      </trkpt>
      <trkpt lat="58.46348" lon="-4.90768">
        <ele>191.25</ele>
        <time>2021-03-20T22:57:52Z</time>
      </trkpt>
      <trkpt lat="58.46394" lon="-4.90647">
        <ele>190.38</ele>
        <time>2021-03-20T22:57:58Z</time>
      </trkpt>
      <trkpt lat="58.46458" lon="-4.90404">
        <ele>180.56</ele>
        <time>2021-03-20T22:58:04Z</time>
      </trkpt>
      <trkpt lat="58.46492" lon="-4.90306">
        <ele>175.76</ele>
        <time>2021-03-20T22:58:09Z</time>
      </trkpt>
      <trkpt lat="58.46512" lon="-4.90266">
        <ele>174.7</ele>
        <time>2021-03-20T22:58:15Z</time>
      </trkpt>
      <trkpt lat="58.46565" lon="-4.90189">
        <ele>173.12</ele>
        <time>2021-03-20T22:58:21Z</time>
      </trkpt>
      <trkpt lat="58.46809" lon="-4.89983">
        <ele>166.84</ele>
        <time>2021-03-20T22:58:27Z</time>
      </trkpt>
      <trkpt lat="58.46838" lon="-4.8993">
        <ele>166.62</ele>
        <time>2021-03-20T22:58:33Z</time>
      </trkpt>
      <trkpt lat="58.46859" lon="-4.89863">
        <ele>167.8</ele>
        <time>2021-03-20T22:58:39Z</time>
      </trkpt>
      <trkpt lat="58.46916" lon="-4.89593">
        <ele>166.96</ele>
        <time>2021-03-20T22:58:45Z</time>
      </trkpt>
      <trkpt lat="58.46956" lon="-4.89486">
        <ele>166.05</ele>
        <time>2021-03-20T22:58:51Z</time>
      </trkpt>
      <trkpt lat="58.47031" lon="-4.89303">
        <ele>167.39</ele>
        <time>2021-03-20T22:58:57Z</time>
      </trkpt>
      <trkpt lat="58.47099" lon="-4.89192">
        <ele>159.99</ele>
        <time>2021-03-20T22:59:03Z</time>
      </trkpt>
      <trkpt lat="58.47202" lon="-4.89096">
        <ele>159.91</ele>
        <time>2021-03-20T22:59:09Z</time>
      </trkpt>
      <trkpt lat="58.47339" lon="-4.88917">
        <ele>151.71</ele>
        <time>2021-03-20T22:59:14Z</time>
      </trkpt>
      <trkpt lat="58.47517" lon="-4.8875">
        <ele>143.8</ele>
        <time>2021-03-20T22:59:20Z</time>
      </trkpt>
      <trkpt lat="58.47627" lon="-4.88615">
        <ele>136.17</ele>
        <time>2021-03-20T22:59:26Z</time>
      </trkpt>
      <trkpt lat="58.47796" lon="-4.88377">
        <ele>122.88</ele>
        <time>2021-03-20T22:59:32Z</time>
      </trkpt>
      <trkpt lat="58.47933" lon="-4.88109">
        <ele>113.58</ele>
        <time>2021-03-20T22:59:38Z</time>
      </trkpt>
      <trkpt lat="58.48092" lon="-4.87806">
        <ele>100.57</ele>
        <time>2021-03-20T22:59:44Z</time>
      </trkpt>
      <trkpt lat="58.48159" lon="-4.87699">
        <ele>96.65</ele>
        <time>2021-03-20T22:59:50Z</time>
      </trkpt>
      <trkpt lat="58.48316" lon="-4.87461">
        <ele>90.35</ele>
        <time>2021-03-20T22:59:56Z</time>
      </trkpt>
      <trkpt lat="58.48464" lon="-4.87174">
        <ele>79.56</ele>
        <time>2021-03-20T23:00:02Z</time>
      </trkpt>
      <trkpt lat="58.48529" lon="-4.87091">
        <ele>77.11</ele>
        <time>2021-03-20T23:00:08Z</time>
      </trkpt>
      <trkpt lat="58.48599" lon="-4.86971">
        <ele>76.7</ele>
        <time>2021-03-20T23:00:14Z</time>
      </trkpt>
      <trkpt lat="58.48733" lon="-4.86666">
        <ele>68.45</ele>
        <time>2021-03-20T23:00:19Z</time>
      </trkpt>
      <trkpt lat="58.48784" lon="-4.86554">
        <ele>65.9</ele>
        <time>2021-03-20T23:00:25Z</time>
      </trkpt>
      <trkpt lat="58.48832" lon="-4.86473">
        <ele>65.89</ele>
        <time>2021-03-20T23:00:31Z</time>
      </trkpt>
      <trkpt lat="58.48878" lon="-4.86354">
        <ele>64.87</ele>
        <time>2021-03-20T23:00:37Z</time>
      </trkpt>
      <trkpt lat="58.48916" lon="-4.86223">
        <ele>61.01</ele>
        <time>2021-03-20T23:00:43Z</time>
      </trkpt>
      <trkpt lat="58.48937" lon="-4.86144">
        <ele>60.36</ele>
        <time>2021-03-20T23:00:49Z</time>
      </trkpt>
      <trkpt lat="58.49019" lon="-4.85936">
        <ele>56.39</ele>
        <time>2021-03-20T23:00:55Z</time>
      </trkpt>
      <trkpt lat="58.49067" lon="-4.85798">
        <ele>54</ele>
        <time>2021-03-20T23:01:01Z</time>
      </trkpt>
      <trkpt lat="58.49162" lon="-4.85491">
        <ele>51.79</ele>
        <time>2021-03-20T23:01:07Z</time>
      </trkpt>
      <trkpt lat="58.49241" lon="-4.85223">
        <ele>47.39</ele>
        <time>2021-03-20T23:01:13Z</time>
      </trkpt>
      <trkpt lat="58.49318" lon="-4.84899">
        <ele>43.84</ele>
        <time>2021-03-20T23:01:19Z</time>
      </trkpt>
      <trkpt lat="58.49427" lon="-4.8402">
        <ele>31.45</ele>
        <time>2021-03-20T23:01:25Z</time>
      </trkpt>
      <trkpt lat="58.49475" lon="-4.83659">
        <ele>31</ele>
        <time>2021-03-20T23:01:30Z</time>
      </trkpt>
      <trkpt lat="58.49561" lon="-4.83274">
        <ele>28.29</ele>
        <time>2021-03-20T23:01:36Z</time>
      </trkpt>
      <trkpt lat="58.49573" lon="-4.83187">
        <ele>26.94</ele>
        <time>2021-03-20T23:01:42Z</time>
      </trkpt>
      <trkpt lat="58.49603" lon="-4.82909">
        <ele>25.58</ele>
        <time>2021-03-20T23:01:48Z</time>
      </trkpt>
      <trkpt lat="58.49634" lon="-4.82767">
        <ele>24.86</ele>
        <time>2021-03-20T23:01:54Z</time>
      </trkpt>
      <trkpt lat="58.4968" lon="-4.82564">
        <ele>20.43</ele>
        <time>2021-03-20T23:02:00Z</time>
      </trkpt>
      <trkpt lat="58.49732" lon="-4.82454">
        <ele>22.45</ele>
        <time>2021-03-20T23:02:06Z</time>
      </trkpt>
      <trkpt lat="58.49794" lon="-4.82269">
        <ele>20.78</ele>
        <time>2021-03-20T23:02:12Z</time>
      </trkpt>
      <trkpt lat="58.49855" lon="-4.82128">
        <ele>20.7</ele>
        <time>2021-03-20T23:02:18Z</time>
      </trkpt>
      <trkpt lat="58.49891" lon="-4.82017">
        <ele>18.42</ele>
        <time>2021-03-20T23:02:24Z</time>
      </trkpt>
      <trkpt lat="58.4992" lon="-4.81916">
        <ele>17.24</ele>
        <time>2021-03-20T23:02:30Z</time>
      </trkpt>
      <trkpt lat="58.49955" lon="-4.81829">
        <ele>17.23</ele>
        <time>2021-03-20T23:02:35Z</time>
      </trkpt>
      <trkpt lat="58.50018" lon="-4.8169">
        <ele>14.49</ele>
        <time>2021-03-20T23:02:41Z</time>
      </trkpt>
      <trkpt lat="58.50038" lon="-4.81656">
        <ele>14</ele>
        <time>2021-03-20T23:02:47Z</time>
      </trkpt>
      <trkpt lat="58.50056" lon="-4.81634">
        <ele>13.81</ele>
        <time>2021-03-20T23:02:53Z</time>
      </trkpt>
      <trkpt lat="58.50077" lon="-4.81622">
        <ele>12.62</ele>
        <time>2021-03-20T23:02:59Z</time>
      </trkpt>
      <trkpt lat="58.50091" lon="-4.8162">
        <ele>12.02</ele>
        <time>2021-03-20T23:03:05Z</time>
      </trkpt>
      <trkpt lat="58.50103" lon="-4.81621">
        <ele>11.64</ele>
        <time>2021-03-20T23:03:11Z</time>
      </trkpt>
      <trkpt lat="58.5015" lon="-4.81638">
        <ele>11.99</ele>
        <time>2021-03-20T23:03:17Z</time>
      </trkpt>
      <trkpt lat="58.50166" lon="-4.81641">
        <ele>12</ele>
        <time>2021-03-20T23:03:23Z</time>
      </trkpt>
      <trkpt lat="58.50189" lon="-4.81629">
        <ele>13.17</ele>
        <time>2021-03-20T23:03:29Z</time>
      </trkpt>
      <trkpt lat="58.502" lon="-4.81617">
        <ele>13.81</ele>
        <time>2021-03-20T23:03:35Z</time>
      </trkpt>
      <trkpt lat="58.50346" lon="-4.81364">
        <ele>17</ele>
        <time>2021-03-20T23:03:40Z</time>
      </trkpt>
      <trkpt lat="58.50391" lon="-4.81295">
        <ele>16.92</ele>
        <time>2021-03-20T23:03:46Z</time>
      </trkpt>
      <trkpt lat="58.50433" lon="-4.81251">
        <ele>15.43</ele>
        <time>2021-03-20T23:03:52Z</time>
      </trkpt>
      <trkpt lat="58.50477" lon="-4.81214">
        <ele>15.18</ele>
        <time>2021-03-20T23:03:58Z</time>
      </trkpt>
      <trkpt lat="58.50553" lon="-4.81161">
        <ele>14.54</ele>
        <time>2021-03-20T23:04:04Z</time>
      </trkpt>
      <trkpt lat="58.50788" lon="-4.81009">
        <ele>16.97</ele>
        <time>2021-03-20T23:04:10Z</time>
      </trkpt>
      <trkpt lat="58.50831" lon="-4.80993">
        <ele>16.64</ele>
        <time>2021-03-20T23:04:16Z</time>
      </trkpt>
      <trkpt lat="58.50896" lon="-4.8098">
        <ele>17.45</ele>
        <time>2021-03-20T23:04:22Z</time>
      </trkpt>
      <trkpt lat="58.50984" lon="-4.80968">
        <ele>17.3</ele>
        <time>2021-03-20T23:04:28Z</time>
      </trkpt>
      <trkpt lat="58.51025" lon="-4.80957">
        <ele>18.08</ele>
        <time>2021-03-20T23:04:34Z</time>
      </trkpt>
      <trkpt lat="58.51109" lon="-4.80919">
        <ele>16.91</ele>
        <time>2021-03-20T23:04:40Z</time>
      </trkpt>
      <trkpt lat="58.51545" lon="-4.80614">
        <ele>13</ele>
        <time>2021-03-20T23:04:46Z</time>
      </trkpt>
      <trkpt lat="58.5172" lon="-4.80484">
        <ele>12.65</ele>
        <time>2021-03-20T23:04:51Z</time>
      </trkpt>
      <trkpt lat="58.51824" lon="-4.80411">
        <ele>11.54</ele>
        <time>2021-03-20T23:04:57Z</time>
      </trkpt>
      <trkpt lat="58.51899" lon="-4.80355">
        <ele>11.14</ele>
        <time>2021-03-20T23:05:03Z</time>
      </trkpt>
      <trkpt lat="58.51947" lon="-4.80314">
        <ele>10</ele>
        <time>2021-03-20T23:05:09Z</time>
      </trkpt>
      <trkpt lat="58.51988" lon="-4.80273">
        <ele>10.63</ele>
        <time>2021-03-20T23:05:15Z</time>
      </trkpt>
      <trkpt lat="58.52046" lon="-4.80187">
        <ele>10.09</ele>
        <time>2021-03-20T23:05:21Z</time>
      </trkpt>
      <trkpt lat="58.52131" lon="-4.80045">
        <ele>9.27</ele>
        <time>2021-03-20T23:05:27Z</time>
      </trkpt>
      <trkpt lat="58.52166" lon="-4.79976">
        <ele>8.02</ele>
        <time>2021-03-20T23:05:33Z</time>
      </trkpt>
      <trkpt lat="58.52226" lon="-4.79845">
        <ele>8.41</ele>
        <time>2021-03-20T23:05:39Z</time>
      </trkpt>
      <trkpt lat="58.52248" lon="-4.79808">
        <ele>8</ele>
        <time>2021-03-20T23:05:45Z</time>
      </trkpt>
      <trkpt lat="58.52265" lon="-4.79786">
        <ele>7.63</ele>
        <time>2021-03-20T23:05:51Z</time>
      </trkpt>
      <trkpt lat="58.52289" lon="-4.79766">
        <ele>7</ele>
        <time>2021-03-20T23:05:56Z</time>
      </trkpt>
      <trkpt lat="58.52315" lon="-4.79751">
        <ele>6.65</ele>
        <time>2021-03-20T23:06:02Z</time>
      </trkpt>
      <trkpt lat="58.52328" lon="-4.79747">
        <ele>6.1</ele>
        <time>2021-03-20T23:06:08Z</time>
      </trkpt>
      <trkpt lat="58.5235" lon="-4.79744">
        <ele>5.44</ele>
        <time>2021-03-20T23:06:14Z</time>
      </trkpt>
      <trkpt lat="58.52465" lon="-4.79752">
        <ele>8.38</ele>
        <time>2021-03-20T23:06:20Z</time>
      </trkpt>
      <trkpt lat="58.52642" lon="-4.79755">
        <ele>10.68</ele>
        <time>2021-03-20T23:06:26Z</time>
      </trkpt>
      <trkpt lat="58.52716" lon="-4.79734">
        <ele>11.38</ele>
        <time>2021-03-20T23:06:32Z</time>
      </trkpt>
      <trkpt lat="58.5275" lon="-4.7972">
        <ele>11.3</ele>
        <time>2021-03-20T23:06:38Z</time>
      </trkpt>
      <trkpt lat="58.52784" lon="-4.79699">
        <ele>11.68</ele>
        <time>2021-03-20T23:06:44Z</time>
      </trkpt>
      <trkpt lat="58.52859" lon="-4.79622">
        <ele>12.21</ele>
        <time>2021-03-20T23:06:50Z</time>
      </trkpt>
      <trkpt lat="58.52922" lon="-4.7955">
        <ele>9.76</ele>
        <time>2021-03-20T23:06:56Z</time>
      </trkpt>
      <trkpt lat="58.53032" lon="-4.79368">
        <ele>12.49</ele>
        <time>2021-03-20T23:07:02Z</time>
      </trkpt>
      <trkpt lat="58.53117" lon="-4.79203">
        <ele>14.41</ele>
        <time>2021-03-20T23:07:07Z</time>
      </trkpt>
      <trkpt lat="58.53238" lon="-4.79045">
        <ele>13.76</ele>
        <time>2021-03-20T23:07:13Z</time>
      </trkpt>
      <trkpt lat="58.53256" lon="-4.79033">
        <ele>12.95</ele>
        <time>2021-03-20T23:07:19Z</time>
      </trkpt>
      <trkpt lat="58.53419" lon="-4.79006">
        <ele>15.77</ele>
        <time>2021-03-20T23:07:25Z</time>
      </trkpt>
      <trkpt lat="58.53435" lon="-4.78998">
        <ele>15.89</ele>
        <time>2021-03-20T23:07:31Z</time>
      </trkpt>
      <trkpt lat="58.53446" lon="-4.78986">
        <ele>16.34</ele>
        <time>2021-03-20T23:07:37Z</time>
      </trkpt>
      <trkpt lat="58.53482" lon="-4.78935">
        <ele>18.44</ele>
        <time>2021-03-20T23:07:43Z</time>
      </trkpt>
      <trkpt lat="58.53588" lon="-4.78826">
        <ele>11.59</ele>
        <time>2021-03-20T23:07:49Z</time>
      </trkpt>
      <trkpt lat="58.53655" lon="-4.78719">
        <ele>9.28</ele>
        <time>2021-03-20T23:07:55Z</time>
      </trkpt>
      <trkpt lat="58.5367" lon="-4.78669">
        <ele>7.59</ele>
        <time>2021-03-20T23:08:01Z</time>
      </trkpt>
      <trkpt lat="58.53682" lon="-4.78619">
        <ele>6.43</ele>
        <time>2021-03-20T23:08:07Z</time>
      </trkpt>
      <trkpt lat="58.53737" lon="-4.78458">
        <ele>3.21</ele>
        <time>2021-03-20T23:08:12Z</time>
      </trkpt>
      <trkpt lat="58.53759" lon="-4.78406">
        <ele>3.07</ele>
        <time>2021-03-20T23:08:18Z</time>
      </trkpt>
      <trkpt lat="58.5378" lon="-4.78379">
        <ele>3.36</ele>
        <time>2021-03-20T23:08:24Z</time>
      </trkpt>
      <trkpt lat="58.53843" lon="-4.78324">
        <ele>4.32</ele>
        <time>2021-03-20T23:08:30Z</time>
      </trkpt>
      <trkpt lat="58.53991" lon="-4.78185">
        <ele>3.81</ele>
        <time>2021-03-20T23:08:36Z</time>
      </trkpt>
      <trkpt lat="58.54033" lon="-4.78156">
        <ele>3.76</ele>
        <time>2021-03-20T23:08:42Z</time>
      </trkpt>
      <trkpt lat="58.54108" lon="-4.78115">
        <ele>3.93</ele>
        <time>2021-03-20T23:08:48Z</time>
      </trkpt>
      <trkpt lat="58.54127" lon="-4.7811">
        <ele>4.09</ele>
        <time>2021-03-20T23:08:54Z</time>
      </trkpt>
      <trkpt lat="58.54219" lon="-4.78107">
        <ele>3.47</ele>
        <time>2021-03-20T23:09:00Z</time>
      </trkpt>
      <trkpt lat="58.54238" lon="-4.78103">
        <ele>4.29</ele>
        <time>2021-03-20T23:09:06Z</time>
      </trkpt>
      <trkpt lat="58.54257" lon="-4.78092">
        <ele>4.97</ele>
        <time>2021-03-20T23:09:12Z</time>
      </trkpt>
      <trkpt lat="58.54273" lon="-4.78075">
        <ele>4.68</ele>
        <time>2021-03-20T23:09:17Z</time>
      </trkpt>
      <trkpt lat="58.54313" lon="-4.78021">
        <ele>3.98</ele>
        <time>2021-03-20T23:09:23Z</time>
      </trkpt>
      <trkpt lat="58.54341" lon="-4.77996">
        <ele>4.13</ele>
        <time>2021-03-20T23:09:29Z</time>
      </trkpt>
      <trkpt lat="58.54422" lon="-4.77934">
        <ele>6.17</ele>
        <time>2021-03-20T23:09:35Z</time>
      </trkpt>
      <trkpt lat="58.54453" lon="-4.77921">
        <ele>6.1</ele>
        <time>2021-03-20T23:09:41Z</time>
      </trkpt>
      <trkpt lat="58.54534" lon="-4.77901">
        <ele>5.45</ele>
        <time>2021-03-20T23:09:47Z</time>
      </trkpt>
      <trkpt lat="58.54625" lon="-4.7787">
        <ele>5.86</ele>
        <time>2021-03-20T23:09:53Z</time>
      </trkpt>
      <trkpt lat="58.54722" lon="-4.77816">
        <ele>4.86</ele>
        <time>2021-03-20T23:09:59Z</time>
      </trkpt>
      <trkpt lat="58.54852" lon="-4.77784">
        <ele>10.52</ele>
        <time>2021-03-20T23:10:05Z</time>
      </trkpt>
      <trkpt lat="58.54878" lon="-4.77771">
        <ele>11.34</ele>
        <time>2021-03-20T23:10:11Z</time>
      </trkpt>
      <trkpt lat="58.5491" lon="-4.77746">
        <ele>12.92</ele>
        <time>2021-03-20T23:10:17Z</time>
      </trkpt>
      <trkpt lat="58.54941" lon="-4.77715">
        <ele>13.64</ele>
        <time>2021-03-20T23:10:23Z</time>
      </trkpt>
      <trkpt lat="58.55024" lon="-4.77553">
        <ele>16.62</ele>
        <time>2021-03-20T23:10:28Z</time>
      </trkpt>
      <trkpt lat="58.55067" lon="-4.77502">
        <ele>19.44</ele>
        <time>2021-03-20T23:10:34Z</time>
      </trkpt>
      <trkpt lat="58.55131" lon="-4.77448">
        <ele>22.61</ele>
        <time>2021-03-20T23:10:40Z</time>
      </trkpt>
      <trkpt lat="58.55277" lon="-4.77368">
        <ele>31.53</ele>
        <time>2021-03-20T23:10:46Z</time>
      </trkpt>
      <trkpt lat="58.55441" lon="-4.77184">
        <ele>45.26</ele>
        <time>2021-03-20T23:10:52Z</time>
      </trkpt>
      <trkpt lat="58.55524" lon="-4.77055">
        <ele>51.87</ele>
        <time>2021-03-20T23:10:58Z</time>
      </trkpt>
      <trkpt lat="58.55572" lon="-4.76894">
        <ele>52.8</ele>
        <time>2021-03-20T23:11:04Z</time>
      </trkpt>
      <trkpt lat="58.55666" lon="-4.76819">
        <ele>50.01</ele>
        <time>2021-03-20T23:11:10Z</time>
      </trkpt>
      <trkpt lat="58.55708" lon="-4.76757">
        <ele>46.32</ele>
        <time>2021-03-20T23:11:16Z</time>
      </trkpt>
      <trkpt lat="58.55769" lon="-4.76736">
        <ele>42.65</ele>
        <time>2021-03-20T23:11:22Z</time>
      </trkpt>
      <trkpt lat="58.55853" lon="-4.76624">
        <ele>39.55</ele>
        <time>2021-03-20T23:11:28Z</time>
      </trkpt>
      <trkpt lat="58.55947" lon="-4.76548">
        <ele>38.73</ele>
        <time>2021-03-20T23:11:33Z</time>
      </trkpt>
      <trkpt lat="58.56024" lon="-4.76495">
        <ele>40.84</ele>
        <time>2021-03-20T23:11:39Z</time>
      </trkpt>
      <trkpt lat="58.56097" lon="-4.76418">
        <ele>38.9</ele>
        <time>2021-03-20T23:11:45Z</time>
      </trkpt>
      <trkpt lat="58.56273" lon="-4.76107">
        <ele>42.47</ele>
        <time>2021-03-20T23:11:51Z</time>
      </trkpt>
      <trkpt lat="58.56404" lon="-4.75725">
        <ele>45.1</ele>
        <time>2021-03-20T23:11:57Z</time>
      </trkpt>
      <trkpt lat="58.56573" lon="-4.75283">
        <ele>43</ele>
        <time>2021-03-20T23:12:03Z</time>
      </trkpt>
      <trkpt lat="58.56609" lon="-4.7518">
        <ele>43.52</ele>
        <time>2021-03-20T23:12:09Z</time>
      </trkpt>
      <trkpt lat="58.56663" lon="-4.74973">
        <ele>44.12</ele>
        <time>2021-03-20T23:12:15Z</time>
      </trkpt>
      <trkpt lat="58.56699" lon="-4.74838">
        <ele>47.03</ele>
        <time>2021-03-20T23:12:21Z</time>
      </trkpt>
      <trkpt lat="58.56712" lon="-4.74807">
        <ele>47.61</ele>
        <time>2021-03-20T23:12:27Z</time>
      </trkpt>
      <trkpt lat="58.56727" lon="-4.74783">
        <ele>48.03</ele>
        <time>2021-03-20T23:12:33Z</time>
      </trkpt>
      <trkpt lat="58.56854" lon="-4.74675">
        <ele>41.05</ele>
        <time>2021-03-20T23:12:39Z</time>
      </trkpt>
      <trkpt lat="58.5686" lon="-4.74689">
        <ele>40.99</ele>
        <time>2021-03-20T23:12:40Z</time>
      </trkpt>
      <trkpt lat="58.5686" lon="-4.74689">
        <ele>40.99</ele>
        <time>2021-03-20T23:12:40Z</time>
      </trkpt>
      <trkpt lat="58.56854" lon="-4.74675">
        <ele>41.05</ele>
        <time>2021-03-20T23:12:41Z</time>
      </trkpt>
      <trkpt lat="58.56859" lon="-4.74644">
        <ele>40.25</ele>
        <time>2021-03-20T23:12:50Z</time>
      </trkpt>
      <trkpt lat="58.56848" lon="-4.74334">
        <ele>33.51</ele>
        <time>2021-03-20T23:12:58Z</time>
      </trkpt>
      <trkpt lat="58.56831" lon="-4.74217">
        <ele>29.78</ele>
        <time>2021-03-20T23:13:06Z</time>
      </trkpt>
      <trkpt lat="58.56801" lon="-4.74082">
        <ele>23.78</ele>
        <time>2021-03-20T23:13:15Z</time>
      </trkpt>
      <trkpt lat="58.56786" lon="-4.74024">
        <ele>21.12</ele>
        <time>2021-03-20T23:13:23Z</time>
      </trkpt>
      <trkpt lat="58.56768" lon="-4.73987">
        <ele>19.2</ele>
        <time>2021-03-20T23:13:31Z</time>
      </trkpt>
      <trkpt lat="58.56762" lon="-4.73941">
        <ele>16.31</ele>
        <time>2021-03-20T23:13:35Z</time>
      </trkpt>
      <trkpt lat="58.56747" lon="-4.73889">
        <ele>13.9</ele>
        <time>2021-03-20T23:13:39Z</time>
      </trkpt>
      <trkpt lat="58.56717" lon="-4.73815">
        <ele>12</ele>
        <time>2021-03-20T23:13:43Z</time>
      </trkpt>
      <trkpt lat="58.56695" lon="-4.7377">
        <ele>12.98</ele>
        <time>2021-03-20T23:13:47Z</time>
      </trkpt>
      <trkpt lat="58.56642" lon="-4.7368">
        <ele>18.24</ele>
        <time>2021-03-20T23:13:51Z</time>
      </trkpt>
      <trkpt lat="58.56581" lon="-4.73553">
        <ele>28.5</ele>
        <time>2021-03-20T23:13:55Z</time>
      </trkpt>
      <trkpt lat="58.56564" lon="-4.7353">
        <ele>33.1</ele>
        <time>2021-03-20T23:13:58Z</time>
      </trkpt>
      <trkpt lat="58.56555" lon="-4.73526">
        <ele>35.18</ele>
        <time>2021-03-20T23:14:02Z</time>
      </trkpt>
      <trkpt lat="58.56539" lon="-4.73531">
        <ele>37.13</ele>
        <time>2021-03-20T23:14:06Z</time>
      </trkpt>
      <trkpt lat="58.56532" lon="-4.73527">
        <ele>38.45</ele>
        <time>2021-03-20T23:14:10Z</time>
      </trkpt>
      <trkpt lat="58.5651" lon="-4.73408">
        <ele>43.26</ele>
        <time>2021-03-20T23:14:14Z</time>
      </trkpt>
      <trkpt lat="58.56501" lon="-4.7335">
        <ele>43.58</ele>
        <time>2021-03-20T23:14:17Z</time>
      </trkpt>
      <trkpt lat="58.56433" lon="-4.73088">
        <ele>42.72</ele>
        <time>2021-03-20T23:14:20Z</time>
      </trkpt>
      <trkpt lat="58.56429" lon="-4.73058">
        <ele>44.07</ele>
        <time>2021-03-20T23:14:23Z</time>
      </trkpt>
      <trkpt lat="58.56425" lon="-4.72999">
        <ele>45.72</ele>
        <time>2021-03-20T23:14:26Z</time>
      </trkpt>
      <trkpt lat="58.56434" lon="-4.72866">
        <ele>50</ele>
        <time>2021-03-20T23:14:29Z</time>
      </trkpt>
      <trkpt lat="58.56435" lon="-4.72829">
        <ele>51</ele>
        <time>2021-03-20T23:14:32Z</time>
      </trkpt>
      <trkpt lat="58.56433" lon="-4.72782">
        <ele>51</ele>
        <time>2021-03-20T23:14:35Z</time>
      </trkpt>
      <trkpt lat="58.56424" lon="-4.72684">
        <ele>48.63</ele>
        <time>2021-03-20T23:14:38Z</time>
      </trkpt>
      <trkpt lat="58.56419" lon="-4.72644">
        <ele>48</ele>
        <time>2021-03-20T23:14:41Z</time>
      </trkpt>
      <trkpt lat="58.56392" lon="-4.72486">
        <ele>45.51</ele>
        <time>2021-03-20T23:14:44Z</time>
      </trkpt>
      <trkpt lat="58.56381" lon="-4.72445">
        <ele>44</ele>
        <time>2021-03-20T23:14:47Z</time>
      </trkpt>
      <trkpt lat="58.56366" lon="-4.72397">
        <ele>43.12</ele>
        <time>2021-03-20T23:14:50Z</time>
      </trkpt>
      <trkpt lat="58.56349" lon="-4.72326">
        <ele>39.19</ele>
        <time>2021-03-20T23:14:54Z</time>
      </trkpt>
      <trkpt lat="58.56345" lon="-4.72304">
        <ele>38.52</ele>
        <time>2021-03-20T23:14:57Z</time>
      </trkpt>
      <trkpt lat="58.56337" lon="-4.72143">
        <ele>33.02</ele>
        <time>2021-03-20T23:15:00Z</time>
      </trkpt>
      <trkpt lat="58.56331" lon="-4.72093">
        <ele>31.39</ele>
        <time>2021-03-20T23:15:03Z</time>
      </trkpt>
      <trkpt lat="58.56322" lon="-4.72059">
        <ele>30.53</ele>
        <time>2021-03-20T23:15:06Z</time>
      </trkpt>
      <trkpt lat="58.56309" lon="-4.7203">
        <ele>30.89</ele>
        <time>2021-03-20T23:15:09Z</time>
      </trkpt>
      <trkpt lat="58.56297" lon="-4.72018">
        <ele>31.64</ele>
        <time>2021-03-20T23:15:12Z</time>
      </trkpt>
      <trkpt lat="58.56203" lon="-4.71975">
        <ele>36.8</ele>
        <time>2021-03-20T23:15:15Z</time>
      </trkpt>
      <trkpt lat="58.56135" lon="-4.71934">
        <ele>40.75</ele>
        <time>2021-03-20T23:15:18Z</time>
      </trkpt>
      <trkpt lat="58.56081" lon="-4.71892">
        <ele>44.89</ele>
        <time>2021-03-20T23:15:21Z</time>
      </trkpt>
      <trkpt lat="58.5605" lon="-4.71859">
        <ele>47.08</ele>
        <time>2021-03-20T23:15:24Z</time>
      </trkpt>
      <trkpt lat="58.56029" lon="-4.71832">
        <ele>48</ele>
        <time>2021-03-20T23:15:27Z</time>
      </trkpt>
      <trkpt lat="58.55992" lon="-4.71781">
        <ele>48.38</ele>
        <time>2021-03-20T23:15:30Z</time>
      </trkpt>
      <trkpt lat="58.55955" lon="-4.71705">
        <ele>47.97</ele>
        <time>2021-03-20T23:15:33Z</time>
      </trkpt>
      <trkpt lat="58.55911" lon="-4.71602">
        <ele>43.87</ele>
        <time>2021-03-20T23:15:36Z</time>
      </trkpt>
      <trkpt lat="58.5585" lon="-4.71435">
        <ele>38.56</ele>
        <time>2021-03-20T23:15:39Z</time>
      </trkpt>
      <trkpt lat="58.55843" lon="-4.71397">
        <ele>38.06</ele>
        <time>2021-03-20T23:15:42Z</time>
      </trkpt>
      <trkpt lat="58.55842" lon="-4.71366">
        <ele>37.75</ele>
        <time>2021-03-20T23:15:45Z</time>
      </trkpt>
      <trkpt lat="58.55847" lon="-4.71123">
        <ele>37.32</ele>
        <time>2021-03-20T23:15:48Z</time>
      </trkpt>
      <trkpt lat="58.55827" lon="-4.70788">
        <ele>34.41</ele>
        <time>2021-03-20T23:15:51Z</time>
      </trkpt>
      <trkpt lat="58.55819" lon="-4.70748">
        <ele>33.38</ele>
        <time>2021-03-20T23:15:54Z</time>
      </trkpt>
      <trkpt lat="58.55804" lon="-4.70709">
        <ele>32.86</ele>
        <time>2021-03-20T23:15:57Z</time>
      </trkpt>
      <trkpt lat="58.55789" lon="-4.70684">
        <ele>31.87</ele>
        <time>2021-03-20T23:16:00Z</time>
      </trkpt>
      <trkpt lat="58.55768" lon="-4.70668">
        <ele>31.61</ele>
        <time>2021-03-20T23:16:03Z</time>
      </trkpt>
      <trkpt lat="58.55717" lon="-4.7065">
        <ele>29.16</ele>
        <time>2021-03-20T23:16:06Z</time>
      </trkpt>
      <trkpt lat="58.5561" lon="-4.70604">
        <ele>22.63</ele>
        <time>2021-03-20T23:16:09Z</time>
      </trkpt>
      <trkpt lat="58.55578" lon="-4.706">
        <ele>20.23</ele>
        <time>2021-03-20T23:16:13Z</time>
      </trkpt>
      <trkpt lat="58.55562" lon="-4.70605">
        <ele>19.24</ele>
        <time>2021-03-20T23:16:16Z</time>
      </trkpt>
      <trkpt lat="58.55531" lon="-4.70632">
        <ele>18.83</ele>
        <time>2021-03-20T23:16:19Z</time>
      </trkpt>
      <trkpt lat="58.55515" lon="-4.70636">
        <ele>18.35</ele>
        <time>2021-03-20T23:16:22Z</time>
      </trkpt>
      <trkpt lat="58.55499" lon="-4.7063">
        <ele>17.46</ele>
        <time>2021-03-20T23:16:25Z</time>
      </trkpt>
      <trkpt lat="58.55427" lon="-4.70486">
        <ele>14.15</ele>
        <time>2021-03-20T23:16:28Z</time>
      </trkpt>
      <trkpt lat="58.55414" lon="-4.70441">
        <ele>14.54</ele>
        <time>2021-03-20T23:16:31Z</time>
      </trkpt>
      <trkpt lat="58.55408" lon="-4.70403">
        <ele>15.03</ele>
        <time>2021-03-20T23:16:34Z</time>
      </trkpt>
      <trkpt lat="58.55405" lon="-4.7035">
        <ele>15.26</ele>
        <time>2021-03-20T23:16:37Z</time>
      </trkpt>
      <trkpt lat="58.55413" lon="-4.70203">
        <ele>19.22</ele>
        <time>2021-03-20T23:16:40Z</time>
      </trkpt>
      <trkpt lat="58.55425" lon="-4.7006">
        <ele>22.21</ele>
        <time>2021-03-20T23:16:43Z</time>
      </trkpt>
      <trkpt lat="58.55443" lon="-4.69911">
        <ele>25.27</ele>
        <time>2021-03-20T23:16:46Z</time>
      </trkpt>
      <trkpt lat="58.55444" lon="-4.69866">
        <ele>26.82</ele>
        <time>2021-03-20T23:16:49Z</time>
      </trkpt>
      <trkpt lat="58.55436" lon="-4.69809">
        <ele>28.87</ele>
        <time>2021-03-20T23:16:52Z</time>
      </trkpt>
      <trkpt lat="58.55408" lon="-4.69663">
        <ele>32.85</ele>
        <time>2021-03-20T23:16:55Z</time>
      </trkpt>
      <trkpt lat="58.55382" lon="-4.69536">
        <ele>37.23</ele>
        <time>2021-03-20T23:16:58Z</time>
      </trkpt>
      <trkpt lat="58.55374" lon="-4.69423">
        <ele>39.81</ele>
        <time>2021-03-20T23:17:01Z</time>
      </trkpt>
      <trkpt lat="58.55371" lon="-4.6934">
        <ele>41.47</ele>
        <time>2021-03-20T23:17:04Z</time>
      </trkpt>
      <trkpt lat="58.55364" lon="-4.693">
        <ele>40.72</ele>
        <time>2021-03-20T23:17:07Z</time>
      </trkpt>
      <trkpt lat="58.55352" lon="-4.69266">
        <ele>40.74</ele>
        <time>2021-03-20T23:17:10Z</time>
      </trkpt>
      <trkpt lat="58.55205" lon="-4.69065">
        <ele>43.89</ele>
        <time>2021-03-20T23:17:13Z</time>
      </trkpt>
      <trkpt lat="58.5518" lon="-4.6902">
        <ele>47.38</ele>
        <time>2021-03-20T23:17:16Z</time>
      </trkpt>
      <trkpt lat="58.5517" lon="-4.68979">
        <ele>48.38</ele>
        <time>2021-03-20T23:17:19Z</time>
      </trkpt>
      <trkpt lat="58.55166" lon="-4.68926">
        <ele>49.9</ele>
        <time>2021-03-20T23:17:22Z</time>
      </trkpt>
      <trkpt lat="58.55164" lon="-4.68867">
        <ele>51.45</ele>
        <time>2021-03-20T23:17:25Z</time>
      </trkpt>
      <trkpt lat="58.55157" lon="-4.68793">
        <ele>52.56</ele>
        <time>2021-03-20T23:17:28Z</time>
      </trkpt>
      <trkpt lat="58.55128" lon="-4.68614">
        <ele>54.46</ele>
        <time>2021-03-20T23:17:32Z</time>
      </trkpt>
      <trkpt lat="58.55123" lon="-4.68572">
        <ele>56.78</ele>
        <time>2021-03-20T23:17:35Z</time>
      </trkpt>
      <trkpt lat="58.55117" lon="-4.68506">
        <ele>60.67</ele>
        <time>2021-03-20T23:17:38Z</time>
      </trkpt>
      <trkpt lat="58.55113" lon="-4.6841">
        <ele>59.35</ele>
        <time>2021-03-20T23:17:41Z</time>
      </trkpt>
      <trkpt lat="58.55083" lon="-4.68288">
        <ele>58.46</ele>
        <time>2021-03-20T23:17:44Z</time>
      </trkpt>
      <trkpt lat="58.55071" lon="-4.68262">
        <ele>57.8</ele>
        <time>2021-03-20T23:17:47Z</time>
      </trkpt>
      <trkpt lat="58.55016" lon="-4.68175">
        <ele>53.07</ele>
        <time>2021-03-20T23:17:50Z</time>
      </trkpt>
      <trkpt lat="58.55005" lon="-4.68164">
        <ele>52.06</ele>
        <time>2021-03-20T23:17:53Z</time>
      </trkpt>
      <trkpt lat="58.5499" lon="-4.68154">
        <ele>51.05</ele>
        <time>2021-03-20T23:17:56Z</time>
      </trkpt>
      <trkpt lat="58.54896" lon="-4.68126">
        <ele>47.88</ele>
        <time>2021-03-20T23:17:59Z</time>
      </trkpt>
      <trkpt lat="58.54885" lon="-4.68121">
        <ele>47.27</ele>
        <time>2021-03-20T23:18:02Z</time>
      </trkpt>
      <trkpt lat="58.54878" lon="-4.68112">
        <ele>45.95</ele>
        <time>2021-03-20T23:18:05Z</time>
      </trkpt>
      <trkpt lat="58.54874" lon="-4.68102">
        <ele>45.39</ele>
        <time>2021-03-20T23:18:08Z</time>
      </trkpt>
      <trkpt lat="58.54872" lon="-4.6808">
        <ele>44.3</ele>
        <time>2021-03-20T23:18:11Z</time>
      </trkpt>
      <trkpt lat="58.54874" lon="-4.68051">
        <ele>42.32</ele>
        <time>2021-03-20T23:18:14Z</time>
      </trkpt>
      <trkpt lat="58.54906" lon="-4.6796">
        <ele>33.47</ele>
        <time>2021-03-20T23:18:17Z</time>
      </trkpt>
      <trkpt lat="58.54913" lon="-4.67932">
        <ele>31.72</ele>
        <time>2021-03-20T23:18:20Z</time>
      </trkpt>
      <trkpt lat="58.5492" lon="-4.67874">
        <ele>30.92</ele>
        <time>2021-03-20T23:18:23Z</time>
      </trkpt>
      <trkpt lat="58.5492" lon="-4.67837">
        <ele>30.93</ele>
        <time>2021-03-20T23:18:26Z</time>
      </trkpt>
      <trkpt lat="58.54913" lon="-4.67793">
        <ele>29.83</ele>
        <time>2021-03-20T23:18:29Z</time>
      </trkpt>
      <trkpt lat="58.54902" lon="-4.67766">
        <ele>29.01</ele>
        <time>2021-03-20T23:18:32Z</time>
      </trkpt>
      <trkpt lat="58.54892" lon="-4.6775">
        <ele>28.42</ele>
        <time>2021-03-20T23:18:35Z</time>
      </trkpt>
      <trkpt lat="58.5482" lon="-4.67675">
        <ele>26.91</ele>
        <time>2021-03-20T23:18:38Z</time>
      </trkpt>
      <trkpt lat="58.54814" lon="-4.67663">
        <ele>25.67</ele>
        <time>2021-03-20T23:18:41Z</time>
      </trkpt>
      <trkpt lat="58.54776" lon="-4.67518">
        <ele>23.21</ele>
        <time>2021-03-20T23:18:44Z</time>
      </trkpt>
      <trkpt lat="58.54762" lon="-4.67479">
        <ele>25.22</ele>
        <time>2021-03-20T23:18:47Z</time>
      </trkpt>
      <trkpt lat="58.54749" lon="-4.6746">
        <ele>26.97</ele>
        <time>2021-03-20T23:18:50Z</time>
      </trkpt>
      <trkpt lat="58.54731" lon="-4.67445">
        <ele>28.65</ele>
        <time>2021-03-20T23:18:54Z</time>
      </trkpt>
      <trkpt lat="58.54664" lon="-4.67433">
        <ele>34.26</ele>
        <time>2021-03-20T23:18:57Z</time>
      </trkpt>
      <trkpt lat="58.54601" lon="-4.67402">
        <ele>38.08</ele>
        <time>2021-03-20T23:19:00Z</time>
      </trkpt>
      <trkpt lat="58.54517" lon="-4.67388">
        <ele>38.08</ele>
        <time>2021-03-20T23:19:03Z</time>
      </trkpt>
      <trkpt lat="58.54418" lon="-4.67361">
        <ele>42</ele>
        <time>2021-03-20T23:19:06Z</time>
      </trkpt>
      <trkpt lat="58.54318" lon="-4.67323">
        <ele>43.35</ele>
        <time>2021-03-20T23:19:09Z</time>
      </trkpt>
      <trkpt lat="58.54294" lon="-4.67318">
        <ele>43.69</ele>
        <time>2021-03-20T23:19:12Z</time>
      </trkpt>
      <trkpt lat="58.5427" lon="-4.67336">
        <ele>43.96</ele>
        <time>2021-03-20T23:19:15Z</time>
      </trkpt>
      <trkpt lat="58.54184" lon="-4.67468">
        <ele>50.19</ele>
        <time>2021-03-20T23:19:18Z</time>
      </trkpt>
      <trkpt lat="58.5415" lon="-4.67509">
        <ele>51.71</ele>
        <time>2021-03-20T23:19:21Z</time>
      </trkpt>
      <trkpt lat="58.54125" lon="-4.67527">
        <ele>52.46</ele>
        <time>2021-03-20T23:19:24Z</time>
      </trkpt>
      <trkpt lat="58.54048" lon="-4.67557">
        <ele>50.83</ele>
        <time>2021-03-20T23:19:27Z</time>
      </trkpt>
      <trkpt lat="58.54005" lon="-4.67569">
        <ele>50.99</ele>
        <time>2021-03-20T23:19:30Z</time>
      </trkpt>
      <trkpt lat="58.53956" lon="-4.67567">
        <ele>52.84</ele>
        <time>2021-03-20T23:19:33Z</time>
      </trkpt>
      <trkpt lat="58.53885" lon="-4.67555">
        <ele>53.95</ele>
        <time>2021-03-20T23:19:36Z</time>
      </trkpt>
      <trkpt lat="58.53644" lon="-4.67617">
        <ele>55.07</ele>
        <time>2021-03-20T23:19:39Z</time>
      </trkpt>
      <trkpt lat="58.53616" lon="-4.67615">
        <ele>55.13</ele>
        <time>2021-03-20T23:19:42Z</time>
      </trkpt>
      <trkpt lat="58.53587" lon="-4.67607">
        <ele>54.87</ele>
        <time>2021-03-20T23:19:45Z</time>
      </trkpt>
      <trkpt lat="58.53472" lon="-4.67546">
        <ele>54.32</ele>
        <time>2021-03-20T23:19:48Z</time>
      </trkpt>
      <trkpt lat="58.53445" lon="-4.6754">
        <ele>53.88</ele>
        <time>2021-03-20T23:19:51Z</time>
      </trkpt>
      <trkpt lat="58.53423" lon="-4.67544">
        <ele>53.34</ele>
        <time>2021-03-20T23:19:54Z</time>
      </trkpt>
      <trkpt lat="58.5323" lon="-4.67655">
        <ele>48.32</ele>
        <time>2021-03-20T23:19:57Z</time>
      </trkpt>
      <trkpt lat="58.532" lon="-4.67686">
        <ele>47.78</ele>
        <time>2021-03-20T23:20:00Z</time>
      </trkpt>
      <trkpt lat="58.52996" lon="-4.67929">
        <ele>50.41</ele>
        <time>2021-03-20T23:20:03Z</time>
      </trkpt>
      <trkpt lat="58.52839" lon="-4.6808">
        <ele>51.02</ele>
        <time>2021-03-20T23:20:06Z</time>
      </trkpt>
      <trkpt lat="58.52749" lon="-4.68193">
        <ele>54.71</ele>
        <time>2021-03-20T23:20:09Z</time>
      </trkpt>
      <trkpt lat="58.5269" lon="-4.6824">
        <ele>54.19</ele>
        <time>2021-03-20T23:20:13Z</time>
      </trkpt>
      <trkpt lat="58.5253" lon="-4.68403">
        <ele>52.65</ele>
        <time>2021-03-20T23:20:16Z</time>
      </trkpt>
      <trkpt lat="58.52509" lon="-4.68412">
        <ele>52.03</ele>
        <time>2021-03-20T23:20:19Z</time>
      </trkpt>
      <trkpt lat="58.52486" lon="-4.6841">
        <ele>51</ele>
        <time>2021-03-20T23:20:22Z</time>
      </trkpt>
      <trkpt lat="58.52462" lon="-4.68392">
        <ele>49.24</ele>
        <time>2021-03-20T23:20:25Z</time>
      </trkpt>
      <trkpt lat="58.5244" lon="-4.68381">
        <ele>48.28</ele>
        <time>2021-03-20T23:20:28Z</time>
      </trkpt>
      <trkpt lat="58.52407" lon="-4.68387">
        <ele>47.48</ele>
        <time>2021-03-20T23:20:31Z</time>
      </trkpt>
      <trkpt lat="58.52388" lon="-4.68403">
        <ele>48.45</ele>
        <time>2021-03-20T23:20:34Z</time>
      </trkpt>
      <trkpt lat="58.52357" lon="-4.68445">
        <ele>49.77</ele>
        <time>2021-03-20T23:20:37Z</time>
      </trkpt>
      <trkpt lat="58.52333" lon="-4.68471">
        <ele>49.92</ele>
        <time>2021-03-20T23:20:40Z</time>
      </trkpt>
      <trkpt lat="58.52306" lon="-4.68491">
        <ele>49.68</ele>
        <time>2021-03-20T23:20:43Z</time>
      </trkpt>
      <trkpt lat="58.52251" lon="-4.68505">
        <ele>48.41</ele>
        <time>2021-03-20T23:20:46Z</time>
      </trkpt>
      <trkpt lat="58.52173" lon="-4.68509">
        <ele>48.09</ele>
        <time>2021-03-20T23:20:49Z</time>
      </trkpt>
      <trkpt lat="58.52133" lon="-4.68515">
        <ele>49.62</ele>
        <time>2021-03-20T23:20:52Z</time>
      </trkpt>
      <trkpt lat="58.52104" lon="-4.68536">
        <ele>49.73</ele>
        <time>2021-03-20T23:20:55Z</time>
      </trkpt>
      <trkpt lat="58.52081" lon="-4.68572">
        <ele>49.49</ele>
        <time>2021-03-20T23:20:58Z</time>
      </trkpt>
      <trkpt lat="58.52022" lon="-4.6875">
        <ele>52.54</ele>
        <time>2021-03-20T23:21:01Z</time>
      </trkpt>
      <trkpt lat="58.51981" lon="-4.68858">
        <ele>53.14</ele>
        <time>2021-03-20T23:21:04Z</time>
      </trkpt>
      <trkpt lat="58.51883" lon="-4.69047">
        <ele>52.15</ele>
        <time>2021-03-20T23:21:07Z</time>
      </trkpt>
      <trkpt lat="58.51866" lon="-4.69084">
        <ele>50.56</ele>
        <time>2021-03-20T23:21:10Z</time>
      </trkpt>
      <trkpt lat="58.51842" lon="-4.69153">
        <ele>49.96</ele>
        <time>2021-03-20T23:21:13Z</time>
      </trkpt>
      <trkpt lat="58.51816" lon="-4.69192">
        <ele>50.29</ele>
        <time>2021-03-20T23:21:16Z</time>
      </trkpt>
      <trkpt lat="58.51789" lon="-4.69216">
        <ele>49.39</ele>
        <time>2021-03-20T23:21:19Z</time>
      </trkpt>
      <trkpt lat="58.51607" lon="-4.69316">
        <ele>45.08</ele>
        <time>2021-03-20T23:21:22Z</time>
      </trkpt>
      <trkpt lat="58.5158" lon="-4.69335">
        <ele>43.77</ele>
        <time>2021-03-20T23:21:25Z</time>
      </trkpt>
      <trkpt lat="58.51549" lon="-4.69371">
        <ele>43.24</ele>
        <time>2021-03-20T23:21:28Z</time>
      </trkpt>
      <trkpt lat="58.51518" lon="-4.69414">
        <ele>44.09</ele>
        <time>2021-03-20T23:21:32Z</time>
      </trkpt>
      <trkpt lat="58.51503" lon="-4.6945">
        <ele>45.4</ele>
        <time>2021-03-20T23:21:35Z</time>
      </trkpt>
      <trkpt lat="58.51483" lon="-4.69512">
        <ele>44.86</ele>
        <time>2021-03-20T23:21:38Z</time>
      </trkpt>
      <trkpt lat="58.5146" lon="-4.69575">
        <ele>44.67</ele>
        <time>2021-03-20T23:21:41Z</time>
      </trkpt>
      <trkpt lat="58.51435" lon="-4.69612">
        <ele>44.63</ele>
        <time>2021-03-20T23:21:44Z</time>
      </trkpt>
      <trkpt lat="58.51402" lon="-4.69636">
        <ele>42.19</ele>
        <time>2021-03-20T23:21:47Z</time>
      </trkpt>
      <trkpt lat="58.51346" lon="-4.69655">
        <ele>38.16</ele>
        <time>2021-03-20T23:21:50Z</time>
      </trkpt>
      <trkpt lat="58.51327" lon="-4.69668">
        <ele>36.41</ele>
        <time>2021-03-20T23:21:53Z</time>
      </trkpt>
      <trkpt lat="58.51308" lon="-4.69692">
        <ele>35.12</ele>
        <time>2021-03-20T23:21:56Z</time>
      </trkpt>
      <trkpt lat="58.51204" lon="-4.69834">
        <ele>32.06</ele>
        <time>2021-03-20T23:21:59Z</time>
      </trkpt>
      <trkpt lat="58.51181" lon="-4.69873">
        <ele>29.56</ele>
        <time>2021-03-20T23:22:02Z</time>
      </trkpt>
      <trkpt lat="58.51168" lon="-4.69904">
        <ele>28.09</ele>
        <time>2021-03-20T23:22:05Z</time>
      </trkpt>
      <trkpt lat="58.51158" lon="-4.69935">
        <ele>27.02</ele>
        <time>2021-03-20T23:22:08Z</time>
      </trkpt>
      <trkpt lat="58.51126" lon="-4.70074">
        <ele>29.28</ele>
        <time>2021-03-20T23:22:11Z</time>
      </trkpt>
      <trkpt lat="58.5111" lon="-4.70115">
        <ele>28.09</ele>
        <time>2021-03-20T23:22:14Z</time>
      </trkpt>
      <trkpt lat="58.51094" lon="-4.70136">
        <ele>27.4</ele>
        <time>2021-03-20T23:22:17Z</time>
      </trkpt>
      <trkpt lat="58.51075" lon="-4.70155">
        <ele>26.28</ele>
        <time>2021-03-20T23:22:20Z</time>
      </trkpt>
      <trkpt lat="58.51056" lon="-4.70168">
        <ele>26.08</ele>
        <time>2021-03-20T23:22:23Z</time>
      </trkpt>
      <trkpt lat="58.51029" lon="-4.7017">
        <ele>26.34</ele>
        <time>2021-03-20T23:22:26Z</time>
      </trkpt>
      <trkpt lat="58.51009" lon="-4.70165">
        <ele>26.52</ele>
        <time>2021-03-20T23:22:29Z</time>
      </trkpt>
      <trkpt lat="58.50974" lon="-4.70148">
        <ele>26.93</ele>
        <time>2021-03-20T23:22:32Z</time>
      </trkpt>
      <trkpt lat="58.50945" lon="-4.70139">
        <ele>28</ele>
        <time>2021-03-20T23:22:35Z</time>
      </trkpt>
      <trkpt lat="58.50926" lon="-4.7014">
        <ele>28.1</ele>
        <time>2021-03-20T23:22:38Z</time>
      </trkpt>
      <trkpt lat="58.50909" lon="-4.70146">
        <ele>27.95</ele>
        <time>2021-03-20T23:22:41Z</time>
      </trkpt>
      <trkpt lat="58.50895" lon="-4.70158">
        <ele>27.78</ele>
        <time>2021-03-20T23:22:44Z</time>
      </trkpt>
      <trkpt lat="58.5088" lon="-4.70177">
        <ele>28.13</ele>
        <time>2021-03-20T23:22:47Z</time>
      </trkpt>
      <trkpt lat="58.50866" lon="-4.70205">
        <ele>28.82</ele>
        <time>2021-03-20T23:22:50Z</time>
      </trkpt>
      <trkpt lat="58.50808" lon="-4.70352">
        <ele>35.69</ele>
        <time>2021-03-20T23:22:54Z</time>
      </trkpt>
      <trkpt lat="58.50784" lon="-4.70403">
        <ele>38.37</ele>
        <time>2021-03-20T23:22:57Z</time>
      </trkpt>
      <trkpt lat="58.50771" lon="-4.70421">
        <ele>39.83</ele>
        <time>2021-03-20T23:23:00Z</time>
      </trkpt>
      <trkpt lat="58.50705" lon="-4.70499">
        <ele>40.8</ele>
        <time>2021-03-20T23:23:03Z</time>
      </trkpt>
      <trkpt lat="58.5068" lon="-4.70548">
        <ele>40.27</ele>
        <time>2021-03-20T23:23:06Z</time>
      </trkpt>
      <trkpt lat="58.50663" lon="-4.70585">
        <ele>39.79</ele>
        <time>2021-03-20T23:23:09Z</time>
      </trkpt>
      <trkpt lat="58.50634" lon="-4.7063">
        <ele>39.88</ele>
        <time>2021-03-20T23:23:12Z</time>
      </trkpt>
      <trkpt lat="58.50585" lon="-4.70661">
        <ele>39.45</ele>
        <time>2021-03-20T23:23:15Z</time>
      </trkpt>
      <trkpt lat="58.50563" lon="-4.70663">
        <ele>39.55</ele>
        <time>2021-03-20T23:23:18Z</time>
      </trkpt>
      <trkpt lat="58.50519" lon="-4.70648">
        <ele>39.67</ele>
        <time>2021-03-20T23:23:21Z</time>
      </trkpt>
      <trkpt lat="58.50497" lon="-4.70648">
        <ele>40.28</ele>
        <time>2021-03-20T23:23:24Z</time>
      </trkpt>
      <trkpt lat="58.50443" lon="-4.70663">
        <ele>42.49</ele>
        <time>2021-03-20T23:23:27Z</time>
      </trkpt>
      <trkpt lat="58.50422" lon="-4.70678">
        <ele>43.36</ele>
        <time>2021-03-20T23:23:30Z</time>
      </trkpt>
      <trkpt lat="58.50406" lon="-4.70699">
        <ele>44.14</ele>
        <time>2021-03-20T23:23:33Z</time>
      </trkpt>
      <trkpt lat="58.50382" lon="-4.70751">
        <ele>45.29</ele>
        <time>2021-03-20T23:23:36Z</time>
      </trkpt>
      <trkpt lat="58.50328" lon="-4.70827">
        <ele>44.01</ele>
        <time>2021-03-20T23:23:39Z</time>
      </trkpt>
      <trkpt lat="58.50233" lon="-4.7089">
        <ele>41.85</ele>
        <time>2021-03-20T23:23:42Z</time>
      </trkpt>
      <trkpt lat="58.50211" lon="-4.70917">
        <ele>41.83</ele>
        <time>2021-03-20T23:23:45Z</time>
      </trkpt>
      <trkpt lat="58.5019" lon="-4.7095">
        <ele>41.98</ele>
        <time>2021-03-20T23:23:48Z</time>
      </trkpt>
      <trkpt lat="58.50075" lon="-4.71144">
        <ele>43.12</ele>
        <time>2021-03-20T23:23:51Z</time>
      </trkpt>
      <trkpt lat="58.50016" lon="-4.71247">
        <ele>42.13</ele>
        <time>2021-03-20T23:23:54Z</time>
      </trkpt>
      <trkpt lat="58.50004" lon="-4.7127">
        <ele>41.31</ele>
        <time>2021-03-20T23:23:57Z</time>
      </trkpt>
      <trkpt lat="58.49969" lon="-4.71357">
        <ele>42.49</ele>
        <time>2021-03-20T23:24:00Z</time>
      </trkpt>
      <trkpt lat="58.49941" lon="-4.71416">
        <ele>42.44</ele>
        <time>2021-03-20T23:24:03Z</time>
      </trkpt>
      <trkpt lat="58.49923" lon="-4.71438">
        <ele>41.26</ele>
        <time>2021-03-20T23:24:06Z</time>
      </trkpt>
      <trkpt lat="58.49851" lon="-4.71509">
        <ele>40.96</ele>
        <time>2021-03-20T23:24:09Z</time>
      </trkpt>
      <trkpt lat="58.498" lon="-4.71583">
        <ele>42.78</ele>
        <time>2021-03-20T23:24:13Z</time>
      </trkpt>
      <trkpt lat="58.49766" lon="-4.71636">
        <ele>43.03</ele>
        <time>2021-03-20T23:24:16Z</time>
      </trkpt>
      <trkpt lat="58.49754" lon="-4.71661">
        <ele>43.08</ele>
        <time>2021-03-20T23:24:19Z</time>
      </trkpt>
      <trkpt lat="58.49718" lon="-4.71761">
        <ele>44.09</ele>
        <time>2021-03-20T23:24:22Z</time>
      </trkpt>
      <trkpt lat="58.49691" lon="-4.71816">
        <ele>44.85</ele>
        <time>2021-03-20T23:24:25Z</time>
      </trkpt>
      <trkpt lat="58.4968" lon="-4.71832">
        <ele>43.89</ele>
        <time>2021-03-20T23:24:28Z</time>
      </trkpt>
      <trkpt lat="58.49655" lon="-4.71862">
        <ele>42.76</ele>
        <time>2021-03-20T23:24:31Z</time>
      </trkpt>
      <trkpt lat="58.49602" lon="-4.71898">
        <ele>40.65</ele>
        <time>2021-03-20T23:24:34Z</time>
      </trkpt>
      <trkpt lat="58.49566" lon="-4.7193">
        <ele>39.07</ele>
        <time>2021-03-20T23:24:37Z</time>
      </trkpt>
      <trkpt lat="58.4955" lon="-4.71951">
        <ele>38.81</ele>
        <time>2021-03-20T23:24:40Z</time>
      </trkpt>
      <trkpt lat="58.49519" lon="-4.71998">
        <ele>38.6</ele>
        <time>2021-03-20T23:24:43Z</time>
      </trkpt>
      <trkpt lat="58.4949" lon="-4.72049">
        <ele>38.39</ele>
        <time>2021-03-20T23:24:46Z</time>
      </trkpt>
      <trkpt lat="58.49475" lon="-4.72064">
        <ele>38.24</ele>
        <time>2021-03-20T23:24:49Z</time>
      </trkpt>
      <trkpt lat="58.49443" lon="-4.72096">
        <ele>37.69</ele>
        <time>2021-03-20T23:24:52Z</time>
      </trkpt>
      <trkpt lat="58.49359" lon="-4.72162">
        <ele>35.5</ele>
        <time>2021-03-20T23:24:55Z</time>
      </trkpt>
      <trkpt lat="58.49325" lon="-4.72195">
        <ele>35.45</ele>
        <time>2021-03-20T23:24:58Z</time>
      </trkpt>
      <trkpt lat="58.49305" lon="-4.7222">
        <ele>35.75</ele>
        <time>2021-03-20T23:25:01Z</time>
      </trkpt>
      <trkpt lat="58.49263" lon="-4.72297">
        <ele>35.59</ele>
        <time>2021-03-20T23:25:04Z</time>
      </trkpt>
      <trkpt lat="58.49247" lon="-4.7232">
        <ele>35.26</ele>
        <time>2021-03-20T23:25:07Z</time>
      </trkpt>
      <trkpt lat="58.49217" lon="-4.72352">
        <ele>35.02</ele>
        <time>2021-03-20T23:25:10Z</time>
      </trkpt>
      <trkpt lat="58.49183" lon="-4.72383">
        <ele>34.37</ele>
        <time>2021-03-20T23:25:13Z</time>
      </trkpt>
      <trkpt lat="58.49152" lon="-4.72396">
        <ele>32.81</ele>
        <time>2021-03-20T23:25:16Z</time>
      </trkpt>
      <trkpt lat="58.49057" lon="-4.7241">
        <ele>30.88</ele>
        <time>2021-03-20T23:25:19Z</time>
      </trkpt>
      <trkpt lat="58.49027" lon="-4.72418">
        <ele>29.03</ele>
        <time>2021-03-20T23:25:22Z</time>
      </trkpt>
      <trkpt lat="58.49003" lon="-4.72449">
        <ele>29.24</ele>
        <time>2021-03-20T23:25:25Z</time>
      </trkpt>
      <trkpt lat="58.48972" lon="-4.72511">
        <ele>29.35</ele>
        <time>2021-03-20T23:25:28Z</time>
      </trkpt>
      <trkpt lat="58.48957" lon="-4.72536">
        <ele>29.2</ele>
        <time>2021-03-20T23:25:32Z</time>
      </trkpt>
      <trkpt lat="58.48945" lon="-4.7255">
        <ele>28.86</ele>
        <time>2021-03-20T23:25:35Z</time>
      </trkpt>
      <trkpt lat="58.4891" lon="-4.72579">
        <ele>29.41</ele>
        <time>2021-03-20T23:25:38Z</time>
      </trkpt>
      <trkpt lat="58.48879" lon="-4.72595">
        <ele>28.69</ele>
        <time>2021-03-20T23:25:41Z</time>
      </trkpt>
      <trkpt lat="58.48822" lon="-4.72601">
        <ele>26.62</ele>
        <time>2021-03-20T23:25:44Z</time>
      </trkpt>
      <trkpt lat="58.48806" lon="-4.72605">
        <ele>26.77</ele>
        <time>2021-03-20T23:25:47Z</time>
      </trkpt>
      <trkpt lat="58.48793" lon="-4.72613">
        <ele>26.69</ele>
        <time>2021-03-20T23:25:50Z</time>
      </trkpt>
      <trkpt lat="58.48748" lon="-4.72649">
        <ele>28.69</ele>
        <time>2021-03-20T23:25:53Z</time>
      </trkpt>
      <trkpt lat="58.4867" lon="-4.72674">
        <ele>28.56</ele>
        <time>2021-03-20T23:25:56Z</time>
      </trkpt>
      <trkpt lat="58.48652" lon="-4.72684">
        <ele>28.72</ele>
        <time>2021-03-20T23:25:59Z</time>
      </trkpt>
      <trkpt lat="58.48596" lon="-4.72725">
        <ele>27.66</ele>
        <time>2021-03-20T23:26:02Z</time>
      </trkpt>
      <trkpt lat="58.48577" lon="-4.72733">
        <ele>27.35</ele>
        <time>2021-03-20T23:26:05Z</time>
      </trkpt>
      <trkpt lat="58.48523" lon="-4.72744">
        <ele>25.36</ele>
        <time>2021-03-20T23:26:08Z</time>
      </trkpt>
      <trkpt lat="58.48503" lon="-4.72752">
        <ele>25.17</ele>
        <time>2021-03-20T23:26:11Z</time>
      </trkpt>
      <trkpt lat="58.48482" lon="-4.72771">
        <ele>24.44</ele>
        <time>2021-03-20T23:26:14Z</time>
      </trkpt>
      <trkpt lat="58.48459" lon="-4.72801">
        <ele>24.77</ele>
        <time>2021-03-20T23:26:17Z</time>
      </trkpt>
      <trkpt lat="58.48433" lon="-4.7284">
        <ele>24.05</ele>
        <time>2021-03-20T23:26:20Z</time>
      </trkpt>
      <trkpt lat="58.48385" lon="-4.7289">
        <ele>24.77</ele>
        <time>2021-03-20T23:26:23Z</time>
      </trkpt>
      <trkpt lat="58.48268" lon="-4.72978">
        <ele>24.34</ele>
        <time>2021-03-20T23:26:26Z</time>
      </trkpt>
      <trkpt lat="58.48194" lon="-4.73049">
        <ele>22.75</ele>
        <time>2021-03-20T23:26:29Z</time>
      </trkpt>
      <trkpt lat="58.48162" lon="-4.73074">
        <ele>23.31</ele>
        <time>2021-03-20T23:26:32Z</time>
      </trkpt>
      <trkpt lat="58.48135" lon="-4.73086">
        <ele>24.19</ele>
        <time>2021-03-20T23:26:35Z</time>
      </trkpt>
      <trkpt lat="58.48056" lon="-4.73113">
        <ele>24.17</ele>
        <time>2021-03-20T23:26:38Z</time>
      </trkpt>
      <trkpt lat="58.48027" lon="-4.73127">
        <ele>25.13</ele>
        <time>2021-03-20T23:26:41Z</time>
      </trkpt>
      <trkpt lat="58.47973" lon="-4.73174">
        <ele>26.52</ele>
        <time>2021-03-20T23:26:44Z</time>
      </trkpt>
      <trkpt lat="58.47957" lon="-4.73192">
        <ele>26.72</ele>
        <time>2021-03-20T23:26:47Z</time>
      </trkpt>
      <trkpt lat="58.47913" lon="-4.73258">
        <ele>28.3</ele>
        <time>2021-03-20T23:26:50Z</time>
      </trkpt>
      <trkpt lat="58.47891" lon="-4.73276">
        <ele>28.95</ele>
        <time>2021-03-20T23:26:54Z</time>
      </trkpt>
      <trkpt lat="58.47827" lon="-4.73311">
        <ele>28.74</ele>
        <time>2021-03-20T23:26:57Z</time>
      </trkpt>
      <trkpt lat="58.47806" lon="-4.73327">
        <ele>27.82</ele>
        <time>2021-03-20T23:27:00Z</time>
      </trkpt>
      <trkpt lat="58.47767" lon="-4.7337">
        <ele>27.95</ele>
        <time>2021-03-20T23:27:03Z</time>
      </trkpt>
      <trkpt lat="58.47731" lon="-4.73396">
        <ele>27.8</ele>
        <time>2021-03-20T23:27:06Z</time>
      </trkpt>
      <trkpt lat="58.47666" lon="-4.73435">
        <ele>27.61</ele>
        <time>2021-03-20T23:27:09Z</time>
      </trkpt>
      <trkpt lat="58.47558" lon="-4.73515">
        <ele>26.74</ele>
        <time>2021-03-20T23:27:12Z</time>
      </trkpt>
      <trkpt lat="58.47361" lon="-4.73654">
        <ele>25.53</ele>
        <time>2021-03-20T23:27:15Z</time>
      </trkpt>
      <trkpt lat="58.4733" lon="-4.73687">
        <ele>25.33</ele>
        <time>2021-03-20T23:27:18Z</time>
      </trkpt>
      <trkpt lat="58.473" lon="-4.73733">
        <ele>25.97</ele>
        <time>2021-03-20T23:27:21Z</time>
      </trkpt>
      <trkpt lat="58.47161" lon="-4.74023">
        <ele>26.43</ele>
        <time>2021-03-20T23:27:24Z</time>
      </trkpt>
      <trkpt lat="58.47137" lon="-4.74066">
        <ele>26.14</ele>
        <time>2021-03-20T23:27:27Z</time>
      </trkpt>
      <trkpt lat="58.47054" lon="-4.74161">
        <ele>25.65</ele>
        <time>2021-03-20T23:27:30Z</time>
      </trkpt>
      <trkpt lat="58.47032" lon="-4.74196">
        <ele>25.27</ele>
        <time>2021-03-20T23:27:33Z</time>
      </trkpt>
      <trkpt lat="58.46959" lon="-4.74356">
        <ele>27.34</ele>
        <time>2021-03-20T23:27:36Z</time>
      </trkpt>
      <trkpt lat="58.4694" lon="-4.74394">
        <ele>27.86</ele>
        <time>2021-03-20T23:27:39Z</time>
      </trkpt>
      <trkpt lat="58.46915" lon="-4.74422">
        <ele>27.09</ele>
        <time>2021-03-20T23:27:42Z</time>
      </trkpt>
      <trkpt lat="58.46832" lon="-4.74475">
        <ele>26.08</ele>
        <time>2021-03-20T23:27:45Z</time>
      </trkpt>
      <trkpt lat="58.46789" lon="-4.74508">
        <ele>25.32</ele>
        <time>2021-03-20T23:27:48Z</time>
      </trkpt>
      <trkpt lat="58.46759" lon="-4.74545">
        <ele>25.27</ele>
        <time>2021-03-20T23:27:51Z</time>
      </trkpt>
      <trkpt lat="58.46721" lon="-4.74611">
        <ele>24.91</ele>
        <time>2021-03-20T23:27:54Z</time>
      </trkpt>
      <trkpt lat="58.467" lon="-4.74632">
        <ele>24.9</ele>
        <time>2021-03-20T23:27:57Z</time>
      </trkpt>
      <trkpt lat="58.46551" lon="-4.74745">
        <ele>23.29</ele>
        <time>2021-03-20T23:28:00Z</time>
      </trkpt>
      <trkpt lat="58.46505" lon="-4.74796">
        <ele>22.72</ele>
        <time>2021-03-20T23:28:03Z</time>
      </trkpt>
      <trkpt lat="58.46495" lon="-4.7482">
        <ele>22.94</ele>
        <time>2021-03-20T23:28:06Z</time>
      </trkpt>
      <trkpt lat="58.46465" lon="-4.74905">
        <ele>22.99</ele>
        <time>2021-03-20T23:28:09Z</time>
      </trkpt>
      <trkpt lat="58.46438" lon="-4.74961">
        <ele>23.46</ele>
        <time>2021-03-20T23:28:13Z</time>
      </trkpt>
      <trkpt lat="58.46394" lon="-4.75034">
        <ele>22.95</ele>
        <time>2021-03-20T23:28:16Z</time>
      </trkpt>
      <trkpt lat="58.46359" lon="-4.75127">
        <ele>23.88</ele>
        <time>2021-03-20T23:28:19Z</time>
      </trkpt>
      <trkpt lat="58.4632" lon="-4.75188">
        <ele>21.68</ele>
        <time>2021-03-20T23:28:22Z</time>
      </trkpt>
      <trkpt lat="58.46307" lon="-4.75216">
        <ele>21.92</ele>
        <time>2021-03-20T23:28:25Z</time>
      </trkpt>
      <trkpt lat="58.46256" lon="-4.75357">
        <ele>21.26</ele>
        <time>2021-03-20T23:28:28Z</time>
      </trkpt>
      <trkpt lat="58.46225" lon="-4.75418">
        <ele>22.26</ele>
        <time>2021-03-20T23:28:31Z</time>
      </trkpt>
      <trkpt lat="58.46196" lon="-4.75465">
        <ele>22.58</ele>
        <time>2021-03-20T23:28:34Z</time>
      </trkpt>
      <trkpt lat="58.46167" lon="-4.75501">
        <ele>23.07</ele>
        <time>2021-03-20T23:28:37Z</time>
      </trkpt>
      <trkpt lat="58.46096" lon="-4.75575">
        <ele>23.45</ele>
        <time>2021-03-20T23:28:40Z</time>
      </trkpt>
      <trkpt lat="58.46038" lon="-4.75664">
        <ele>25.25</ele>
        <time>2021-03-20T23:28:43Z</time>
      </trkpt>
      <trkpt lat="58.46005" lon="-4.75709">
        <ele>26.39</ele>
        <time>2021-03-20T23:28:46Z</time>
      </trkpt>
      <trkpt lat="58.45975" lon="-4.75737">
        <ele>26.28</ele>
        <time>2021-03-20T23:28:49Z</time>
      </trkpt>
      <trkpt lat="58.4577" lon="-4.7588">
        <ele>24.04</ele>
        <time>2021-03-20T23:28:52Z</time>
      </trkpt>
      <trkpt lat="58.45682" lon="-4.75962">
        <ele>24.75</ele>
        <time>2021-03-20T23:28:55Z</time>
      </trkpt>
      <trkpt lat="58.45661" lon="-4.7597">
        <ele>23.7</ele>
        <time>2021-03-20T23:28:58Z</time>
      </trkpt>
      <trkpt lat="58.45643" lon="-4.75969">
        <ele>23.02</ele>
        <time>2021-03-20T23:29:01Z</time>
      </trkpt>
      <trkpt lat="58.45555" lon="-4.75938">
        <ele>18.97</ele>
        <time>2021-03-20T23:29:04Z</time>
      </trkpt>
      <trkpt lat="58.45524" lon="-4.75933">
        <ele>17.88</ele>
        <time>2021-03-20T23:29:07Z</time>
      </trkpt>
      <trkpt lat="58.45484" lon="-4.75939">
        <ele>16.41</ele>
        <time>2021-03-20T23:29:10Z</time>
      </trkpt>
      <trkpt lat="58.45459" lon="-4.75933">
        <ele>15.23</ele>
        <time>2021-03-20T23:29:13Z</time>
      </trkpt>
      <trkpt lat="58.45327" lon="-4.75884">
        <ele>12.18</ele>
        <time>2021-03-20T23:29:16Z</time>
      </trkpt>
      <trkpt lat="58.45305" lon="-4.75881">
        <ele>12.29</ele>
        <time>2021-03-20T23:29:19Z</time>
      </trkpt>
      <trkpt lat="58.4527" lon="-4.75891">
        <ele>11.64</ele>
        <time>2021-03-20T23:29:22Z</time>
      </trkpt>
      <trkpt lat="58.45199" lon="-4.7592">
        <ele>9.98</ele>
        <time>2021-03-20T23:29:25Z</time>
      </trkpt>
      <trkpt lat="58.45156" lon="-4.7594">
        <ele>8.4</ele>
        <time>2021-03-20T23:29:28Z</time>
      </trkpt>
      <trkpt lat="58.45121" lon="-4.75966">
        <ele>6.36</ele>
        <time>2021-03-20T23:29:32Z</time>
      </trkpt>
      <trkpt lat="58.44998" lon="-4.76101">
        <ele>7.47</ele>
        <time>2021-03-20T23:29:35Z</time>
      </trkpt>
      <trkpt lat="58.44937" lon="-4.76206">
        <ele>8.3</ele>
        <time>2021-03-20T23:29:38Z</time>
      </trkpt>
      <trkpt lat="58.44919" lon="-4.76224">
        <ele>8.17</ele>
        <time>2021-03-20T23:29:41Z</time>
      </trkpt>
      <trkpt lat="58.449" lon="-4.76233">
        <ele>8.99</ele>
        <time>2021-03-20T23:29:44Z</time>
      </trkpt>
      <trkpt lat="58.44878" lon="-4.76233">
        <ele>10.04</ele>
        <time>2021-03-20T23:29:47Z</time>
      </trkpt>
      <trkpt lat="58.44858" lon="-4.76221">
        <ele>11</ele>
        <time>2021-03-20T23:29:50Z</time>
      </trkpt>
      <trkpt lat="58.44836" lon="-4.76198">
        <ele>11</ele>
        <time>2021-03-20T23:29:53Z</time>
      </trkpt>
      <trkpt lat="58.4482" lon="-4.76163">
        <ele>12</ele>
        <time>2021-03-20T23:29:56Z</time>
      </trkpt>
      <trkpt lat="58.4481" lon="-4.76127">
        <ele>12.36</ele>
        <time>2021-03-20T23:29:59Z</time>
      </trkpt>
      <trkpt lat="58.44772" lon="-4.75877">
        <ele>13</ele>
        <time>2021-03-20T23:30:02Z</time>
      </trkpt>
      <trkpt lat="58.44764" lon="-4.75845">
        <ele>13.6</ele>
        <time>2021-03-20T23:30:05Z</time>
      </trkpt>
      <trkpt lat="58.44749" lon="-4.75812">
        <ele>13.96</ele>
        <time>2021-03-20T23:30:08Z</time>
      </trkpt>
      <trkpt lat="58.44725" lon="-4.75778">
        <ele>14.11</ele>
        <time>2021-03-20T23:30:11Z</time>
      </trkpt>
      <trkpt lat="58.44602" lon="-4.75577">
        <ele>10.11</ele>
        <time>2021-03-20T23:30:14Z</time>
      </trkpt>
      <trkpt lat="58.44591" lon="-4.75563">
        <ele>9.99</ele>
        <time>2021-03-20T23:30:17Z</time>
      </trkpt>
      <trkpt lat="58.44421" lon="-4.75413">
        <ele>12.84</ele>
        <time>2021-03-20T23:30:20Z</time>
      </trkpt>
      <trkpt lat="58.44409" lon="-4.75395">
        <ele>13.35</ele>
        <time>2021-03-20T23:30:23Z</time>
      </trkpt>
      <trkpt lat="58.44399" lon="-4.75371">
        <ele>13.64</ele>
        <time>2021-03-20T23:30:26Z</time>
      </trkpt>
      <trkpt lat="58.44391" lon="-4.75341">
        <ele>14.62</ele>
        <time>2021-03-20T23:30:29Z</time>
      </trkpt>
      <trkpt lat="58.44385" lon="-4.7529">
        <ele>16.25</ele>
        <time>2021-03-20T23:30:32Z</time>
      </trkpt>
      <trkpt lat="58.44386" lon="-4.75251">
        <ele>17.69</ele>
        <time>2021-03-20T23:30:35Z</time>
      </trkpt>
      <trkpt lat="58.44486" lon="-4.74538">
        <ele>14.04</ele>
        <time>2021-03-20T23:30:38Z</time>
      </trkpt>
      <trkpt lat="58.4449" lon="-4.74484">
        <ele>13.72</ele>
        <time>2021-03-20T23:30:41Z</time>
      </trkpt>
      <trkpt lat="58.44483" lon="-4.74259">
        <ele>12.43</ele>
        <time>2021-03-20T23:30:44Z</time>
      </trkpt>
      <trkpt lat="58.44482" lon="-4.74195">
        <ele>10.65</ele>
        <time>2021-03-20T23:30:47Z</time>
      </trkpt>
      <trkpt lat="58.4449" lon="-4.73978">
        <ele>6.69</ele>
        <time>2021-03-20T23:30:51Z</time>
      </trkpt>
      <trkpt lat="58.44501" lon="-4.73908">
        <ele>4.96</ele>
        <time>2021-03-20T23:30:54Z</time>
      </trkpt>
      <trkpt lat="58.44515" lon="-4.73852">
        <ele>4.71</ele>
        <time>2021-03-20T23:30:57Z</time>
      </trkpt>
      <trkpt lat="58.44532" lon="-4.73805">
        <ele>4.72</ele>
        <time>2021-03-20T23:31:00Z</time>
      </trkpt>
      <trkpt lat="58.44555" lon="-4.73761">
        <ele>4.63</ele>
        <time>2021-03-20T23:31:03Z</time>
      </trkpt>
      <trkpt lat="58.44671" lon="-4.73588">
        <ele>9.04</ele>
        <time>2021-03-20T23:31:06Z</time>
      </trkpt>
      <trkpt lat="58.44724" lon="-4.73529">
        <ele>13.34</ele>
        <time>2021-03-20T23:31:09Z</time>
      </trkpt>
      <trkpt lat="58.44766" lon="-4.73492">
        <ele>12.22</ele>
        <time>2021-03-20T23:31:12Z</time>
      </trkpt>
      <trkpt lat="58.45016" lon="-4.73306">
        <ele>10.09</ele>
        <time>2021-03-20T23:31:15Z</time>
      </trkpt>
      <trkpt lat="58.45068" lon="-4.73278">
        <ele>9.01</ele>
        <time>2021-03-20T23:31:18Z</time>
      </trkpt>
      <trkpt lat="58.45082" lon="-4.73265">
        <ele>9.51</ele>
        <time>2021-03-20T23:31:21Z</time>
      </trkpt>
      <trkpt lat="58.45103" lon="-4.73237">
        <ele>7.95</ele>
        <time>2021-03-20T23:31:24Z</time>
      </trkpt>
      <trkpt lat="58.45161" lon="-4.7314">
        <ele>7.74</ele>
        <time>2021-03-20T23:31:27Z</time>
      </trkpt>
      <trkpt lat="58.45181" lon="-4.73115">
        <ele>8.42</ele>
        <time>2021-03-20T23:31:30Z</time>
      </trkpt>
      <trkpt lat="58.45308" lon="-4.73009">
        <ele>7.72</ele>
        <time>2021-03-20T23:31:33Z</time>
      </trkpt>
      <trkpt lat="58.45328" lon="-4.7298">
        <ele>7.96</ele>
        <time>2021-03-20T23:31:36Z</time>
      </trkpt>
      <trkpt lat="58.45354" lon="-4.72932">
        <ele>9.14</ele>
        <time>2021-03-20T23:31:39Z</time>
      </trkpt>
      <trkpt lat="58.45379" lon="-4.72896">
        <ele>9.28</ele>
        <time>2021-03-20T23:31:42Z</time>
      </trkpt>
      <trkpt lat="58.45406" lon="-4.72865">
        <ele>8.48</ele>
        <time>2021-03-20T23:31:45Z</time>
      </trkpt>
      <trkpt lat="58.45444" lon="-4.72831">
        <ele>7.47</ele>
        <time>2021-03-20T23:31:48Z</time>
      </trkpt>
      <trkpt lat="58.45473" lon="-4.728">
        <ele>7.76</ele>
        <time>2021-03-20T23:31:51Z</time>
      </trkpt>
      <trkpt lat="58.45556" lon="-4.72692">
        <ele>10.26</ele>
        <time>2021-03-20T23:31:54Z</time>
      </trkpt>
      <trkpt lat="58.45568" lon="-4.72679">
        <ele>10.58</ele>
        <time>2021-03-20T23:31:57Z</time>
      </trkpt>
      <trkpt lat="58.45609" lon="-4.72649">
        <ele>9.76</ele>
        <time>2021-03-20T23:32:00Z</time>
      </trkpt>
      <trkpt lat="58.45639" lon="-4.72633">
        <ele>8.77</ele>
        <time>2021-03-20T23:32:03Z</time>
      </trkpt>
      <trkpt lat="58.45673" lon="-4.72622">
        <ele>7.49</ele>
        <time>2021-03-20T23:32:06Z</time>
      </trkpt>
      <trkpt lat="58.45689" lon="-4.72608">
        <ele>7.58</ele>
        <time>2021-03-20T23:32:09Z</time>
      </trkpt>
      <trkpt lat="58.45697" lon="-4.72583">
        <ele>8.8</ele>
        <time>2021-03-20T23:32:13Z</time>
      </trkpt>
      <trkpt lat="58.457" lon="-4.72552">
        <ele>10.36</ele>
        <time>2021-03-20T23:32:16Z</time>
      </trkpt>
      <trkpt lat="58.457" lon="-4.72523">
        <ele>10.47</ele>
        <time>2021-03-20T23:32:19Z</time>
      </trkpt>
      <trkpt lat="58.45693" lon="-4.72496">
        <ele>11.19</ele>
        <time>2021-03-20T23:32:22Z</time>
      </trkpt>
      <trkpt lat="58.45677" lon="-4.7246">
        <ele>12.61</ele>
        <time>2021-03-20T23:32:25Z</time>
      </trkpt>
      <trkpt lat="58.45614" lon="-4.72347">
        <ele>12.43</ele>
        <time>2021-03-20T23:32:28Z</time>
      </trkpt>
      <trkpt lat="58.45586" lon="-4.72289">
        <ele>13.25</ele>
        <time>2021-03-20T23:32:31Z</time>
      </trkpt>
      <trkpt lat="58.45575" lon="-4.72251">
        <ele>13.31</ele>
        <time>2021-03-20T23:32:34Z</time>
      </trkpt>
      <trkpt lat="58.45565" lon="-4.72207">
        <ele>12.67</ele>
        <time>2021-03-20T23:32:37Z</time>
      </trkpt>
      <trkpt lat="58.45561" lon="-4.72164">
        <ele>13</ele>
        <time>2021-03-20T23:32:40Z</time>
      </trkpt>
      <trkpt lat="58.45563" lon="-4.72104">
        <ele>14.19</ele>
        <time>2021-03-20T23:32:43Z</time>
      </trkpt>
      <trkpt lat="58.4557" lon="-4.72046">
        <ele>16.27</ele>
        <time>2021-03-20T23:32:46Z</time>
      </trkpt>
      <trkpt lat="58.45598" lon="-4.71954">
        <ele>20.8</ele>
        <time>2021-03-20T23:32:49Z</time>
      </trkpt>
      <trkpt lat="58.45668" lon="-4.71748">
        <ele>27.99</ele>
        <time>2021-03-20T23:32:52Z</time>
      </trkpt>
      <trkpt lat="58.45684" lon="-4.71694">
        <ele>29.18</ele>
        <time>2021-03-20T23:32:55Z</time>
      </trkpt>
      <trkpt lat="58.45701" lon="-4.71616">
        <ele>30.37</ele>
        <time>2021-03-20T23:32:58Z</time>
      </trkpt>
      <trkpt lat="58.45754" lon="-4.7127">
        <ele>34.55</ele>
        <time>2021-03-20T23:33:01Z</time>
      </trkpt>
      <trkpt lat="58.45754" lon="-4.7123">
        <ele>35.1</ele>
        <time>2021-03-20T23:33:04Z</time>
      </trkpt>
      <trkpt lat="58.45749" lon="-4.71193">
        <ele>36.06</ele>
        <time>2021-03-20T23:33:07Z</time>
      </trkpt>
      <trkpt lat="58.45737" lon="-4.71153">
        <ele>37.01</ele>
        <time>2021-03-20T23:33:10Z</time>
      </trkpt>
      <trkpt lat="58.45732" lon="-4.71117">
        <ele>37.03</ele>
        <time>2021-03-20T23:33:13Z</time>
      </trkpt>
      <trkpt lat="58.45731" lon="-4.71092">
        <ele>37.03</ele>
        <time>2021-03-20T23:33:16Z</time>
      </trkpt>
      <trkpt lat="58.45734" lon="-4.71059">
        <ele>36.85</ele>
        <time>2021-03-20T23:33:19Z</time>
      </trkpt>
      <trkpt lat="58.45753" lon="-4.70962">
        <ele>37.26</ele>
        <time>2021-03-20T23:33:22Z</time>
      </trkpt>
      <trkpt lat="58.45785" lon="-4.70853">
        <ele>35.69</ele>
        <time>2021-03-20T23:33:25Z</time>
      </trkpt>
      <trkpt lat="58.45802" lon="-4.70811">
        <ele>35.13</ele>
        <time>2021-03-20T23:33:28Z</time>
      </trkpt>
      <trkpt lat="58.45819" lon="-4.7078">
        <ele>35.43</ele>
        <time>2021-03-20T23:33:32Z</time>
      </trkpt>
      <trkpt lat="58.45835" lon="-4.70761">
        <ele>36.1</ele>
        <time>2021-03-20T23:33:35Z</time>
      </trkpt>
      <trkpt lat="58.45865" lon="-4.70742">
        <ele>36.85</ele>
        <time>2021-03-20T23:33:38Z</time>
      </trkpt>
      <trkpt lat="58.45913" lon="-4.70729">
        <ele>36.66</ele>
        <time>2021-03-20T23:33:41Z</time>
      </trkpt>
      <trkpt lat="58.45934" lon="-4.70719">
        <ele>36.57</ele>
        <time>2021-03-20T23:33:44Z</time>
      </trkpt>
      <trkpt lat="58.45949" lon="-4.70703">
        <ele>36.28</ele>
        <time>2021-03-20T23:33:47Z</time>
      </trkpt>
      <trkpt lat="58.45962" lon="-4.70679">
        <ele>35.83</ele>
        <time>2021-03-20T23:33:50Z</time>
      </trkpt>
      <trkpt lat="58.45995" lon="-4.70591">
        <ele>36.97</ele>
        <time>2021-03-20T23:33:53Z</time>
      </trkpt>
      <trkpt lat="58.46008" lon="-4.70571">
        <ele>37.34</ele>
        <time>2021-03-20T23:33:56Z</time>
      </trkpt>
      <trkpt lat="58.46062" lon="-4.70508">
        <ele>35.69</ele>
        <time>2021-03-20T23:33:59Z</time>
      </trkpt>
      <trkpt lat="58.46076" lon="-4.70486">
        <ele>35.28</ele>
        <time>2021-03-20T23:34:02Z</time>
      </trkpt>
      <trkpt lat="58.46087" lon="-4.70464">
        <ele>34.94</ele>
        <time>2021-03-20T23:34:05Z</time>
      </trkpt>
      <trkpt lat="58.46114" lon="-4.70359">
        <ele>33.85</ele>
        <time>2021-03-20T23:34:08Z</time>
      </trkpt>
      <trkpt lat="58.46126" lon="-4.7033">
        <ele>34.03</ele>
        <time>2021-03-20T23:34:11Z</time>
      </trkpt>
      <trkpt lat="58.46142" lon="-4.70308">
        <ele>33.9</ele>
        <time>2021-03-20T23:34:14Z</time>
      </trkpt>
      <trkpt lat="58.46162" lon="-4.70291">
        <ele>35.04</ele>
        <time>2021-03-20T23:34:17Z</time>
      </trkpt>
      <trkpt lat="58.4619" lon="-4.70285">
        <ele>34.66</ele>
        <time>2021-03-20T23:34:20Z</time>
      </trkpt>
      <trkpt lat="58.46216" lon="-4.70273">
        <ele>34.61</ele>
        <time>2021-03-20T23:34:23Z</time>
      </trkpt>
      <trkpt lat="58.46237" lon="-4.7025">
        <ele>34.4</ele>
        <time>2021-03-20T23:34:26Z</time>
      </trkpt>
      <trkpt lat="58.46279" lon="-4.70185">
        <ele>33.42</ele>
        <time>2021-03-20T23:34:29Z</time>
      </trkpt>
      <trkpt lat="58.46293" lon="-4.70148">
        <ele>33.82</ele>
        <time>2021-03-20T23:34:32Z</time>
      </trkpt>
      <trkpt lat="58.4631" lon="-4.70073">
        <ele>35.37</ele>
        <time>2021-03-20T23:34:35Z</time>
      </trkpt>
      <trkpt lat="58.46313" lon="-4.7003">
        <ele>36</ele>
        <time>2021-03-20T23:34:38Z</time>
      </trkpt>
      <trkpt lat="58.46311" lon="-4.69995">
        <ele>34.82</ele>
        <time>2021-03-20T23:34:41Z</time>
      </trkpt>
      <trkpt lat="58.46302" lon="-4.69932">
        <ele>33.55</ele>
        <time>2021-03-20T23:34:44Z</time>
      </trkpt>
      <trkpt lat="58.46303" lon="-4.69906">
        <ele>33.28</ele>
        <time>2021-03-20T23:34:47Z</time>
      </trkpt>
      <trkpt lat="58.46315" lon="-4.69833">
        <ele>33.34</ele>
        <time>2021-03-20T23:34:51Z</time>
      </trkpt>
      <trkpt lat="58.46328" lon="-4.69777">
        <ele>35.22</ele>
        <time>2021-03-20T23:34:54Z</time>
      </trkpt>
      <trkpt lat="58.46339" lon="-4.69747">
        <ele>36.01</ele>
        <time>2021-03-20T23:34:57Z</time>
      </trkpt>
      <trkpt lat="58.46353" lon="-4.69723">
        <ele>37.22</ele>
        <time>2021-03-20T23:35:00Z</time>
      </trkpt>
      <trkpt lat="58.4637" lon="-4.6971">
        <ele>38.16</ele>
        <time>2021-03-20T23:35:03Z</time>
      </trkpt>
      <trkpt lat="58.46402" lon="-4.69701">
        <ele>40.49</ele>
        <time>2021-03-20T23:35:06Z</time>
      </trkpt>
      <trkpt lat="58.46529" lon="-4.69696">
        <ele>51.94</ele>
        <time>2021-03-20T23:35:09Z</time>
      </trkpt>
      <trkpt lat="58.46545" lon="-4.69692">
        <ele>53.49</ele>
        <time>2021-03-20T23:35:12Z</time>
      </trkpt>
      <trkpt lat="58.4656" lon="-4.69683">
        <ele>55.41</ele>
        <time>2021-03-20T23:35:15Z</time>
      </trkpt>
      <trkpt lat="58.46577" lon="-4.6966">
        <ele>58.25</ele>
        <time>2021-03-20T23:35:18Z</time>
      </trkpt>
      <trkpt lat="58.46596" lon="-4.69621">
        <ele>61.02</ele>
        <time>2021-03-20T23:35:21Z</time>
      </trkpt>
      <trkpt lat="58.46642" lon="-4.69477">
        <ele>69.47</ele>
        <time>2021-03-20T23:35:24Z</time>
      </trkpt>
      <trkpt lat="58.46656" lon="-4.69412">
        <ele>71.9</ele>
        <time>2021-03-20T23:35:27Z</time>
      </trkpt>
      <trkpt lat="58.46662" lon="-4.69359">
        <ele>72.42</ele>
        <time>2021-03-20T23:35:30Z</time>
      </trkpt>
      <trkpt lat="58.46663" lon="-4.69311">
        <ele>73.24</ele>
        <time>2021-03-20T23:35:33Z</time>
      </trkpt>
      <trkpt lat="58.46653" lon="-4.69087">
        <ele>69.52</ele>
        <time>2021-03-20T23:35:36Z</time>
      </trkpt>
      <trkpt lat="58.46659" lon="-4.69003">
        <ele>66.68</ele>
        <time>2021-03-20T23:35:39Z</time>
      </trkpt>
      <trkpt lat="58.46674" lon="-4.68954">
        <ele>64.08</ele>
        <time>2021-03-20T23:35:42Z</time>
      </trkpt>
      <trkpt lat="58.4674" lon="-4.68779">
        <ele>59.4</ele>
        <time>2021-03-20T23:35:45Z</time>
      </trkpt>
      <trkpt lat="58.46794" lon="-4.68626">
        <ele>52.88</ele>
        <time>2021-03-20T23:35:48Z</time>
      </trkpt>
      <trkpt lat="58.46823" lon="-4.68572">
        <ele>50.3</ele>
        <time>2021-03-20T23:35:51Z</time>
      </trkpt>
      <trkpt lat="58.46884" lon="-4.68467">
        <ele>48.48</ele>
        <time>2021-03-20T23:35:54Z</time>
      </trkpt>
      <trkpt lat="58.46929" lon="-4.68402">
        <ele>47.12</ele>
        <time>2021-03-20T23:35:57Z</time>
      </trkpt>
      <trkpt lat="58.46979" lon="-4.6835">
        <ele>46.33</ele>
        <time>2021-03-20T23:36:00Z</time>
      </trkpt>
      <trkpt lat="58.4704" lon="-4.68274">
        <ele>46.89</ele>
        <time>2021-03-20T23:36:03Z</time>
      </trkpt>
      <trkpt lat="58.47057" lon="-4.68249">
        <ele>46.77</ele>
        <time>2021-03-20T23:36:06Z</time>
      </trkpt>
      <trkpt lat="58.47074" lon="-4.68214">
        <ele>47.81</ele>
        <time>2021-03-20T23:36:09Z</time>
      </trkpt>
      <trkpt lat="58.47102" lon="-4.68166">
        <ele>50.74</ele>
        <time>2021-03-20T23:36:13Z</time>
      </trkpt>
      <trkpt lat="58.47123" lon="-4.68148">
        <ele>51.5</ele>
        <time>2021-03-20T23:36:16Z</time>
      </trkpt>
      <trkpt lat="58.47153" lon="-4.68139">
        <ele>51.99</ele>
        <time>2021-03-20T23:36:19Z</time>
      </trkpt>
      <trkpt lat="58.47174" lon="-4.68142">
        <ele>51.17</ele>
        <time>2021-03-20T23:36:22Z</time>
      </trkpt>
      <trkpt lat="58.47266" lon="-4.68191">
        <ele>47.94</ele>
        <time>2021-03-20T23:36:25Z</time>
      </trkpt>
      <trkpt lat="58.47284" lon="-4.68193">
        <ele>48.15</ele>
        <time>2021-03-20T23:36:28Z</time>
      </trkpt>
      <trkpt lat="58.47303" lon="-4.68189">
        <ele>48.44</ele>
        <time>2021-03-20T23:36:31Z</time>
      </trkpt>
      <trkpt lat="58.4733" lon="-4.68164">
        <ele>49.45</ele>
        <time>2021-03-20T23:36:34Z</time>
      </trkpt>
      <trkpt lat="58.47408" lon="-4.6808">
        <ele>49.58</ele>
        <time>2021-03-20T23:36:37Z</time>
      </trkpt>
      <trkpt lat="58.47427" lon="-4.68073">
        <ele>49.99</ele>
        <time>2021-03-20T23:36:40Z</time>
      </trkpt>
      <trkpt lat="58.47447" lon="-4.68072">
        <ele>50.39</ele>
        <time>2021-03-20T23:36:43Z</time>
      </trkpt>
      <trkpt lat="58.47512" lon="-4.68087">
        <ele>50.85</ele>
        <time>2021-03-20T23:36:46Z</time>
      </trkpt>
      <trkpt lat="58.47531" lon="-4.68081">
        <ele>52.01</ele>
        <time>2021-03-20T23:36:49Z</time>
      </trkpt>
      <trkpt lat="58.47557" lon="-4.68057">
        <ele>52.87</ele>
        <time>2021-03-20T23:36:52Z</time>
      </trkpt>
      <trkpt lat="58.47592" lon="-4.68017">
        <ele>52.89</ele>
        <time>2021-03-20T23:36:55Z</time>
      </trkpt>
      <trkpt lat="58.47619" lon="-4.67977">
        <ele>53.24</ele>
        <time>2021-03-20T23:36:58Z</time>
      </trkpt>
      <trkpt lat="58.47638" lon="-4.67943">
        <ele>54.13</ele>
        <time>2021-03-20T23:37:01Z</time>
      </trkpt>
      <trkpt lat="58.47658" lon="-4.67892">
        <ele>53.11</ele>
        <time>2021-03-20T23:37:04Z</time>
      </trkpt>
      <trkpt lat="58.47681" lon="-4.67819">
        <ele>53.44</ele>
        <time>2021-03-20T23:37:07Z</time>
      </trkpt>
      <trkpt lat="58.47695" lon="-4.6778">
        <ele>53.69</ele>
        <time>2021-03-20T23:37:10Z</time>
      </trkpt>
      <trkpt lat="58.47709" lon="-4.67753">
        <ele>53.68</ele>
        <time>2021-03-20T23:37:13Z</time>
      </trkpt>
      <trkpt lat="58.4782" lon="-4.67625">
        <ele>53.66</ele>
        <time>2021-03-20T23:37:16Z</time>
      </trkpt>
      <trkpt lat="58.47843" lon="-4.67604">
        <ele>54.47</ele>
        <time>2021-03-20T23:37:19Z</time>
      </trkpt>
      <trkpt lat="58.47874" lon="-4.67596">
        <ele>54.53</ele>
        <time>2021-03-20T23:37:22Z</time>
      </trkpt>
      <trkpt lat="58.47957" lon="-4.67609">
        <ele>53.21</ele>
        <time>2021-03-20T23:37:25Z</time>
      </trkpt>
      <trkpt lat="58.47975" lon="-4.67609">
        <ele>54.13</ele>
        <time>2021-03-20T23:37:28Z</time>
      </trkpt>
      <trkpt lat="58.47999" lon="-4.67599">
        <ele>54.35</ele>
        <time>2021-03-20T23:37:32Z</time>
      </trkpt>
      <trkpt lat="58.4809" lon="-4.67543">
        <ele>52.58</ele>
        <time>2021-03-20T23:37:35Z</time>
      </trkpt>
      <trkpt lat="58.48151" lon="-4.67492">
        <ele>54.86</ele>
        <time>2021-03-20T23:37:38Z</time>
      </trkpt>
      <trkpt lat="58.48195" lon="-4.67451">
        <ele>54.47</ele>
        <time>2021-03-20T23:37:41Z</time>
      </trkpt>
      <trkpt lat="58.48222" lon="-4.67415">
        <ele>49.19</ele>
        <time>2021-03-20T23:37:44Z</time>
      </trkpt>
      <trkpt lat="58.48238" lon="-4.67387">
        <ele>47.63</ele>
        <time>2021-03-20T23:37:47Z</time>
      </trkpt>
      <trkpt lat="58.48256" lon="-4.67338">
        <ele>45.8</ele>
        <time>2021-03-20T23:37:50Z</time>
      </trkpt>
      <trkpt lat="58.48267" lon="-4.67282">
        <ele>44.27</ele>
        <time>2021-03-20T23:37:53Z</time>
      </trkpt>
      <trkpt lat="58.48267" lon="-4.67234">
        <ele>42.24</ele>
        <time>2021-03-20T23:37:56Z</time>
      </trkpt>
      <trkpt lat="58.48261" lon="-4.6719">
        <ele>38.66</ele>
        <time>2021-03-20T23:37:59Z</time>
      </trkpt>
      <trkpt lat="58.48227" lon="-4.6702">
        <ele>31.8</ele>
        <time>2021-03-20T23:38:02Z</time>
      </trkpt>
      <trkpt lat="58.48215" lon="-4.66988">
        <ele>30.11</ele>
        <time>2021-03-20T23:38:05Z</time>
      </trkpt>
      <trkpt lat="58.4817" lon="-4.66921">
        <ele>28.18</ele>
        <time>2021-03-20T23:38:08Z</time>
      </trkpt>
      <trkpt lat="58.48157" lon="-4.66892">
        <ele>26.45</ele>
        <time>2021-03-20T23:38:11Z</time>
      </trkpt>
      <trkpt lat="58.48147" lon="-4.66854">
        <ele>25.78</ele>
        <time>2021-03-20T23:38:14Z</time>
      </trkpt>
      <trkpt lat="58.48115" lon="-4.66637">
        <ele>24.71</ele>
        <time>2021-03-20T23:38:17Z</time>
      </trkpt>
      <trkpt lat="58.48112" lon="-4.66587">
        <ele>25.38</ele>
        <time>2021-03-20T23:38:20Z</time>
      </trkpt>
      <trkpt lat="58.48114" lon="-4.66542">
        <ele>26.55</ele>
        <time>2021-03-20T23:38:23Z</time>
      </trkpt>
      <trkpt lat="58.48121" lon="-4.66514">
        <ele>26.06</ele>
        <time>2021-03-20T23:38:26Z</time>
      </trkpt>
      <trkpt lat="58.48138" lon="-4.66488">
        <ele>23.18</ele>
        <time>2021-03-20T23:38:29Z</time>
      </trkpt>
      <trkpt lat="58.4816" lon="-4.6647">
        <ele>20.43</ele>
        <time>2021-03-20T23:38:32Z</time>
      </trkpt>
      <trkpt lat="58.48185" lon="-4.66456">
        <ele>15.78</ele>
        <time>2021-03-20T23:38:35Z</time>
      </trkpt>
      <trkpt lat="58.482" lon="-4.6643">
        <ele>16.4</ele>
        <time>2021-03-20T23:38:38Z</time>
      </trkpt>
      <trkpt lat="58.48213" lon="-4.66394">
        <ele>19.55</ele>
        <time>2021-03-20T23:38:41Z</time>
      </trkpt>
      <trkpt lat="58.48227" lon="-4.66368">
        <ele>20.36</ele>
        <time>2021-03-20T23:38:44Z</time>
      </trkpt>
      <trkpt lat="58.48321" lon="-4.66248">
        <ele>18.42</ele>
        <time>2021-03-20T23:38:47Z</time>
      </trkpt>
      <trkpt lat="58.48351" lon="-4.66213">
        <ele>17.15</ele>
        <time>2021-03-20T23:38:51Z</time>
      </trkpt>
      <trkpt lat="58.48435" lon="-4.66133">
        <ele>14.87</ele>
        <time>2021-03-20T23:38:54Z</time>
      </trkpt>
      <trkpt lat="58.48481" lon="-4.66096">
        <ele>14.88</ele>
        <time>2021-03-20T23:38:57Z</time>
      </trkpt>
      <trkpt lat="58.48543" lon="-4.66064">
        <ele>14.84</ele>
        <time>2021-03-20T23:39:00Z</time>
      </trkpt>
      <trkpt lat="58.48574" lon="-4.66051">
        <ele>15.64</ele>
        <time>2021-03-20T23:39:03Z</time>
      </trkpt>
      <trkpt lat="58.48594" lon="-4.66053">
        <ele>15.73</ele>
        <time>2021-03-20T23:39:06Z</time>
      </trkpt>
      <trkpt lat="58.48621" lon="-4.66068">
        <ele>15.24</ele>
        <time>2021-03-20T23:39:09Z</time>
      </trkpt>
      <trkpt lat="58.48651" lon="-4.66094">
        <ele>13.14</ele>
        <time>2021-03-20T23:39:12Z</time>
      </trkpt>
      <trkpt lat="58.48674" lon="-4.66104">
        <ele>12.06</ele>
        <time>2021-03-20T23:39:15Z</time>
      </trkpt>
      <trkpt lat="58.48696" lon="-4.6611">
        <ele>11.12</ele>
        <time>2021-03-20T23:39:18Z</time>
      </trkpt>
      <trkpt lat="58.48741" lon="-4.6611">
        <ele>10.82</ele>
        <time>2021-03-20T23:39:21Z</time>
      </trkpt>
      <trkpt lat="58.48755" lon="-4.66113">
        <ele>11.02</ele>
        <time>2021-03-20T23:39:24Z</time>
      </trkpt>
      <trkpt lat="58.48839" lon="-4.66149">
        <ele>11.78</ele>
        <time>2021-03-20T23:39:27Z</time>
      </trkpt>
      <trkpt lat="58.48887" lon="-4.66163">
        <ele>11.64</ele>
        <time>2021-03-20T23:39:30Z</time>
      </trkpt>
      <trkpt lat="58.48938" lon="-4.66189">
        <ele>11.22</ele>
        <time>2021-03-20T23:39:33Z</time>
      </trkpt>
      <trkpt lat="58.4905" lon="-4.66223">
        <ele>13.9</ele>
        <time>2021-03-20T23:39:36Z</time>
      </trkpt>
      <trkpt lat="58.49078" lon="-4.66225">
        <ele>13.43</ele>
        <time>2021-03-20T23:39:39Z</time>
      </trkpt>
      <trkpt lat="58.49182" lon="-4.66189">
        <ele>13.63</ele>
        <time>2021-03-20T23:39:42Z</time>
      </trkpt>
      <trkpt lat="58.49328" lon="-4.66108">
        <ele>16.24</ele>
        <time>2021-03-20T23:39:45Z</time>
      </trkpt>
      <trkpt lat="58.4946" lon="-4.66045">
        <ele>17.44</ele>
        <time>2021-03-20T23:39:48Z</time>
      </trkpt>
      <trkpt lat="58.49529" lon="-4.66003">
        <ele>21.27</ele>
        <time>2021-03-20T23:39:51Z</time>
      </trkpt>
      <trkpt lat="58.49568" lon="-4.65967">
        <ele>23.02</ele>
        <time>2021-03-20T23:39:54Z</time>
      </trkpt>
      <trkpt lat="58.49644" lon="-4.65887">
        <ele>29.98</ele>
        <time>2021-03-20T23:39:57Z</time>
      </trkpt>
      <trkpt lat="58.49727" lon="-4.65809">
        <ele>39.17</ele>
        <time>2021-03-20T23:40:00Z</time>
      </trkpt>
      <trkpt lat="58.49756" lon="-4.65788">
        <ele>42.46</ele>
        <time>2021-03-20T23:40:03Z</time>
      </trkpt>
      <trkpt lat="58.49799" lon="-4.65775">
        <ele>47.73</ele>
        <time>2021-03-20T23:40:06Z</time>
      </trkpt>
      <trkpt lat="58.49819" lon="-4.65778">
        <ele>49.97</ele>
        <time>2021-03-20T23:40:09Z</time>
      </trkpt>
      <trkpt lat="58.49911" lon="-4.65813">
        <ele>57.69</ele>
        <time>2021-03-20T23:40:13Z</time>
      </trkpt>
      <trkpt lat="58.49945" lon="-4.65816">
        <ele>60.25</ele>
        <time>2021-03-20T23:40:16Z</time>
      </trkpt>
      <trkpt lat="58.49977" lon="-4.65805">
        <ele>63.21</ele>
        <time>2021-03-20T23:40:19Z</time>
      </trkpt>
      <trkpt lat="58.50006" lon="-4.65782">
        <ele>66.98</ele>
        <time>2021-03-20T23:40:22Z</time>
      </trkpt>
      <trkpt lat="58.5036" lon="-4.65429">
        <ele>89.48</ele>
        <time>2021-03-20T23:40:25Z</time>
      </trkpt>
      <trkpt lat="58.50376" lon="-4.65407">
        <ele>87.73</ele>
        <time>2021-03-20T23:40:28Z</time>
      </trkpt>
      <trkpt lat="58.50392" lon="-4.65365">
        <ele>83.95</ele>
        <time>2021-03-20T23:40:31Z</time>
      </trkpt>
      <trkpt lat="58.50404" lon="-4.65318">
        <ele>78.51</ele>
        <time>2021-03-20T23:40:34Z</time>
      </trkpt>
      <trkpt lat="58.50409" lon="-4.65273">
        <ele>74.66</ele>
        <time>2021-03-20T23:40:37Z</time>
      </trkpt>
      <trkpt lat="58.50409" lon="-4.65227">
        <ele>71.9</ele>
        <time>2021-03-20T23:40:40Z</time>
      </trkpt>
      <trkpt lat="58.50402" lon="-4.65184">
        <ele>70.29</ele>
        <time>2021-03-20T23:40:43Z</time>
      </trkpt>
      <trkpt lat="58.50382" lon="-4.65096">
        <ele>65.99</ele>
        <time>2021-03-20T23:40:46Z</time>
      </trkpt>
      <trkpt lat="58.50375" lon="-4.65038">
        <ele>63.64</ele>
        <time>2021-03-20T23:40:49Z</time>
      </trkpt>
      <trkpt lat="58.50375" lon="-4.65005">
        <ele>62.37</ele>
        <time>2021-03-20T23:40:52Z</time>
      </trkpt>
      <trkpt lat="58.50381" lon="-4.64915">
        <ele>55.8</ele>
        <time>2021-03-20T23:40:55Z</time>
      </trkpt>
      <trkpt lat="58.50381" lon="-4.64871">
        <ele>53.38</ele>
        <time>2021-03-20T23:40:58Z</time>
      </trkpt>
      <trkpt lat="58.50377" lon="-4.64829">
        <ele>52.24</ele>
        <time>2021-03-20T23:41:01Z</time>
      </trkpt>
      <trkpt lat="58.50365" lon="-4.64782">
        <ele>50</ele>
        <time>2021-03-20T23:41:04Z</time>
      </trkpt>
      <trkpt lat="58.50346" lon="-4.6475">
        <ele>49.14</ele>
        <time>2021-03-20T23:41:07Z</time>
      </trkpt>
      <trkpt lat="58.50308" lon="-4.64694">
        <ele>47.69</ele>
        <time>2021-03-20T23:41:10Z</time>
      </trkpt>
      <trkpt lat="58.50193" lon="-4.64571">
        <ele>42.35</ele>
        <time>2021-03-20T23:41:13Z</time>
      </trkpt>
      <trkpt lat="58.50168" lon="-4.64541">
        <ele>41.8</ele>
        <time>2021-03-20T23:41:16Z</time>
      </trkpt>
      <trkpt lat="58.50155" lon="-4.64509">
        <ele>39.84</ele>
        <time>2021-03-20T23:41:19Z</time>
      </trkpt>
      <trkpt lat="58.50146" lon="-4.64481">
        <ele>39.46</ele>
        <time>2021-03-20T23:41:22Z</time>
      </trkpt>
      <trkpt lat="58.50139" lon="-4.6443">
        <ele>39.01</ele>
        <time>2021-03-20T23:41:25Z</time>
      </trkpt>
      <trkpt lat="58.50136" lon="-4.64384">
        <ele>40.27</ele>
        <time>2021-03-20T23:41:28Z</time>
      </trkpt>
      <trkpt lat="58.50139" lon="-4.64328">
        <ele>43</ele>
        <time>2021-03-20T23:41:32Z</time>
      </trkpt>
      <trkpt lat="58.50191" lon="-4.63887">
        <ele>55.89</ele>
        <time>2021-03-20T23:41:35Z</time>
      </trkpt>
      <trkpt lat="58.50193" lon="-4.63828">
        <ele>57.19</ele>
        <time>2021-03-20T23:41:38Z</time>
      </trkpt>
      <trkpt lat="58.50189" lon="-4.63763">
        <ele>59.53</ele>
        <time>2021-03-20T23:41:41Z</time>
      </trkpt>
      <trkpt lat="58.50178" lon="-4.63703">
        <ele>62.71</ele>
        <time>2021-03-20T23:41:44Z</time>
      </trkpt>
      <trkpt lat="58.50162" lon="-4.63634">
        <ele>63.87</ele>
        <time>2021-03-20T23:41:47Z</time>
      </trkpt>
      <trkpt lat="58.50126" lon="-4.63505">
        <ele>60.74</ele>
        <time>2021-03-20T23:41:50Z</time>
      </trkpt>
      <trkpt lat="58.50108" lon="-4.63469">
        <ele>58.77</ele>
        <time>2021-03-20T23:41:53Z</time>
      </trkpt>
      <trkpt lat="58.50083" lon="-4.63438">
        <ele>56.51</ele>
        <time>2021-03-20T23:41:56Z</time>
      </trkpt>
      <trkpt lat="58.50053" lon="-4.63413">
        <ele>54.49</ele>
        <time>2021-03-20T23:41:59Z</time>
      </trkpt>
      <trkpt lat="58.49981" lon="-4.63386">
        <ele>50.32</ele>
        <time>2021-03-20T23:42:02Z</time>
      </trkpt>
      <trkpt lat="58.49962" lon="-4.63372">
        <ele>49.76</ele>
        <time>2021-03-20T23:42:05Z</time>
      </trkpt>
      <trkpt lat="58.49941" lon="-4.63347">
        <ele>48.44</ele>
        <time>2021-03-20T23:42:08Z</time>
      </trkpt>
      <trkpt lat="58.49924" lon="-4.63314">
        <ele>47.26</ele>
        <time>2021-03-20T23:42:11Z</time>
      </trkpt>
      <trkpt lat="58.49913" lon="-4.63273">
        <ele>46.75</ele>
        <time>2021-03-20T23:42:14Z</time>
      </trkpt>
      <trkpt lat="58.49908" lon="-4.63224">
        <ele>46.35</ele>
        <time>2021-03-20T23:42:17Z</time>
      </trkpt>
      <trkpt lat="58.49908" lon="-4.63185">
        <ele>46.02</ele>
        <time>2021-03-20T23:42:20Z</time>
      </trkpt>
      <trkpt lat="58.49912" lon="-4.63151">
        <ele>45.08</ele>
        <time>2021-03-20T23:42:23Z</time>
      </trkpt>
      <trkpt lat="58.49919" lon="-4.63119">
        <ele>44.38</ele>
        <time>2021-03-20T23:42:26Z</time>
      </trkpt>
      <trkpt lat="58.49931" lon="-4.63088">
        <ele>42.85</ele>
        <time>2021-03-20T23:42:29Z</time>
      </trkpt>
      <trkpt lat="58.50316" lon="-4.62536">
        <ele>27</ele>
        <time>2021-03-20T23:42:32Z</time>
      </trkpt>
      <trkpt lat="58.50336" lon="-4.62512">
        <ele>27.1</ele>
        <time>2021-03-20T23:42:35Z</time>
      </trkpt>
      <trkpt lat="58.50387" lon="-4.62465">
        <ele>26.82</ele>
        <time>2021-03-20T23:42:38Z</time>
      </trkpt>
      <trkpt lat="58.50405" lon="-4.62436">
        <ele>25.11</ele>
        <time>2021-03-20T23:42:41Z</time>
      </trkpt>
      <trkpt lat="58.50417" lon="-4.62408">
        <ele>23.32</ele>
        <time>2021-03-20T23:42:44Z</time>
      </trkpt>
      <trkpt lat="58.50426" lon="-4.62383">
        <ele>21.46</ele>
        <time>2021-03-20T23:42:47Z</time>
      </trkpt>
      <trkpt lat="58.50435" lon="-4.62312">
        <ele>16.84</ele>
        <time>2021-03-20T23:42:51Z</time>
      </trkpt>
      <trkpt lat="58.50435" lon="-4.62268">
        <ele>12.68</ele>
        <time>2021-03-20T23:42:54Z</time>
      </trkpt>
      <trkpt lat="58.50429" lon="-4.6223">
        <ele>10.09</ele>
        <time>2021-03-20T23:42:57Z</time>
      </trkpt>
      <trkpt lat="58.50417" lon="-4.62192">
        <ele>8.82</ele>
        <time>2021-03-20T23:43:00Z</time>
      </trkpt>
      <trkpt lat="58.50375" lon="-4.62102">
        <ele>13.33</ele>
        <time>2021-03-20T23:43:03Z</time>
      </trkpt>
      <trkpt lat="58.50356" lon="-4.62092">
        <ele>15.89</ele>
        <time>2021-03-20T23:43:06Z</time>
      </trkpt>
      <trkpt lat="58.50339" lon="-4.62093">
        <ele>16.36</ele>
        <time>2021-03-20T23:43:09Z</time>
      </trkpt>
      <trkpt lat="58.50299" lon="-4.62149">
        <ele>12.15</ele>
        <time>2021-03-20T23:43:12Z</time>
      </trkpt>
      <trkpt lat="58.50281" lon="-4.62149">
        <ele>12.79</ele>
        <time>2021-03-20T23:43:15Z</time>
      </trkpt>
      <trkpt lat="58.5026" lon="-4.62145">
        <ele>12.2</ele>
        <time>2021-03-20T23:43:18Z</time>
      </trkpt>
      <trkpt lat="58.50241" lon="-4.62128">
        <ele>12.75</ele>
        <time>2021-03-20T23:43:21Z</time>
      </trkpt>
      <trkpt lat="58.50187" lon="-4.62048">
        <ele>17.51</ele>
        <time>2021-03-20T23:43:24Z</time>
      </trkpt>
      <trkpt lat="58.50172" lon="-4.62022">
        <ele>20.21</ele>
        <time>2021-03-20T23:43:27Z</time>
      </trkpt>
      <trkpt lat="58.50167" lon="-4.62">
        <ele>23.04</ele>
        <time>2021-03-20T23:43:30Z</time>
      </trkpt>
      <trkpt lat="58.50166" lon="-4.61976">
        <ele>25.58</ele>
        <time>2021-03-20T23:43:33Z</time>
      </trkpt>
      <trkpt lat="58.50167" lon="-4.6195">
        <ele>28.41</ele>
        <time>2021-03-20T23:43:36Z</time>
      </trkpt>
      <trkpt lat="58.50173" lon="-4.6193">
        <ele>30.91</ele>
        <time>2021-03-20T23:43:39Z</time>
      </trkpt>
      <trkpt lat="58.50184" lon="-4.61912">
        <ele>33.24</ele>
        <time>2021-03-20T23:43:42Z</time>
      </trkpt>
      <trkpt lat="58.502" lon="-4.61903">
        <ele>34.69</ele>
        <time>2021-03-20T23:43:45Z</time>
      </trkpt>
      <trkpt lat="58.50241" lon="-4.61905">
        <ele>36.33</ele>
        <time>2021-03-20T23:43:48Z</time>
      </trkpt>
      <trkpt lat="58.50251" lon="-4.61908">
        <ele>36.68</ele>
        <time>2021-03-20T23:43:51Z</time>
      </trkpt>
      <trkpt lat="58.50296" lon="-4.61904">
        <ele>40.24</ele>
        <time>2021-03-20T23:43:54Z</time>
      </trkpt>
      <trkpt lat="58.50316" lon="-4.61888">
        <ele>43.19</ele>
        <time>2021-03-20T23:43:57Z</time>
      </trkpt>
      <trkpt lat="58.50338" lon="-4.61852">
        <ele>47.84</ele>
        <time>2021-03-20T23:44:00Z</time>
      </trkpt>
      <trkpt lat="58.5035" lon="-4.61821">
        <ele>52.29</ele>
        <time>2021-03-20T23:44:03Z</time>
      </trkpt>
      <trkpt lat="58.50356" lon="-4.61795">
        <ele>54.19</ele>
        <time>2021-03-20T23:44:06Z</time>
      </trkpt>
      <trkpt lat="58.50358" lon="-4.61767">
        <ele>55.71</ele>
        <time>2021-03-20T23:44:09Z</time>
      </trkpt>
      <trkpt lat="58.50358" lon="-4.61732">
        <ele>56.83</ele>
        <time>2021-03-20T23:44:13Z</time>
      </trkpt>
      <trkpt lat="58.50353" lon="-4.61694">
        <ele>58.21</ele>
        <time>2021-03-20T23:44:16Z</time>
      </trkpt>
      <trkpt lat="58.50337" lon="-4.61638">
        <ele>60.65</ele>
        <time>2021-03-20T23:44:19Z</time>
      </trkpt>
      <trkpt lat="58.50311" lon="-4.61578">
        <ele>63.31</ele>
        <time>2021-03-20T23:44:22Z</time>
      </trkpt>
      <trkpt lat="58.50302" lon="-4.61546">
        <ele>66.44</ele>
        <time>2021-03-20T23:44:25Z</time>
      </trkpt>
      <trkpt lat="58.50298" lon="-4.61497">
        <ele>70.56</ele>
        <time>2021-03-20T23:44:28Z</time>
      </trkpt>
      <trkpt lat="58.50299" lon="-4.61461">
        <ele>72.23</ele>
        <time>2021-03-20T23:44:31Z</time>
      </trkpt>
      <trkpt lat="58.5031" lon="-4.61428">
        <ele>74.92</ele>
        <time>2021-03-20T23:44:34Z</time>
      </trkpt>
      <trkpt lat="58.50325" lon="-4.61407">
        <ele>77.1</ele>
        <time>2021-03-20T23:44:37Z</time>
      </trkpt>
      <trkpt lat="58.50428" lon="-4.61306">
        <ele>86.35</ele>
        <time>2021-03-20T23:44:40Z</time>
      </trkpt>
      <trkpt lat="58.50456" lon="-4.61269">
        <ele>90.18</ele>
        <time>2021-03-20T23:44:43Z</time>
      </trkpt>
      <trkpt lat="58.50482" lon="-4.61224">
        <ele>93.61</ele>
        <time>2021-03-20T23:44:46Z</time>
      </trkpt>
      <trkpt lat="58.50514" lon="-4.61158">
        <ele>96.52</ele>
        <time>2021-03-20T23:44:49Z</time>
      </trkpt>
      <trkpt lat="58.50552" lon="-4.61029">
        <ele>100.64</ele>
        <time>2021-03-20T23:44:52Z</time>
      </trkpt>
      <trkpt lat="58.50568" lon="-4.60943">
        <ele>103.94</ele>
        <time>2021-03-20T23:44:55Z</time>
      </trkpt>
      <trkpt lat="58.50622" lon="-4.60254">
        <ele>127.99</ele>
        <time>2021-03-20T23:44:58Z</time>
      </trkpt>
      <trkpt lat="58.50629" lon="-4.6014">
        <ele>132.61</ele>
        <time>2021-03-20T23:45:01Z</time>
      </trkpt>
      <trkpt lat="58.50632" lon="-4.59997">
        <ele>137</ele>
        <time>2021-03-20T23:45:04Z</time>
      </trkpt>
      <trkpt lat="58.50627" lon="-4.59894">
        <ele>140.3</ele>
        <time>2021-03-20T23:45:07Z</time>
      </trkpt>
      <trkpt lat="58.50615" lon="-4.59814">
        <ele>142.82</ele>
        <time>2021-03-20T23:45:10Z</time>
      </trkpt>
      <trkpt lat="58.50597" lon="-4.59757">
        <ele>143.76</ele>
        <time>2021-03-20T23:45:13Z</time>
      </trkpt>
      <trkpt lat="58.50566" lon="-4.59709">
        <ele>144.83</ele>
        <time>2021-03-20T23:45:16Z</time>
      </trkpt>
      <trkpt lat="58.5054" lon="-4.59675">
        <ele>146.4</ele>
        <time>2021-03-20T23:45:19Z</time>
      </trkpt>
      <trkpt lat="58.50428" lon="-4.59591">
        <ele>151.72</ele>
        <time>2021-03-20T23:45:22Z</time>
      </trkpt>
      <trkpt lat="58.5037" lon="-4.59533">
        <ele>156.6</ele>
        <time>2021-03-20T23:45:25Z</time>
      </trkpt>
      <trkpt lat="58.50281" lon="-4.5943">
        <ele>163.24</ele>
        <time>2021-03-20T23:45:28Z</time>
      </trkpt>
      <trkpt lat="58.5026" lon="-4.59387">
        <ele>165.8</ele>
        <time>2021-03-20T23:45:32Z</time>
      </trkpt>
      <trkpt lat="58.5024" lon="-4.59339">
        <ele>167.84</ele>
        <time>2021-03-20T23:45:35Z</time>
      </trkpt>
      <trkpt lat="58.50222" lon="-4.59279">
        <ele>168.94</ele>
        <time>2021-03-20T23:45:38Z</time>
      </trkpt>
      <trkpt lat="58.5021" lon="-4.59216">
        <ele>171.8</ele>
        <time>2021-03-20T23:45:41Z</time>
      </trkpt>
      <trkpt lat="58.502" lon="-4.59143">
        <ele>174.1</ele>
        <time>2021-03-20T23:45:44Z</time>
      </trkpt>
      <trkpt lat="58.50197" lon="-4.58746">
        <ele>176.24</ele>
        <time>2021-03-20T23:45:47Z</time>
      </trkpt>
      <trkpt lat="58.50195" lon="-4.58703">
        <ele>177.7</ele>
        <time>2021-03-20T23:45:50Z</time>
      </trkpt>
      <trkpt lat="58.50169" lon="-4.58385">
        <ele>181.08</ele>
        <time>2021-03-20T23:45:53Z</time>
      </trkpt>
      <trkpt lat="58.50156" lon="-4.57992">
        <ele>179</ele>
        <time>2021-03-20T23:45:56Z</time>
      </trkpt>
      <trkpt lat="58.50158" lon="-4.57866">
        <ele>180</ele>
        <time>2021-03-20T23:45:59Z</time>
      </trkpt>
      <trkpt lat="58.50164" lon="-4.57747">
        <ele>183.19</ele>
        <time>2021-03-20T23:46:02Z</time>
      </trkpt>
      <trkpt lat="58.50174" lon="-4.57664">
        <ele>185.78</ele>
        <time>2021-03-20T23:46:05Z</time>
      </trkpt>
      <trkpt lat="58.50196" lon="-4.57567">
        <ele>187.42</ele>
        <time>2021-03-20T23:46:08Z</time>
      </trkpt>
      <trkpt lat="58.50215" lon="-4.57501">
        <ele>187.79</ele>
        <time>2021-03-20T23:46:11Z</time>
      </trkpt>
      <trkpt lat="58.50237" lon="-4.5744">
        <ele>190.78</ele>
        <time>2021-03-20T23:46:14Z</time>
      </trkpt>
      <trkpt lat="58.50284" lon="-4.57344">
        <ele>195.05</ele>
        <time>2021-03-20T23:46:17Z</time>
      </trkpt>
      <trkpt lat="58.50366" lon="-4.57216">
        <ele>198.85</ele>
        <time>2021-03-20T23:46:20Z</time>
      </trkpt>
      <trkpt lat="58.50387" lon="-4.57178">
        <ele>199.33</ele>
        <time>2021-03-20T23:46:23Z</time>
      </trkpt>
      <trkpt lat="58.50405" lon="-4.57137">
        <ele>199.39</ele>
        <time>2021-03-20T23:46:26Z</time>
      </trkpt>
      <trkpt lat="58.50437" lon="-4.57046">
        <ele>201.55</ele>
        <time>2021-03-20T23:46:29Z</time>
      </trkpt>
      <trkpt lat="58.5045" lon="-4.56998">
        <ele>201.82</ele>
        <time>2021-03-20T23:46:32Z</time>
      </trkpt>
      <trkpt lat="58.50465" lon="-4.56919">
        <ele>203.67</ele>
        <time>2021-03-20T23:46:35Z</time>
      </trkpt>
      <trkpt lat="58.50476" lon="-4.56829">
        <ele>207.02</ele>
        <time>2021-03-20T23:46:38Z</time>
      </trkpt>
      <trkpt lat="58.50483" lon="-4.56716">
        <ele>212.6</ele>
        <time>2021-03-20T23:46:41Z</time>
      </trkpt>
      <trkpt lat="58.50482" lon="-4.56647">
        <ele>215.04</ele>
        <time>2021-03-20T23:46:44Z</time>
      </trkpt>
      <trkpt lat="58.50472" lon="-4.56486">
        <ele>218.97</ele>
        <time>2021-03-20T23:46:47Z</time>
      </trkpt>
      <trkpt lat="58.50467" lon="-4.56319">
        <ele>220.81</ele>
        <time>2021-03-20T23:46:51Z</time>
      </trkpt>
      <trkpt lat="58.50475" lon="-4.56195">
        <ele>220.1</ele>
        <time>2021-03-20T23:46:54Z</time>
      </trkpt>
      <trkpt lat="58.50493" lon="-4.56081">
        <ele>219.93</ele>
        <time>2021-03-20T23:46:57Z</time>
      </trkpt>
      <trkpt lat="58.50529" lon="-4.55942">
        <ele>219.08</ele>
        <time>2021-03-20T23:47:00Z</time>
      </trkpt>
      <trkpt lat="58.5055" lon="-4.5585">
        <ele>220.82</ele>
        <time>2021-03-20T23:47:03Z</time>
      </trkpt>
      <trkpt lat="58.50571" lon="-4.55746">
        <ele>220.57</ele>
        <time>2021-03-20T23:47:06Z</time>
      </trkpt>
      <trkpt lat="58.5059" lon="-4.55606">
        <ele>218.22</ele>
        <time>2021-03-20T23:47:09Z</time>
      </trkpt>
      <trkpt lat="58.50597" lon="-4.55413">
        <ele>218</ele>
        <time>2021-03-20T23:47:12Z</time>
      </trkpt>
      <trkpt lat="58.50593" lon="-4.55292">
        <ele>218</ele>
        <time>2021-03-20T23:47:15Z</time>
      </trkpt>
      <trkpt lat="58.50584" lon="-4.55178">
        <ele>218.99</ele>
        <time>2021-03-20T23:47:18Z</time>
      </trkpt>
      <trkpt lat="58.50564" lon="-4.55042">
        <ele>220</ele>
        <time>2021-03-20T23:47:21Z</time>
      </trkpt>
      <trkpt lat="58.50532" lon="-4.54903">
        <ele>222.93</ele>
        <time>2021-03-20T23:47:24Z</time>
      </trkpt>
      <trkpt lat="58.50265" lon="-4.5387">
        <ele>211.68</ele>
        <time>2021-03-20T23:47:27Z</time>
      </trkpt>
      <trkpt lat="58.50241" lon="-4.53759">
        <ele>207.99</ele>
        <time>2021-03-20T23:47:30Z</time>
      </trkpt>
      <trkpt lat="58.50225" lon="-4.53669">
        <ele>205.08</ele>
        <time>2021-03-20T23:47:33Z</time>
      </trkpt>
      <trkpt lat="58.50215" lon="-4.53596">
        <ele>203</ele>
        <time>2021-03-20T23:47:36Z</time>
      </trkpt>
      <trkpt lat="58.50196" lon="-4.53427">
        <ele>197.97</ele>
        <time>2021-03-20T23:47:39Z</time>
      </trkpt>
      <trkpt lat="58.50185" lon="-4.53248">
        <ele>192.94</ele>
        <time>2021-03-20T23:47:42Z</time>
      </trkpt>
      <trkpt lat="58.50178" lon="-4.52916">
        <ele>184.97</ele>
        <time>2021-03-20T23:47:45Z</time>
      </trkpt>
      <trkpt lat="58.50187" lon="-4.52553">
        <ele>179.28</ele>
        <time>2021-03-20T23:47:48Z</time>
      </trkpt>
      <trkpt lat="58.50198" lon="-4.52349">
        <ele>175.57</ele>
        <time>2021-03-20T23:47:51Z</time>
      </trkpt>
      <trkpt lat="58.50219" lon="-4.52185">
        <ele>172.64</ele>
        <time>2021-03-20T23:47:54Z</time>
      </trkpt>
      <trkpt lat="58.50237" lon="-4.52091">
        <ele>170</ele>
        <time>2021-03-20T23:47:57Z</time>
      </trkpt>
      <trkpt lat="58.5025" lon="-4.52034">
        <ele>168.22</ele>
        <time>2021-03-20T23:48:00Z</time>
      </trkpt>
      <trkpt lat="58.50289" lon="-4.51901">
        <ele>165.45</ele>
        <time>2021-03-20T23:48:03Z</time>
      </trkpt>
      <trkpt lat="58.50348" lon="-4.51727">
        <ele>162.17</ele>
        <time>2021-03-20T23:48:06Z</time>
      </trkpt>
      <trkpt lat="58.50369" lon="-4.51645">
        <ele>161</ele>
        <time>2021-03-20T23:48:09Z</time>
      </trkpt>
      <trkpt lat="58.50395" lon="-4.51507">
        <ele>161</ele>
        <time>2021-03-20T23:48:13Z</time>
      </trkpt>
      <trkpt lat="58.5041" lon="-4.51354">
        <ele>159.93</ele>
        <time>2021-03-20T23:48:16Z</time>
      </trkpt>
      <trkpt lat="58.50413" lon="-4.51241">
        <ele>157.69</ele>
        <time>2021-03-20T23:48:19Z</time>
      </trkpt>
      <trkpt lat="58.50432" lon="-4.50001">
        <ele>129.48</ele>
        <time>2021-03-20T23:48:22Z</time>
      </trkpt>
      <trkpt lat="58.50433" lon="-4.49684">
        <ele>127.63</ele>
        <time>2021-03-20T23:48:25Z</time>
      </trkpt>
      <trkpt lat="58.50431" lon="-4.49611">
        <ele>127</ele>
        <time>2021-03-20T23:48:28Z</time>
      </trkpt>
      <trkpt lat="58.50423" lon="-4.49519">
        <ele>127</ele>
        <time>2021-03-20T23:48:31Z</time>
      </trkpt>
      <trkpt lat="58.50405" lon="-4.49435">
        <ele>126</ele>
        <time>2021-03-20T23:48:34Z</time>
      </trkpt>
      <trkpt lat="58.50378" lon="-4.49342">
        <ele>125.87</ele>
        <time>2021-03-20T23:48:37Z</time>
      </trkpt>
      <trkpt lat="58.5035" lon="-4.49264">
        <ele>126</ele>
        <time>2021-03-20T23:48:40Z</time>
      </trkpt>
      <trkpt lat="58.50285" lon="-4.49137">
        <ele>126.02</ele>
        <time>2021-03-20T23:48:43Z</time>
      </trkpt>
      <trkpt lat="58.50231" lon="-4.48999">
        <ele>125</ele>
        <time>2021-03-20T23:48:46Z</time>
      </trkpt>
      <trkpt lat="58.50201" lon="-4.48916">
        <ele>124</ele>
        <time>2021-03-20T23:48:49Z</time>
      </trkpt>
      <trkpt lat="58.50169" lon="-4.48808">
        <ele>123.09</ele>
        <time>2021-03-20T23:48:52Z</time>
      </trkpt>
      <trkpt lat="58.50133" lon="-4.48719">
        <ele>120.79</ele>
        <time>2021-03-20T23:48:55Z</time>
      </trkpt>
      <trkpt lat="58.50094" lon="-4.4864">
        <ele>120</ele>
        <time>2021-03-20T23:48:58Z</time>
      </trkpt>
      <trkpt lat="58.50043" lon="-4.48575">
        <ele>118.86</ele>
        <time>2021-03-20T23:49:01Z</time>
      </trkpt>
      <trkpt lat="58.49997" lon="-4.4852">
        <ele>117.14</ele>
        <time>2021-03-20T23:49:04Z</time>
      </trkpt>
      <trkpt lat="58.4994" lon="-4.4848">
        <ele>115.31</ele>
        <time>2021-03-20T23:49:07Z</time>
      </trkpt>
      <trkpt lat="58.49883" lon="-4.48448">
        <ele>112.43</ele>
        <time>2021-03-20T23:49:10Z</time>
      </trkpt>
      <trkpt lat="58.49793" lon="-4.48414">
        <ele>106.72</ele>
        <time>2021-03-20T23:49:13Z</time>
      </trkpt>
      <trkpt lat="58.49767" lon="-4.48396">
        <ele>105.98</ele>
        <time>2021-03-20T23:49:16Z</time>
      </trkpt>
      <trkpt lat="58.49749" lon="-4.48379">
        <ele>104.91</ele>
        <time>2021-03-20T23:49:19Z</time>
      </trkpt>
      <trkpt lat="58.49733" lon="-4.48354">
        <ele>103.85</ele>
        <time>2021-03-20T23:49:22Z</time>
      </trkpt>
      <trkpt lat="58.49711" lon="-4.48309">
        <ele>102.22</ele>
        <time>2021-03-20T23:49:25Z</time>
      </trkpt>
      <trkpt lat="58.49697" lon="-4.48269">
        <ele>101.19</ele>
        <time>2021-03-20T23:49:28Z</time>
      </trkpt>
      <trkpt lat="58.49686" lon="-4.48212">
        <ele>98.68</ele>
        <time>2021-03-20T23:49:32Z</time>
      </trkpt>
      <trkpt lat="58.49671" lon="-4.48103">
        <ele>91.17</ele>
        <time>2021-03-20T23:49:35Z</time>
      </trkpt>
      <trkpt lat="58.49615" lon="-4.47605">
        <ele>76.28</ele>
        <time>2021-03-20T23:49:38Z</time>
      </trkpt>
      <trkpt lat="58.49608" lon="-4.4747">
        <ele>73.6</ele>
        <time>2021-03-20T23:49:41Z</time>
      </trkpt>
      <trkpt lat="58.49608" lon="-4.47324">
        <ele>67.76</ele>
        <time>2021-03-20T23:49:44Z</time>
      </trkpt>
      <trkpt lat="58.49617" lon="-4.47199">
        <ele>63.02</ele>
        <time>2021-03-20T23:49:47Z</time>
      </trkpt>
      <trkpt lat="58.49651" lon="-4.46961">
        <ele>49.93</ele>
        <time>2021-03-20T23:49:50Z</time>
      </trkpt>
      <trkpt lat="58.49771" lon="-4.46154">
        <ele>26.06</ele>
        <time>2021-03-20T23:49:53Z</time>
      </trkpt>
      <trkpt lat="58.49777" lon="-4.46074">
        <ele>23.56</ele>
        <time>2021-03-20T23:49:56Z</time>
      </trkpt>
      <trkpt lat="58.49777" lon="-4.45953">
        <ele>19.19</ele>
        <time>2021-03-20T23:49:59Z</time>
      </trkpt>
      <trkpt lat="58.49774" lon="-4.45872">
        <ele>16.05</ele>
        <time>2021-03-20T23:50:02Z</time>
      </trkpt>
      <trkpt lat="58.49765" lon="-4.45779">
        <ele>13.1</ele>
        <time>2021-03-20T23:50:05Z</time>
      </trkpt>
      <trkpt lat="58.49739" lon="-4.4563">
        <ele>9.61</ele>
        <time>2021-03-20T23:50:08Z</time>
      </trkpt>
      <trkpt lat="58.49719" lon="-4.4555">
        <ele>7.7</ele>
        <time>2021-03-20T23:50:11Z</time>
      </trkpt>
      <trkpt lat="58.49695" lon="-4.45473">
        <ele>4.04</ele>
        <time>2021-03-20T23:50:14Z</time>
      </trkpt>
      <trkpt lat="58.49475" lon="-4.44985">
        <ele>1</ele>
        <time>2021-03-20T23:50:17Z</time>
      </trkpt>
      <trkpt lat="58.49408" lon="-4.44848">
        <ele>1.84</ele>
        <time>2021-03-20T23:50:20Z</time>
      </trkpt>
      <trkpt lat="58.4935" lon="-4.44688">
        <ele>2</ele>
        <time>2021-03-20T23:50:23Z</time>
      </trkpt>
      <trkpt lat="58.49323" lon="-4.44594">
        <ele>1.39</ele>
        <time>2021-03-20T23:50:26Z</time>
      </trkpt>
      <trkpt lat="58.493" lon="-4.44504">
        <ele>2.19</ele>
        <time>2021-03-20T23:50:29Z</time>
      </trkpt>
      <trkpt lat="58.4926" lon="-4.44316">
        <ele>2</ele>
        <time>2021-03-20T23:50:32Z</time>
      </trkpt>
      <trkpt lat="58.49232" lon="-4.44125">
        <ele>1</ele>
        <time>2021-03-20T23:50:35Z</time>
      </trkpt>
      <trkpt lat="58.49215" lon="-4.43899">
        <ele>-12.6</ele>
        <time>2021-03-20T23:50:38Z</time>
      </trkpt>
      <trkpt lat="58.49213" lon="-4.43771">
        <ele>1.33</ele>
        <time>2021-03-20T23:50:41Z</time>
      </trkpt>
      <trkpt lat="58.49213" lon="-4.43636">
        <ele>1.32</ele>
        <time>2021-03-20T23:50:44Z</time>
      </trkpt>
      <trkpt lat="58.49246" lon="-4.43106">
        <ele>2</ele>
        <time>2021-03-20T23:50:47Z</time>
      </trkpt>
      <trkpt lat="58.49245" lon="-4.43039">
        <ele>2</ele>
        <time>2021-03-20T23:50:51Z</time>
      </trkpt>
      <trkpt lat="58.49241" lon="-4.4298">
        <ele>2.49</ele>
        <time>2021-03-20T23:50:54Z</time>
      </trkpt>
      <trkpt lat="58.4926" lon="-4.42972">
        <ele>2.67</ele>
        <time>2021-03-20T23:50:59Z</time>
      </trkpt>
      <trkpt lat="58.49264" lon="-4.42961">
        <ele>2.7</ele>
        <time>2021-03-20T23:51:04Z</time>
      </trkpt>
      <trkpt lat="58.49268" lon="-4.42936">
        <ele>2.79</ele>
        <time>2021-03-20T23:51:09Z</time>
      </trkpt>
      <trkpt lat="58.49275" lon="-4.42873">
        <ele>3.85</ele>
        <time>2021-03-20T23:51:14Z</time>
      </trkpt>
      <trkpt lat="58.49281" lon="-4.42761">
        <ele>5.48</ele>
        <time>2021-03-20T23:51:19Z</time>
      </trkpt>
      <trkpt lat="58.49289" lon="-4.42651">
        <ele>6.32</ele>
        <time>2021-03-20T23:51:24Z</time>
      </trkpt>
      <trkpt lat="58.49315" lon="-4.42481">
        <ele>5.6</ele>
        <time>2021-03-20T23:51:29Z</time>
      </trkpt>
      <trkpt lat="58.49325" lon="-4.42392">
        <ele>5.7</ele>
        <time>2021-03-20T23:51:34Z</time>
      </trkpt>
      <trkpt lat="58.49334" lon="-4.42264">
        <ele>5.87</ele>
        <time>2021-03-20T23:51:40Z</time>
      </trkpt>
      <trkpt lat="58.49326" lon="-4.42135">
        <ele>7.25</ele>
        <time>2021-03-20T23:51:45Z</time>
      </trkpt>
      <trkpt lat="58.4933" lon="-4.42068">
        <ele>6.69</ele>
        <time>2021-03-20T23:51:50Z</time>
      </trkpt>
      <trkpt lat="58.49335" lon="-4.42011">
        <ele>7.38</ele>
        <time>2021-03-20T23:51:55Z</time>
      </trkpt>
      <trkpt lat="58.49348" lon="-4.41978">
        <ele>7.28</ele>
        <time>2021-03-20T23:52:00Z</time>
      </trkpt>
      <trkpt lat="58.49424" lon="-4.41899">
        <ele>3.11</ele>
        <time>2021-03-20T23:52:05Z</time>
      </trkpt>
      <trkpt lat="58.49442" lon="-4.41872">
        <ele>2.88</ele>
        <time>2021-03-20T23:52:10Z</time>
      </trkpt>
      <trkpt lat="58.49474" lon="-4.41779">
        <ele>4.81</ele>
        <time>2021-03-20T23:52:15Z</time>
      </trkpt>
      <trkpt lat="58.49533" lon="-4.41642">
        <ele>6.99</ele>
        <time>2021-03-20T23:52:20Z</time>
      </trkpt>
      <trkpt lat="58.4958" lon="-4.41542">
        <ele>12</ele>
        <time>2021-03-20T23:52:25Z</time>
      </trkpt>
      <trkpt lat="58.49644" lon="-4.4144">
        <ele>14.85</ele>
        <time>2021-03-20T23:52:30Z</time>
      </trkpt>
      <trkpt lat="58.49663" lon="-4.41399">
        <ele>17.87</ele>
        <time>2021-03-20T23:52:35Z</time>
      </trkpt>
      <trkpt lat="58.49732" lon="-4.41228">
        <ele>30.25</ele>
        <time>2021-03-20T23:52:40Z</time>
      </trkpt>
      <trkpt lat="58.49792" lon="-4.41101">
        <ele>30.36</ele>
        <time>2021-03-20T23:52:45Z</time>
      </trkpt>
      <trkpt lat="58.49815" lon="-4.41038">
        <ele>35.45</ele>
        <time>2021-03-20T23:52:49Z</time>
      </trkpt>
      <trkpt lat="58.49837" lon="-4.4096">
        <ele>44.79</ele>
        <time>2021-03-20T23:52:54Z</time>
      </trkpt>
      <trkpt lat="58.49838" lon="-4.40939">
        <ele>48.56</ele>
        <time>2021-03-20T23:52:59Z</time>
      </trkpt>
      <trkpt lat="58.49832" lon="-4.40926">
        <ele>51.44</ele>
        <time>2021-03-20T23:53:04Z</time>
      </trkpt>
      <trkpt lat="58.49811" lon="-4.40919">
        <ele>54.33</ele>
        <time>2021-03-20T23:53:09Z</time>
      </trkpt>
      <trkpt lat="58.49734" lon="-4.40921">
        <ele>58.27</ele>
        <time>2021-03-20T23:53:14Z</time>
      </trkpt>
      <trkpt lat="58.49703" lon="-4.40926">
        <ele>60.65</ele>
        <time>2021-03-20T23:53:19Z</time>
      </trkpt>
      <trkpt lat="58.49673" lon="-4.40939">
        <ele>64.37</ele>
        <time>2021-03-20T23:53:24Z</time>
      </trkpt>
      <trkpt lat="58.49653" lon="-4.40959">
        <ele>65.3</ele>
        <time>2021-03-20T23:53:29Z</time>
      </trkpt>
      <trkpt lat="58.49637" lon="-4.40981">
        <ele>65.3</ele>
        <time>2021-03-20T23:53:34Z</time>
      </trkpt>
      <trkpt lat="58.49624" lon="-4.40992">
        <ele>65.67</ele>
        <time>2021-03-20T23:53:39Z</time>
      </trkpt>
      <trkpt lat="58.49602" lon="-4.40995">
        <ele>68.12</ele>
        <time>2021-03-20T23:53:44Z</time>
      </trkpt>
      <trkpt lat="58.49591" lon="-4.4099">
        <ele>70.56</ele>
        <time>2021-03-20T23:53:49Z</time>
      </trkpt>
      <trkpt lat="58.49587" lon="-4.40976">
        <ele>73.71</ele>
        <time>2021-03-20T23:53:54Z</time>
      </trkpt>
      <trkpt lat="58.49612" lon="-4.40965">
        <ele>71.07</ele>
        <time>2021-03-20T23:53:57Z</time>
      </trkpt>
      <trkpt lat="58.49636" lon="-4.40942">
        <ele>70.72</ele>
        <time>2021-03-20T23:54:00Z</time>
      </trkpt>
      <trkpt lat="58.49662" lon="-4.4091">
        <ele>69.61</ele>
        <time>2021-03-20T23:54:04Z</time>
      </trkpt>
      <trkpt lat="58.49742" lon="-4.4073">
        <ele>81.96</ele>
        <time>2021-03-20T23:54:07Z</time>
      </trkpt>
      <trkpt lat="58.4979" lon="-4.40606">
        <ele>80.1</ele>
        <time>2021-03-20T23:54:10Z</time>
      </trkpt>
      <trkpt lat="58.49796" lon="-4.40581">
        <ele>79.62</ele>
        <time>2021-03-20T23:54:13Z</time>
      </trkpt>
      <trkpt lat="58.4981" lon="-4.40502">
        <ele>77.38</ele>
        <time>2021-03-20T23:54:16Z</time>
      </trkpt>
      <trkpt lat="58.49838" lon="-4.4038">
        <ele>77.74</ele>
        <time>2021-03-20T23:54:19Z</time>
      </trkpt>
      <trkpt lat="58.49866" lon="-4.40301">
        <ele>76.61</ele>
        <time>2021-03-20T23:54:23Z</time>
      </trkpt>
      <trkpt lat="58.49918" lon="-4.40189">
        <ele>77.28</ele>
        <time>2021-03-20T23:54:26Z</time>
      </trkpt>
      <trkpt lat="58.49941" lon="-4.40135">
        <ele>76.38</ele>
        <time>2021-03-20T23:54:29Z</time>
      </trkpt>
      <trkpt lat="58.50045" lon="-4.39919">
        <ele>73.83</ele>
        <time>2021-03-20T23:54:32Z</time>
      </trkpt>
      <trkpt lat="58.50134" lon="-4.39647">
        <ele>76.67</ele>
        <time>2021-03-20T23:54:35Z</time>
      </trkpt>
      <trkpt lat="58.50163" lon="-4.3958">
        <ele>78.47</ele>
        <time>2021-03-20T23:54:38Z</time>
      </trkpt>
      <trkpt lat="58.50214" lon="-4.39513">
        <ele>78.24</ele>
        <time>2021-03-20T23:54:42Z</time>
      </trkpt>
      <trkpt lat="58.50273" lon="-4.39449">
        <ele>77.24</ele>
        <time>2021-03-20T23:54:45Z</time>
      </trkpt>
      <trkpt lat="58.50325" lon="-4.39416">
        <ele>77.69</ele>
        <time>2021-03-20T23:54:48Z</time>
      </trkpt>
      <trkpt lat="58.50448" lon="-4.39357">
        <ele>74.98</ele>
        <time>2021-03-20T23:54:51Z</time>
      </trkpt>
      <trkpt lat="58.50477" lon="-4.39335">
        <ele>73.82</ele>
        <time>2021-03-20T23:54:54Z</time>
      </trkpt>
      <trkpt lat="58.50499" lon="-4.3931">
        <ele>73.09</ele>
        <time>2021-03-20T23:54:57Z</time>
      </trkpt>
      <trkpt lat="58.50632" lon="-4.39095">
        <ele>67.5</ele>
        <time>2021-03-20T23:55:01Z</time>
      </trkpt>
      <trkpt lat="58.50648" lon="-4.3906">
        <ele>66.39</ele>
        <time>2021-03-20T23:55:04Z</time>
      </trkpt>
      <trkpt lat="58.50661" lon="-4.39003">
        <ele>63.85</ele>
        <time>2021-03-20T23:55:07Z</time>
      </trkpt>
      <trkpt lat="58.50666" lon="-4.3897">
        <ele>62.03</ele>
        <time>2021-03-20T23:55:10Z</time>
      </trkpt>
      <trkpt lat="58.50667" lon="-4.38914">
        <ele>59.69</ele>
        <time>2021-03-20T23:55:13Z</time>
      </trkpt>
      <trkpt lat="58.50656" lon="-4.38816">
        <ele>57.26</ele>
        <time>2021-03-20T23:55:17Z</time>
      </trkpt>
      <trkpt lat="58.50636" lon="-4.38683">
        <ele>54</ele>
        <time>2021-03-20T23:55:20Z</time>
      </trkpt>
      <trkpt lat="58.50625" lon="-4.38625">
        <ele>52.43</ele>
        <time>2021-03-20T23:55:23Z</time>
      </trkpt>
      <trkpt lat="58.5061" lon="-4.38592">
        <ele>54.02</ele>
        <time>2021-03-20T23:55:26Z</time>
      </trkpt>
      <trkpt lat="58.506" lon="-4.38557">
        <ele>53.94</ele>
        <time>2021-03-20T23:55:29Z</time>
      </trkpt>
      <trkpt lat="58.50597" lon="-4.38531">
        <ele>54.67</ele>
        <time>2021-03-20T23:55:32Z</time>
      </trkpt>
      <trkpt lat="58.50596" lon="-4.38505">
        <ele>54.75</ele>
        <time>2021-03-20T23:55:36Z</time>
      </trkpt>
      <trkpt lat="58.50602" lon="-4.38485">
        <ele>53.96</ele>
        <time>2021-03-20T23:55:39Z</time>
      </trkpt>
      <trkpt lat="58.50618" lon="-4.384">
        <ele>55.19</ele>
        <time>2021-03-20T23:55:42Z</time>
      </trkpt>
      <trkpt lat="58.5062" lon="-4.38383">
        <ele>55.83</ele>
        <time>2021-03-20T23:55:45Z</time>
      </trkpt>
      <trkpt lat="58.50611" lon="-4.38089">
        <ele>62.02</ele>
        <time>2021-03-20T23:55:48Z</time>
      </trkpt>
      <trkpt lat="58.50612" lon="-4.37952">
        <ele>63.81</ele>
        <time>2021-03-20T23:55:51Z</time>
      </trkpt>
      <trkpt lat="58.5061" lon="-4.37908">
        <ele>64.12</ele>
        <time>2021-03-20T23:55:55Z</time>
      </trkpt>
      <trkpt lat="58.50606" lon="-4.37884">
        <ele>64.24</ele>
        <time>2021-03-20T23:55:58Z</time>
      </trkpt>
      <trkpt lat="58.506" lon="-4.37866">
        <ele>63.13</ele>
        <time>2021-03-20T23:56:01Z</time>
      </trkpt>
      <trkpt lat="58.50585" lon="-4.37838">
        <ele>62.22</ele>
        <time>2021-03-20T23:56:04Z</time>
      </trkpt>
      <trkpt lat="58.50555" lon="-4.37816">
        <ele>63.59</ele>
        <time>2021-03-20T23:56:07Z</time>
      </trkpt>
      <trkpt lat="58.50498" lon="-4.37803">
        <ele>64.64</ele>
        <time>2021-03-20T23:56:10Z</time>
      </trkpt>
      <trkpt lat="58.5045" lon="-4.37783">
        <ele>63.67</ele>
        <time>2021-03-20T23:56:14Z</time>
      </trkpt>
      <trkpt lat="58.50372" lon="-4.37716">
        <ele>64.31</ele>
        <time>2021-03-20T23:56:17Z</time>
      </trkpt>
      <trkpt lat="58.50311" lon="-4.37654">
        <ele>67.64</ele>
        <time>2021-03-20T23:56:20Z</time>
      </trkpt>
      <trkpt lat="58.50292" lon="-4.37617">
        <ele>66.28</ele>
        <time>2021-03-20T23:56:23Z</time>
      </trkpt>
      <trkpt lat="58.50278" lon="-4.37538">
        <ele>63.03</ele>
        <time>2021-03-20T23:56:26Z</time>
      </trkpt>
      <trkpt lat="58.50234" lon="-4.37323">
        <ele>63.23</ele>
        <time>2021-03-20T23:56:29Z</time>
      </trkpt>
      <trkpt lat="58.5016" lon="-4.37149">
        <ele>55.49</ele>
        <time>2021-03-20T23:56:33Z</time>
      </trkpt>
      <trkpt lat="58.50047" lon="-4.36891">
        <ele>55.62</ele>
        <time>2021-03-20T23:56:36Z</time>
      </trkpt>
      <trkpt lat="58.50032" lon="-4.36841">
        <ele>56.99</ele>
        <time>2021-03-20T23:56:39Z</time>
      </trkpt>
      <trkpt lat="58.50022" lon="-4.36786">
        <ele>58.43</ele>
        <time>2021-03-20T23:56:42Z</time>
      </trkpt>
      <trkpt lat="58.50027" lon="-4.36719">
        <ele>62.06</ele>
        <time>2021-03-20T23:56:45Z</time>
      </trkpt>
      <trkpt lat="58.50044" lon="-4.36672">
        <ele>64.74</ele>
        <time>2021-03-20T23:56:49Z</time>
      </trkpt>
      <trkpt lat="58.50077" lon="-4.36633">
        <ele>66.81</ele>
        <time>2021-03-20T23:56:52Z</time>
      </trkpt>
      <trkpt lat="58.50115" lon="-4.36609">
        <ele>67.25</ele>
        <time>2021-03-20T23:56:55Z</time>
      </trkpt>
      <trkpt lat="58.50146" lon="-4.36605">
        <ele>69.49</ele>
        <time>2021-03-20T23:56:58Z</time>
      </trkpt>
      <trkpt lat="58.50173" lon="-4.36577">
        <ele>71.47</ele>
        <time>2021-03-20T23:57:01Z</time>
      </trkpt>
      <trkpt lat="58.50185" lon="-4.36553">
        <ele>72.93</ele>
        <time>2021-03-20T23:57:04Z</time>
      </trkpt>
      <trkpt lat="58.50193" lon="-4.36521">
        <ele>73.62</ele>
        <time>2021-03-20T23:57:08Z</time>
      </trkpt>
      <trkpt lat="58.50195" lon="-4.36506">
        <ele>73.29</ele>
        <time>2021-03-20T23:57:11Z</time>
      </trkpt>
      <trkpt lat="58.50195" lon="-4.36453">
        <ele>74.72</ele>
        <time>2021-03-20T23:57:14Z</time>
      </trkpt>
      <trkpt lat="58.50179" lon="-4.36366">
        <ele>79.29</ele>
        <time>2021-03-20T23:57:17Z</time>
      </trkpt>
      <trkpt lat="58.5016" lon="-4.36277">
        <ele>80.1</ele>
        <time>2021-03-20T23:57:20Z</time>
      </trkpt>
      <trkpt lat="58.5015" lon="-4.36158">
        <ele>81.25</ele>
        <time>2021-03-20T23:57:23Z</time>
      </trkpt>
      <trkpt lat="58.50148" lon="-4.36086">
        <ele>83.59</ele>
        <time>2021-03-20T23:57:27Z</time>
      </trkpt>
      <trkpt lat="58.50144" lon="-4.36024">
        <ele>85.04</ele>
        <time>2021-03-20T23:57:30Z</time>
      </trkpt>
      <trkpt lat="58.50147" lon="-4.35959">
        <ele>86.7</ele>
        <time>2021-03-20T23:57:33Z</time>
      </trkpt>
      <trkpt lat="58.50145" lon="-4.35854">
        <ele>86.66</ele>
        <time>2021-03-20T23:57:36Z</time>
      </trkpt>
      <trkpt lat="58.50143" lon="-4.35795">
        <ele>86.78</ele>
        <time>2021-03-20T23:57:39Z</time>
      </trkpt>
      <trkpt lat="58.50136" lon="-4.35766">
        <ele>87.69</ele>
        <time>2021-03-20T23:57:42Z</time>
      </trkpt>
      <trkpt lat="58.50122" lon="-4.3573">
        <ele>89.22</ele>
        <time>2021-03-20T23:57:46Z</time>
      </trkpt>
      <trkpt lat="58.50081" lon="-4.35684">
        <ele>90.09</ele>
        <time>2021-03-20T23:57:49Z</time>
      </trkpt>
      <trkpt lat="58.49963" lon="-4.35583">
        <ele>96.03</ele>
        <time>2021-03-20T23:57:52Z</time>
      </trkpt>
      <trkpt lat="58.49833" lon="-4.35464">
        <ele>99.7</ele>
        <time>2021-03-20T23:57:55Z</time>
      </trkpt>
      <trkpt lat="58.49798" lon="-4.35412">
        <ele>101.08</ele>
        <time>2021-03-20T23:57:58Z</time>
      </trkpt>
      <trkpt lat="58.49781" lon="-4.35334">
        <ele>100.76</ele>
        <time>2021-03-20T23:58:01Z</time>
      </trkpt>
      <trkpt lat="58.49773" lon="-4.35222">
        <ele>100.7</ele>
        <time>2021-03-20T23:58:05Z</time>
      </trkpt>
      <trkpt lat="58.49768" lon="-4.35112">
        <ele>100.09</ele>
        <time>2021-03-20T23:58:08Z</time>
      </trkpt>
      <trkpt lat="58.49771" lon="-4.35037">
        <ele>100.49</ele>
        <time>2021-03-20T23:58:11Z</time>
      </trkpt>
      <trkpt lat="58.49775" lon="-4.35005">
        <ele>100.24</ele>
        <time>2021-03-20T23:58:14Z</time>
      </trkpt>
      <trkpt lat="58.49781" lon="-4.34979">
        <ele>100.5</ele>
        <time>2021-03-20T23:58:17Z</time>
      </trkpt>
      <trkpt lat="58.4979" lon="-4.3495">
        <ele>100.93</ele>
        <time>2021-03-20T23:58:21Z</time>
      </trkpt>
      <trkpt lat="58.49872" lon="-4.34756">
        <ele>99.61</ele>
        <time>2021-03-20T23:58:24Z</time>
      </trkpt>
      <trkpt lat="58.49931" lon="-4.34624">
        <ele>95.22</ele>
        <time>2021-03-20T23:58:27Z</time>
      </trkpt>
      <trkpt lat="58.50029" lon="-4.34393">
        <ele>90.2</ele>
        <time>2021-03-20T23:58:30Z</time>
      </trkpt>
      <trkpt lat="58.501" lon="-4.34257">
        <ele>88.44</ele>
        <time>2021-03-20T23:58:33Z</time>
      </trkpt>
      <trkpt lat="58.50133" lon="-4.3421">
        <ele>87.01</ele>
        <time>2021-03-20T23:58:36Z</time>
      </trkpt>
      <trkpt lat="58.50179" lon="-4.34163">
        <ele>83.59</ele>
        <time>2021-03-20T23:58:40Z</time>
      </trkpt>
      <trkpt lat="58.50214" lon="-4.34101">
        <ele>79.97</ele>
        <time>2021-03-20T23:58:43Z</time>
      </trkpt>
      <trkpt lat="58.50216" lon="-4.34069">
        <ele>77.33</ele>
        <time>2021-03-20T23:58:46Z</time>
      </trkpt>
      <trkpt lat="58.50215" lon="-4.34">
        <ele>73.28</ele>
        <time>2021-03-20T23:58:49Z</time>
      </trkpt>
      <trkpt lat="58.50208" lon="-4.33912">
        <ele>73.68</ele>
        <time>2021-03-20T23:58:52Z</time>
      </trkpt>
      <trkpt lat="58.50211" lon="-4.33847">
        <ele>75.92</ele>
        <time>2021-03-20T23:58:55Z</time>
      </trkpt>
      <trkpt lat="58.5022" lon="-4.33799">
        <ele>78.6</ele>
        <time>2021-03-20T23:58:59Z</time>
      </trkpt>
      <trkpt lat="58.50296" lon="-4.33565">
        <ele>88.39</ele>
        <time>2021-03-20T23:59:02Z</time>
      </trkpt>
      <trkpt lat="58.50307" lon="-4.33507">
        <ele>90.47</ele>
        <time>2021-03-20T23:59:05Z</time>
      </trkpt>
      <trkpt lat="58.50309" lon="-4.33445">
        <ele>91.99</ele>
        <time>2021-03-20T23:59:08Z</time>
      </trkpt>
      <trkpt lat="58.50283" lon="-4.33181">
        <ele>104.05</ele>
        <time>2021-03-20T23:59:11Z</time>
      </trkpt>
      <trkpt lat="58.50259" lon="-4.33034">
        <ele>107</ele>
        <time>2021-03-20T23:59:14Z</time>
      </trkpt>
      <trkpt lat="58.50239" lon="-4.32976">
        <ele>108</ele>
        <time>2021-03-20T23:59:18Z</time>
      </trkpt>
      <trkpt lat="58.50078" lon="-4.32721">
        <ele>112.82</ele>
        <time>2021-03-20T23:59:21Z</time>
      </trkpt>
      <trkpt lat="58.50065" lon="-4.32677">
        <ele>112.99</ele>
        <time>2021-03-20T23:59:24Z</time>
      </trkpt>
      <trkpt lat="58.50039" lon="-4.32559">
        <ele>114.88</ele>
        <time>2021-03-20T23:59:27Z</time>
      </trkpt>
      <trkpt lat="58.5002" lon="-4.32523">
        <ele>115.24</ele>
        <time>2021-03-20T23:59:30Z</time>
      </trkpt>
      <trkpt lat="58.49967" lon="-4.32441">
        <ele>117.54</ele>
        <time>2021-03-20T23:59:33Z</time>
      </trkpt>
      <trkpt lat="58.49896" lon="-4.32309">
        <ele>117.74</ele>
        <time>2021-03-20T23:59:37Z</time>
      </trkpt>
      <trkpt lat="58.49878" lon="-4.32263">
        <ele>117</ele>
        <time>2021-03-20T23:59:40Z</time>
      </trkpt>
      <trkpt lat="58.49862" lon="-4.32209">
        <ele>117.01</ele>
        <time>2021-03-20T23:59:43Z</time>
      </trkpt>
      <trkpt lat="58.49839" lon="-4.32105">
        <ele>118.19</ele>
        <time>2021-03-20T23:59:46Z</time>
      </trkpt>
      <trkpt lat="58.49768" lon="-4.31705">
        <ele>115</ele>
        <time>2021-03-20T23:59:49Z</time>
      </trkpt>
      <trkpt lat="58.49688" lon="-4.3135">
        <ele>110.84</ele>
        <time>2021-03-20T23:59:52Z</time>
      </trkpt>
      <trkpt lat="58.4967" lon="-4.31147">
        <ele>109</ele>
        <time>2021-03-20T23:59:56Z</time>
      </trkpt>
      <trkpt lat="58.49638" lon="-4.30866">
        <ele>108.04</ele>
        <time>2021-03-20T23:59:59Z</time>
      </trkpt>
      <trkpt lat="58.49621" lon="-4.30801">
        <ele>107.5</ele>
        <time>2021-03-21T00:00:02Z</time>
      </trkpt>
      <trkpt lat="58.496" lon="-4.30747">
        <ele>105.83</ele>
        <time>2021-03-21T00:00:05Z</time>
      </trkpt>
      <trkpt lat="58.49508" lon="-4.30538">
        <ele>99.56</ele>
        <time>2021-03-21T00:00:08Z</time>
      </trkpt>
      <trkpt lat="58.49491" lon="-4.30475">
        <ele>96.81</ele>
        <time>2021-03-21T00:00:12Z</time>
      </trkpt>
      <trkpt lat="58.4948" lon="-4.30426">
        <ele>93.88</ele>
        <time>2021-03-21T00:00:15Z</time>
      </trkpt>
      <trkpt lat="58.49478" lon="-4.30355">
        <ele>91.37</ele>
        <time>2021-03-21T00:00:18Z</time>
      </trkpt>
      <trkpt lat="58.49517" lon="-4.30077">
        <ele>79.31</ele>
        <time>2021-03-21T00:00:21Z</time>
      </trkpt>
      <trkpt lat="58.49521" lon="-4.29969">
        <ele>75.06</ele>
        <time>2021-03-21T00:00:24Z</time>
      </trkpt>
      <trkpt lat="58.49519" lon="-4.29834">
        <ele>71.41</ele>
        <time>2021-03-21T00:00:27Z</time>
      </trkpt>
      <trkpt lat="58.49579" lon="-4.29397">
        <ele>61.85</ele>
        <time>2021-03-21T00:00:31Z</time>
      </trkpt>
      <trkpt lat="58.49574" lon="-4.29311">
        <ele>59.01</ele>
        <time>2021-03-21T00:00:34Z</time>
      </trkpt>
      <trkpt lat="58.49566" lon="-4.29225">
        <ele>55.53</ele>
        <time>2021-03-21T00:00:37Z</time>
      </trkpt>
      <trkpt lat="58.49564" lon="-4.29166">
        <ele>52.22</ele>
        <time>2021-03-21T00:00:40Z</time>
      </trkpt>
      <trkpt lat="58.49571" lon="-4.29101">
        <ele>48.49</ele>
        <time>2021-03-21T00:00:43Z</time>
      </trkpt>
      <trkpt lat="58.49589" lon="-4.29023">
        <ele>43.42</ele>
        <time>2021-03-21T00:00:46Z</time>
      </trkpt>
      <trkpt lat="58.49625" lon="-4.28895">
        <ele>39.57</ele>
        <time>2021-03-21T00:00:50Z</time>
      </trkpt>
      <trkpt lat="58.49633" lon="-4.28851">
        <ele>38.43</ele>
        <time>2021-03-21T00:00:53Z</time>
      </trkpt>
      <trkpt lat="58.49653" lon="-4.28776">
        <ele>36.45</ele>
        <time>2021-03-21T00:00:56Z</time>
      </trkpt>
      <trkpt lat="58.49654" lon="-4.28765">
        <ele>36.05</ele>
        <time>2021-03-21T00:00:59Z</time>
      </trkpt>
      <trkpt lat="58.49671" lon="-4.28726">
        <ele>35.28</ele>
        <time>2021-03-21T00:01:04Z</time>
      </trkpt>
      <trkpt lat="58.49697" lon="-4.28672">
        <ele>36.05</ele>
        <time>2021-03-21T00:01:10Z</time>
      </trkpt>
      <trkpt lat="58.49713" lon="-4.28631">
        <ele>35.67</ele>
        <time>2021-03-21T00:01:16Z</time>
      </trkpt>
      <trkpt lat="58.49739" lon="-4.28551">
        <ele>37.81</ele>
        <time>2021-03-21T00:01:21Z</time>
      </trkpt>
      <trkpt lat="58.49747" lon="-4.28506">
        <ele>36.97</ele>
        <time>2021-03-21T00:01:27Z</time>
      </trkpt>
      <trkpt lat="58.49765" lon="-4.28385">
        <ele>38.01</ele>
        <time>2021-03-21T00:01:33Z</time>
      </trkpt>
      <trkpt lat="58.49776" lon="-4.28326">
        <ele>36.42</ele>
        <time>2021-03-21T00:01:38Z</time>
      </trkpt>
      <trkpt lat="58.49803" lon="-4.28238">
        <ele>38.55</ele>
        <time>2021-03-21T00:01:44Z</time>
      </trkpt>
      <trkpt lat="58.49851" lon="-4.28109">
        <ele>39.15</ele>
        <time>2021-03-21T00:01:50Z</time>
      </trkpt>
      <trkpt lat="58.4987" lon="-4.28063">
        <ele>38.17</ele>
        <time>2021-03-21T00:01:56Z</time>
      </trkpt>
      <trkpt lat="58.5003" lon="-4.27824">
        <ele>37.48</ele>
        <time>2021-03-21T00:02:01Z</time>
      </trkpt>
      <trkpt lat="58.50125" lon="-4.27709">
        <ele>36.53</ele>
        <time>2021-03-21T00:02:07Z</time>
      </trkpt>
      <trkpt lat="58.5032" lon="-4.2751">
        <ele>35.62</ele>
        <time>2021-03-21T00:02:13Z</time>
      </trkpt>
    </trkseg>
  </trk>
</gpx>